[[{"header":{"parameterUnit":"m.s-1","parameterCategory":1,"la1":30.6,"la2":29.2853,"lo1":-89.7004,"lo2":-87.6739,"dy":0.0162,"dx":0.0183,"nx":112,"ny":82,"refTime":"2024-09-08T00:00:00:Z","depth":0,"parameterNumber":2,"parameterNumberName":"U-component_of_WINDS"},"data":[0.0,0.0,0.0,0.0,0.0,0.0,0.0,0.0,0.0,0.0,0.0,0.0,0.0,0.0,0.0,0.0,0.0,0.0,0.0,0.0,0.0,0.0,0.0,0.0,0.0,0.0,0.0,0.0,0.0,0.0,0.0,0.0,0.0,0.0,0.0,0.0,0.0,0.0,0.0,0.0,0.0,0.0,0.0,0.0,0.0,0.0,0.0,0.0,0.0,0.0,0.0,0.0,0.0,0.0,0.0,0.0,0.0,0.0,0.0,0.0,0.0,0.0,0.0,0.0,0.0,0.0,0.0,0.0,0.0,0.0,0.0,0.0,0.0,0.0,0.0,0.0,0.0,0.0,0.0,0.0,0.0,0.0,0.0,0.0,0.0,0.0,0.0,0.0,0.0,0.0,0.0,0.1891,0.0709,0.0,0.0,0.0,0.0,0.0,0.0,0.0,0.0,0.0,0.0,0.0,0.0,0.0,0.0,0.0,0.0,0.0,0.0,0.0,0.0,0.0,0.0,0.0,0.0,0.0,0.0,0.0,0.0,0.0,0.0,0.0,0.0,0.0,0.0,0.0,0.0,0.0,0.0,0.0,0.0,0.0,0.0,0.0,0.0,0.0,0.0,0.0,0.0,0.0,0.0,0.0,0.0,0.0,0.0,0.0,0.0,0.0,0.0,0.0,0.0,0.0,0.0,0.0,0.0,0.0,0.0,0.0,0.0,0.0,0.0,0.0,0.0,0.0,0.0,0.0,0.0,0.0,0.0,0.0,0.0,0.0,0.0,0.0,0.0,0.0,0.0,0.0,0.0,0.0,0.0,0.0,0.0,0.0,0.0,0.0,0.0,0.0,0.0,0.0,0.0,0.0,0.0,0.0,0.0,0.0,0.0,0.0,0.0,0.0,0.1694,0.0492,0.0144,0.0,0.0,0.0,0.0,0.0,0.0,0.0,0.0,0.0,0.0,0.0,0.0,0.0,0.0,0.0,0.0,0.0,0.0,0.0,0.0,0.0,0.0,0.0,0.0,0.0,0.0,0.0,0.0,0.0,0.0,0.0,0.0,0.0,0.0,0.0,0.0,0.0,0.0,0.0,0.0,0.0,0.0,0.0,0.0,0.0,0.0,0.0,0.0,0.0,0.0,0.0,0.0,0.0,0.0,0.0,0.0,0.0,0.0,0.0,0.0,0.0,0.0,0.0,0.0,0.0,0.0,0.0,0.0,0.0,0.0,0.0,0.0,0.0,0.0,0.0,0.0,0.0,0.0,0.0,0.0,0.0,0.0,0.0,0.0,0.0,0.0,0.0,0.0,0.0,0.0,0.0,0.0,0.0,0.0,0.0,0.0,0.0,0.0,0.0,0.0,0.0,0.0,0.0,0.0,0.0,0.0,0.0,0.0,0.1813,0.0738,0.0072,0.0,0.0,0.0,0.0,0.0,0.0,0.0,0.0,0.0,0.0,0.0,0.0,0.0,0.0,0.0,0.0,0.0,0.0,0.0,0.0,0.0,0.0,0.0,0.0,0.0,0.0,0.0,0.0,0.0,0.0,0.0,0.0,0.0,0.0,0.0,0.0,0.0,0.0,0.0,0.0,0.0,0.0,0.0,0.0,0.0,0.0,0.0,0.0,0.0,0.0,0.0,0.0,0.0,0.0,0.0,0.0,0.0,0.0,0.0,0.0,0.0,0.0,0.0,0.0,0.0,0.0,0.0,0.0,0.0,0.0,0.0,0.0,0.0,0.0,0.0,0.0,0.0,0.0,0.0,0.0,0.0,0.0,0.0,0.0,0.0,0.0,0.0,0.0,0.0,0.0,0.0,0.0,0.0,0.0,0.0,0.0,0.0,0.0,0.0,0.0,0.0,0.0,0.0,0.0,0.0,0.0,0.0,0.0,0.0,0.0,0.0,0.0,0.0,0.0,0.0,0.0,0.0,0.0,0.0,0.0,0.0,0.0,0.0,0.0,0.0,0.0,0.0,0.0,0.0,0.0,0.0,0.0,0.0,0.0,0.0,0.0,0.0,0.0,0.0,0.0,0.0,0.0,0.0,0.0,0.0,0.0,0.0,0.0,0.0,0.0,0.0,0.0,0.0,0.0,0.0,0.0,0.0,0.0,0.0,0.0,0.0,0.0,0.0,0.0,0.0,0.0,0.0,0.0,0.0,0.0,0.0,0.0,0.0,0.0,0.0,0.0,0.0,0.0,0.0,0.0,0.0,0.0,0.0,0.0,0.0,0.0,0.0,0.0,0.0,0.0,0.0,0.0,0.0,0.0,0.0,0.0,0.0,0.0,0.0,0.0,0.0,0.0,0.0,0.0,0.0,0.0,0.0,0.0,0.0,0.0,0.0,0.0,0.0,0.0,0.0,0.0,0.0,0.0,0.0,0.0,0.0,0.0,0.0,0.0,0.0,0.0,0.0,0.0,0.0,0.0,0.0,0.0,0.0,0.0,0.0,0.0,0.0,0.0,0.0,0.0,0.0,0.0,0.0,0.0,0.0,0.0,0.0,0.0,0.0,0.0,0.0,0.0,0.0,0.0,0.0,0.0,0.0,0.0,0.0,0.0,0.0,0.0,0.0,0.0,0.0,0.0,0.0,0.0,0.0,0.0,0.0,0.0,0.0,0.0,0.0,0.0,0.0,0.0,0.0,0.0,0.0,0.0,0.0,0.0,0.0,0.0,0.0,0.0,0.0,0.0,0.0,0.0,0.0,0.0,0.0,0.0,0.0,0.0,0.0,0.0,0.0,0.0,0.0,0.0,0.0,0.0,0.0,0.0,0.0,0.0,0.0,0.0,0.0,0.0,0.0,0.0,0.0,0.0,0.0,0.0,0.0,0.0,0.0,0.0,0.0,0.0,0.0,0.0,0.0,0.0,0.0,0.0,0.0,0.0,0.0,0.0,0.0,0.0,0.0,0.0,0.0,0.0,0.0,0.0,0.0,0.0,0.0,0.0,0.0,0.0,0.0,0.0,0.0,0.0,0.0,0.0,0.0,0.0,0.0,0.0,0.0,0.0,0.0,0.0,0.0,0.0,0.0,0.0,0.0,0.0,0.0,0.0,0.0,0.0,0.0,0.0,0.0,0.0,0.0,0.0,0.0,0.0,0.0,0.0,0.0,0.0,0.0,0.0,0.0,0.0,0.0,0.0,0.0,0.0,0.0,0.0,0.0,0.0,0.0,0.0,0.0,0.0,0.0,0.0,0.0,0.0,0.0,0.0,0.0,0.0,0.0,0.0,0.0,0.0,0.0,0.0,0.0,0.0,0.0,0.0,0.0,0.0,0.0,0.0,0.0,0.0,0.0,0.0,0.0,0.0,0.0,0.0,0.0,0.0,0.0,0.0,0.0,0.0,0.0,0.0,0.0,0.0,0.0,0.0,0.0,0.0,0.0,0.0,0.0,0.0,0.0,0.0,0.0,0.0,0.0,0.0,0.0,0.0,0.0,0.0,0.0,0.0,0.0,0.0,0.0,0.0,0.0,0.0,0.0,0.0,0.0,0.0,0.0,0.0,0.0,0.0,0.0,0.0,0.0,0.0,0.0,0.0,0.0,0.0,0.0,0.0,0.0,0.0,0.0,0.0,0.0,0.0,0.0,0.0,0.0,0.0,0.0,0.0,0.0,0.0,0.0,0.0,0.0,0.0,0.0,0.0,0.0,0.0,0.0,0.0,0.0,0.0,0.0,0.0,0.0,0.0,0.0,0.0,0.0,0.0,0.0,0.0,0.0,0.0,0.0,0.0,0.0,0.0,0.0,0.0,0.0,0.0,0.0,0.0,0.0,0.0,0.0,0.0,0.0,0.0,0.0,0.0,0.0,0.0,0.0,0.0,0.0,0.0,0.0,0.0,0.0,0.0,0.0,0.0,0.0,0.0,0.0,0.0,0.0,0.0,0.0,0.0,0.0,0.0,0.0,0.0,0.0,0.0,0.0,0.0,0.0,0.0,0.0,0.0,0.0,0.0,0.0,0.0,0.0,0.0,0.0,0.0,0.0,0.0,0.0,0.0,0.0,0.0,0.0,0.0,0.0,0.0,0.0,0.0,0.0,0.0,0.0,0.0,0.0,0.0,0.0,0.0,0.0,0.0,0.0,0.0,0.0,0.0,0.0,0.0,0.0,0.0,0.0,0.0,0.0,0.0,0.0,0.0,0.0,0.0,0.0,0.0,0.0,0.0,0.0,0.0,0.0,0.0,0.0,0.0,0.0,0.0,0.0,0.0,0.0,0.0,0.0,0.0,0.0,0.0,0.0,0.0,0.0,0.0,0.0,0.0,0.0,0.0,0.0,0.0,0.0,0.0,0.0,0.0,0.0,0.0,0.0,0.0,0.0,0.0,0.0,0.0,0.0,0.0,0.0,0.0,0.0,0.0,0.0,0.0,0.0,0.0,0.0,0.0,0.0,0.0,0.0,0.0,0.0,0.0,0.0,0.0,0.0,0.0,0.0,0.0,0.0,0.0,0.0,0.0,0.0,0.0,0.0,0.0,0.0,0.0,0.0,0.0,0.0,0.0,0.0,0.0,0.0,0.0,0.0,0.0,0.0,0.0,0.0,0.0,0.0,0.0,0.0,0.0,0.0,0.0,0.0,0.0,0.0,0.0,0.0,0.0,0.0,0.0,0.0,0.0,0.0,0.0,0.0,0.0,0.0,0.0,0.0,0.0,0.0,0.0,0.0,0.0,0.0,0.0,0.0,0.0,0.0,0.0,0.0,0.0,0.0,0.0,0.0,0.0,0.0,0.0,0.0,0.0,0.0,0.0,0.0,0.0,0.0,0.0,0.0,0.0,0.0,0.0,0.0,0.0,0.0,0.0,0.0,0.0,0.0,0.0,0.0,0.0,0.0,0.0,0.0,0.0,0.0,0.0,0.0,0.0,0.0,0.0,0.0,0.0,0.0,0.0,0.0,0.0,0.0,0.0,0.0,0.0,0.0,0.0,0.0,0.0,0.0,0.0,0.0,0.0,0.0,0.0,0.0,0.0,0.0,0.0,0.0,0.0,0.0,0.0,0.0,0.0,0.0,0.0,0.0,0.0,0.0,0.0,0.0,0.0,0.0,0.0,0.0,0.0,0.0,0.0,0.0,0.0,0.0,0.0,0.0,0.0,0.0,0.0,0.0,0.0,0.0,0.0,0.0,0.0,0.0,0.0,0.0,0.0,0.0,0.0,0.0,0.0,0.0,0.0,0.0,0.0,0.0,0.0,0.0,0.0,0.0,0.0,0.0,0.0,0.0,0.0,0.0,0.0,0.0,0.0,0.0,0.0,0.0,0.0,0.0,0.0,0.0,0.0,0.0,0.0,0.0,0.0,0.0,0.0,0.0,0.0,0.0,0.0,0.0,0.0,0.0,0.0,0.0,0.0,0.0,0.0,0.0,0.0,0.0,0.0,0.0,0.0,0.0,0.0,0.0,0.0,0.0,0.0,0.0,0.0,0.0,0.0,0.0,0.0,0.0,0.0,0.0,0.0,0.0,0.0,0.0,0.0,0.0,0.0,0.0,0.0,0.0,0.0,0.0,0.0,0.0,0.0,0.0,0.0,0.0,0.0,0.0,0.0,0.0,0.0,0.0,0.0,0.0,0.0,0.0,0.0,0.0,0.0,0.0,0.0,0.0,0.0,0.0,0.0,0.0,0.0,0.0,0.0,0.0,0.0,0.0,0.0,0.0,0.0,0.0,0.0,0.0,0.0,0.0,0.0,0.0,0.0,0.0,0.0,0.0,0.0,0.0,0.0,0.0,0.0,0.0,0.0,0.0,0.0,0.0,0.0,0.0,0.0,0.0,0.0,0.0,0.0,0.0,0.0,0.0,0.0,0.0,0.0,0.0,0.0,0.0,0.0,0.0,0.0,0.0,0.0,0.0,0.0,0.0,0.0,0.0,0.0,0.0,0.0,0.0,0.0,0.0,0.0,0.0,0.0,0.0,0.0,0.0,0.0,0.0,0.0,0.0,0.0,0.0,0.0,0.0,0.0,0.0,0.0,0.0,0.0,0.0,0.0,0.0,0.0,0.0,0.0,0.0,0.0,0.0,0.0,0.0,0.0,0.0,0.0,0.0,0.0,0.0,0.0,0.0,0.0,0.0,0.0,0.0,0.0,0.0,0.0,0.0,0.0,0.0,0.0,0.0,0.0,0.0,0.0,0.0,0.0,0.0,0.0,0.0,0.0,0.0,0.0,0.0,0.0,0.0,0.0,0.0,0.0,0.0,0.0,0.0,0.0,0.0,0.0,0.0,0.0,0.0,0.0,0.0,0.0,0.0,0.0,0.0,0.0,0.0,0.0,0.0,0.0,0.0,0.0,0.0,0.0,0.0,0.0,0.0,0.0,0.0,0.0,0.0,0.0,0.0,0.0,0.0,0.0,0.0,0.0,0.0,0.0,0.0,0.0,0.0,0.0,0.0,0.0,0.0,0.0,0.0,0.0,0.0,0.0,0.0,0.0,0.0,0.0,0.0,0.0,0.0,0.0,0.0,0.0,0.0,0.0,0.0,0.0,0.0,0.0,0.0,0.0,0.0,0.0,0.0,0.0,0.0,0.0,0.0,0.0,0.0,0.0,0.0,0.0,0.0,0.0,0.0,0.0,0.0,0.0,0.0,0.0,0.0,0.0,0.0,0.0,0.0,0.0,0.0,0.0,0.0,0.0,0.0,0.0,0.0,0.0,0.0,0.0,0.0,0.0,0.0,0.0,0.0,0.0,0.0,0.0,0.0,0.0,0.0,0.0,0.0,0.0,0.0,0.0,0.0,0.0,0.0,0.0,0.0,0.0,0.0,0.0,0.0,0.0,0.0,0.0,0.0,0.0,0.0,0.0,0.0,0.0,0.0,0.0,0.0,0.0,0.0,0.0,0.0,0.0,0.0,0.0,0.0,0.0,0.0,0.0,0.0,0.0,0.0,0.0,0.0,0.0,0.0,0.0,0.0,0.0,0.0,0.0,0.0,0.0,0.0,0.0,0.0,0.0,0.0,0.0,0.0,0.0,0.0,0.0,0.0,0.0,0.0,0.0,0.0,0.0,0.0,0.0,0.0,0.0,0.0,0.0,0.0,0.0,0.0,0.0,0.0,0.0,0.0,0.0,0.0,0.0,0.0,0.0,0.0,0.0,0.0,0.0,0.0,0.0,0.0,0.0,0.0,0.0,0.0,0.0,0.0,0.0,0.0,0.0,0.0,0.0,0.0,0.0,0.0,0.0,0.0,0.0,0.0,0.0,0.0,0.0,0.0,0.0,0.0,0.0,0.0,0.0,0.0,0.0,0.0,0.0,0.0,0.0,0.0,0.0,0.0,0.0,0.0,0.0,0.0,0.0,0.0,0.0,0.0,0.0,0.0,0.0,0.0,0.0,0.0,0.0,0.0,0.0,0.0,0.0,0.0,0.0,0.0,0.0,0.0,0.0,0.0,0.0,0.0,0.0,0.0,0.0,0.0,0.0,0.0,0.0,0.0,0.0,0.0,0.0,0.0,0.0,0.0,0.0,0.0,0.0,0.0,0.0,0.0,0.0,0.0,0.0,0.0,0.0,0.0,0.0,0.0,0.0,0.0,0.0,0.0,0.0,0.0,0.0,0.0,0.0,0.0,0.0,0.0,0.0,0.0,0.0,0.0,0.0,0.0,0.0,0.0,0.0,0.0,0.0,0.0,0.0,0.0,0.0,0.0,0.0,0.0,0.0,0.0,0.0,0.0,0.0,0.0,0.0,0.0,0.0,0.0,0.0,0.0,0.0,0.0,0.0,0.0,0.0,0.0,0.0,0.0,0.0,0.0,0.0,0.0,0.0,0.0,0.0,0.0,0.0,0.0,0.0,0.0,0.0,0.0,0.0,0.0,0.0,0.0,0.0,0.0,0.0,0.0,0.0,0.0,0.0,0.0,0.0,0.0,0.0,0.0,0.0,0.0,0.0,0.0,0.0,0.0,0.0,0.0,0.0,0.0,0.0,0.0,0.0,0.0,0.0,0.0,0.0,0.0,0.0,0.0,0.0,0.0,0.0,0.0,0.0,0.0,0.0,0.0,0.0,0.0,0.0,0.0,0.0,0.0,0.0,0.0,0.0,0.0,0.0,0.0,0.0,0.0,0.0,0.0,0.0,0.0,0.0,0.0,0.0,0.0,0.0,0.0,0.0,0.0,0.0,0.0,0.0,0.0,0.0,0.0,0.0,0.0,0.0,0.0,0.0,0.0,0.0,0.0,0.0,0.0,0.0,0.0,0.0,0.0,0.0,0.0,0.0,0.0,0.0,0.0,0.0,0.0,0.0,0.0,0.0,0.0,0.0,0.0,0.0,0.0,0.0,0.0,0.0,0.0,0.0,0.0,0.0,0.0,0.0,0.0,0.0,0.0,0.0,0.0,0.0,0.0,0.0,0.0,0.0,0.0,0.0,0.0,0.0,0.0,0.0,0.0,0.0,0.0,0.0,0.0,0.0,0.0,0.0,0.0,0.0,0.0,0.0,0.0,0.0,0.0,0.0,0.0,0.0,0.0,0.0,0.0,0.0,0.0,0.0,0.0,0.0,0.0,0.0,0.0,0.0,0.0,0.0,0.0,0.0,0.0,0.0,0.0,0.0,0.0,0.0,0.0,0.0,0.0,0.0,0.0,0.0,0.0,0.0,0.0,0.0,0.0,0.0,0.0,0.0,0.0,0.0,0.0,0.0,0.0,0.0,0.0,0.0,0.0,0.0,0.0,0.0,0.0,0.0,0.0,0.0,0.0,0.0,0.0,0.0,0.0,0.0,0.0,0.0,0.0,0.0,0.0,0.0,0.0,0.0,0.0,0.0,0.0,0.0,0.0,0.0,0.0,0.0,0.0,0.0,0.0,0.0,0.0,0.0,0.0,0.0,0.0,0.0,0.0,0.0,0.0,0.0,0.0,0.0,0.0,0.0,0.0,0.0,0.0,0.0,0.0,0.0,0.0,0.0,0.0,0.0,0.0,0.0,0.0,0.0,0.0,0.0,0.0,0.0,0.0,0.0,0.0,0.0,0.0,0.0,0.0,0.0,0.0,0.0,0.0,0.0,0.0,0.0,0.0,0.0,0.0,0.0,0.0,0.0,0.0,0.0,0.0,0.0,0.0,0.0,0.0,0.0,0.0,0.0,0.0,0.0,0.0,0.0,0.0,0.0,0.0,0.0,0.0,0.0,0.0,0.0,0.0,0.0,0.0,0.0,0.0,0.0,0.0,0.0,0.0,0.0,0.0,0.0,0.0,0.0,0.0,0.0,0.0,0.0,0.0,0.0,0.0,0.0,0.0,0.0,0.0,0.0,0.0,0.0,0.0,0.0,0.0,0.0,0.0,0.0,0.0,0.0,0.0,0.0,0.0,0.0,0.0,0.0,0.0,0.0,0.0,0.0,0.0,0.0,0.0,0.0,0.0,0.0,0.0,0.0,0.0,0.0,0.0,0.0,0.0,0.0,0.0,0.0,0.0,0.0,0.0,0.0,0.0,0.0,0.0,0.0,0.0,0.0,0.0,0.0,0.0,0.0,0.0,0.0,0.0,0.0,0.0,0.0,0.0,0.0,0.0,0.0,0.0,0.0,0.0,0.0,0.0,0.0,0.0,0.0,0.0,0.0,0.0,0.0,0.0,0.0,0.0,0.0,0.0,0.0,0.0,0.0,0.0,0.0,0.0,0.0,0.0,0.0,0.0,0.0,0.0,0.0,0.0,0.0,0.0,0.0,0.0,0.0,0.0,0.0,0.0,0.0,0.0,0.0,0.0,0.0,0.0,0.0,0.0,0.0,0.0,0.0,0.0,0.0,0.0,0.0,0.0,0.0,0.0,0.0,0.0,0.0,0.0,0.0,-0.0144,-0.0699,-0.0356,-0.0218,-0.0729,-0.0292,0.0,0.0,0.0,0.0,0.0,0.0,0.0,0.0,0.0,0.0,0.0,0.0,0.0,0.0,0.0,0.0,0.0,0.0,0.0,0.0,0.0,0.0,0.0,0.0,0.0,0.0,0.0,0.0,0.0,0.0,0.0,0.0,0.0,0.0,0.0,0.0,0.0,0.0,0.0,0.0,0.0,0.0,0.0,0.0,0.0,0.0,0.0,0.0,0.0,0.0,0.0,0.0,0.0,0.0,0.0,0.0,0.0,0.0,0.0,0.0,0.0,0.0,0.0,0.0,0.0,0.0,0.0,0.0,0.0,0.0,0.0,0.0,0.0,0.0,0.0,0.0,0.0,0.0,0.0,0.0,0.0,0.0,0.0,0.0,0.0,0.0,0.0,0.0,0.0,0.0,0.0,0.0,0.0,0.0,0.0,0.0,0.0,0.0,0.0,0.0,0.0,0.0,0.0,0.0,0.0,0.0,-0.0501,-0.1999,-0.0929,0.0,-0.2035,-0.0948,0.0,-0.0073,-0.0073,-0.0073,-0.0073,-0.0072,-0.0072,0.0,0.0,0.0,0.0,0.0,0.0,0.0,0.0,0.0,0.0,0.0,0.0,0.0,0.0,0.0,0.0,0.0,0.0,0.0,0.0,0.0,0.0,0.0,0.0,0.0,0.0,0.0,0.0,0.0,0.0,0.0,0.0,0.0,0.0,0.0,0.0,0.0,0.0,0.0,0.0,0.0,0.0,0.0,0.0,0.0,0.0,0.0,0.0,0.0,0.0,0.0,0.0,0.0,0.0,0.0,0.0,0.0,0.0,0.0,0.0,0.0,0.0,0.0,0.0,0.0,0.0,0.0,0.0,0.0,0.0,0.0,0.0,0.0,0.0,0.0,0.0,0.0,0.0,0.0,0.0,0.0,0.0,0.0,0.0,0.0,0.0,0.0,0.0,0.0,0.0,0.0,0.0,0.0,0.0,0.0,0.0,0.0,0.0,0.0,-0.0145,-0.0573,-0.0288,0.0,-0.0583,-0.0292,-0.0438,-0.153,-0.1675,-0.1675,-0.1675,-0.167,-0.1162,-0.0073,0.0,0.0,0.0,0.0,0.0,0.0,0.0,0.0,0.0,0.0,0.0,0.0,0.0,0.0,0.0,0.0,0.0,0.0,0.0,0.0,0.0,0.0,0.0,0.0,0.0,0.0,0.0,0.0,0.0,0.0,0.0,0.0,0.0,0.0,0.0,0.0,0.0,0.0,0.0,0.0,0.0,0.0,0.0,0.0,0.0,0.0,0.0,0.0,0.0,0.0,0.0,0.0,0.0,0.0,0.0,0.0,0.0,0.0,0.0,0.0,0.0,0.0,0.0,0.0,0.0,0.0,0.0,0.0,0.0,0.0,0.0,0.0,0.0,0.0,0.0,0.0,0.0,0.0,0.0,0.0,0.0,0.0,0.0,0.0,0.0,0.0,0.0,0.0,0.0,0.0,0.0,0.0,0.0,0.0,0.0,0.0,0.0,0.0,-0.0218,-0.0866,-0.0435,-0.0219,-0.0875,-0.0365,-0.0365,-0.1239,-0.1311,-0.1311,-0.1311,-0.1305,0.0,0.0,0.0,0.0,0.0,0.0,0.0,0.0,0.0,0.0,0.0,0.0,0.0,0.0,0.0,0.0,0.0,0.0,0.0,0.0,0.0,0.0,0.0,0.0,0.0,0.0,0.0,0.0,0.0,0.0,0.0,0.0,0.0,0.0,0.0,0.0,0.0,0.0,0.0,0.0,0.0,0.0,0.0,0.0,0.0,0.0,0.0,0.0,0.0,0.0,0.0,0.0,0.0,0.0,0.0,0.0,0.0,0.0,0.0,0.0,0.0,0.0,0.0,0.0,0.0,0.0,0.0,0.0,0.0,0.0,0.0,0.0,0.0,0.0,0.0,0.0,0.0,0.0,0.0,0.0,0.0,0.0,0.0,0.0,0.0,0.0,0.0,0.0,0.0,0.0,0.0,0.0,0.0,0.0,0.0,0.0,0.0,0.0,0.0,0.0,-0.0438,-0.182,-0.0875,-0.0511,-0.1893,-0.0875,-0.0073,-0.0219,0.0,0.0,-0.0292,-0.0289,-0.0216,0.0,0.0,0.0,0.0,0.0,0.0,0.0,0.0,0.0,0.0,0.0,0.0,0.0,0.0,0.0,0.0,0.0,0.0,0.0,0.0,0.0,0.0,0.0,0.0,0.0,0.0,0.0,0.0,0.0,0.0,0.0,0.0,0.0,0.0,0.0,0.0,0.0,0.0,0.0,0.0,0.0,0.0,0.0,0.0,0.0,0.0,0.0,0.0,0.0,0.0,0.0,0.0,0.0,0.0,0.0,0.0,0.0,0.0,0.0,0.0,0.0,0.0,0.0,0.0,0.0,0.0,0.0,0.0,0.0,0.0,0.0,0.0,0.0,0.0,0.0,0.0,0.0,0.0,0.0,0.0,0.0,0.0,0.0,0.0,0.0,0.0,0.0,0.0,0.0,0.0,0.0,0.0,0.0,0.0,0.0,0.0,0.0,0.0,0.0,-0.0073,-0.0365,-0.0219,-0.0073,-0.0438,-0.0219,-0.0511,-0.1748,-0.182,-0.182,-0.182,-0.1889,-0.1308,-0.0073,0.0,0.0,0.0,0.0,0.0,0.0,0.0,0.0,0.0,0.0,0.0,0.0,0.0,0.0,0.0,0.0,0.0,0.0,0.0,0.0,0.0,0.0,0.0,0.0,0.0,0.0,0.0,0.0,0.0,0.0,0.0,0.0,0.0,0.0,0.0,0.0,0.0,0.0,0.0,0.0,0.0,0.0,0.0,0.0,0.0,0.0,0.0,0.0,0.0,0.0,0.0,0.0,0.0,0.0,0.0,0.0,0.0,0.0,0.0,0.0,0.0,0.0,0.0,0.0,0.0,0.0,0.0,0.0,0.0,0.0,0.0,0.0,0.0,0.0,0.0,0.0,0.0,0.0,0.0,0.0,0.0,0.0,0.0,0.0,0.0,0.0,0.0,0.0,0.0,0.0,0.0,0.0,0.0,0.0,0.0,0.0,0.0,0.0,0.0,0.0,0.0,0.0,0.0,0.0,-0.0292,-0.1094,-0.1166,-0.1166,-0.1166,-0.1166,-0.0802,-0.0073,0.0,0.0,0.0,0.0,0.0,0.0,0.0,0.0,0.0,0.0,0.0,0.0,0.0,0.0,0.0,0.0,0.0,0.0,0.0,0.0,0.0,0.0,0.0,0.0,0.0,0.0,0.0,0.0,0.0,0.0,0.0,0.0,-0.0073,-0.0146,-0.0146,-0.0146,-0.0073,0.0,0.0,0.0,0.0,0.0,0.0,0.0,0.0,0.0,0.0,0.0,0.0,0.0,0.0,0.0,0.0,0.0,0.0,0.0,0.0,0.0,0.0,0.0,0.0,0.0,0.0,0.0,0.0,0.0,0.0,0.0,0.0,0.0,0.0,0.0,0.0,0.0,0.0,0.0,0.0,0.0,0.0,0.0,0.0,0.0,0.0,0.0,0.0,0.0,0.0,0.0,0.0,0.0,0.0,0.0,0.0,0.0,0.0,0.0,0.0,0.0,0.0,0.0,0.0,0.0,0.0,0.0,0.0,0.0,0.0,0.0,0.0,0.0,0.0,0.0,0.0,0.0,0.0,0.0,0.0,0.0,0.0,0.0,0.0,0.0,0.0,0.0,0.0,0.0,0.0,0.0,0.0,0.0,0.0,0.0,0.0,0.0,0.0,0.0,0.0,0.0,0.0,0.0,0.0,0.0,0.0,-0.0146,-0.0511,-0.0511,-0.0511,-0.0511,-0.0219,0.0,0.0,0.0,0.0,0.0,0.0,0.0,0.0,0.0,0.0,0.0,0.0,0.0,0.0,0.0,0.0,0.0,0.0,0.0,0.0,0.0,0.0,0.0,0.0,0.0,0.0,0.0,0.0,0.0,0.0,0.0,0.0,0.0,0.0,0.0,0.0,0.0,0.0,0.0,0.0,0.0,0.0,0.0,0.0,0.0,0.0,0.0,0.0,0.0,0.0,0.0,0.0,0.0,0.0,0.0,0.0,0.0,0.0,0.0,0.0,0.0,0.0,0.0,0.0,0.0,0.0,0.0,0.0,0.0,0.0,0.0,0.0,0.0,0.0,0.0,0.0,0.0,0.0,0.0,0.0,0.0,0.0,0.0,0.0,0.0,0.0,0.0,0.0,0.0,0.0,0.0,0.0,0.0,0.0,0.0,0.0,0.0,0.0,0.0,0.0,0.0,0.0,-0.0219,-0.0365,-0.0365,-0.0511,-0.073,-0.0949,-0.0949,-0.0876,-0.0657,-0.0438,-0.0292,0.0,0.0,0.0,0.0,0.0,0.0,0.0,0.0,0.0,0.0,0.0,0.0,0.0,0.0,0.0,0.0,0.0,0.0,0.0,0.0,0.0,0.0,0.0,0.0,0.0,0.0,0.0,0.0,0.0,0.0,0.0,0.0,0.0,0.0,0.0,0.0,0.0,0.0,0.0,0.0,0.0,0.0,0.0,0.0,0.0,0.0,0.0,0.0,0.0,0.0,0.0,0.0,0.0,0.0,0.0,0.0,0.0,0.0,0.0,0.0,0.0,0.0,0.0,0.0,0.0,0.0,0.0,0.0,0.0,0.0,0.0,0.0,0.0,0.0,0.0,0.0,0.0,0.0,0.0,0.0,0.0,0.0,0.0,0.0,0.0,0.0,0.0,0.0,0.0,0.0,0.0,0.0,0.0,0.0,0.0,0.0,0.0,0.0,0.0,0.0,-0.0147,-0.044,-0.0661,-0.0737,-0.1029,-0.1247,-0.132,-0.1389,-0.124,-0.0948,-0.0948,-0.0802,-0.0365,-0.0146,0.0,0.0,0.0,0.0,0.0,0.0,0.0,0.0,0.0,0.0,0.0,0.0,0.0,0.0,0.0,0.0,0.0,0.0,0.0,0.0,0.0,0.0,0.0,0.0,0.0,0.0,0.0,0.0,0.0,0.0,0.0,0.0,0.0,0.0,0.0,0.0,0.0,0.0,0.0,0.0,0.0,0.0,0.0,0.0,0.0,0.0,0.0,0.0,0.0,0.0,0.0,0.0,0.0,0.0,0.0,0.0,0.0,0.0,0.0,0.0,0.0,0.0,0.0,0.0,0.0,0.0,0.0,0.0,0.0,0.0,0.0,0.0,0.0,0.0,0.0,0.0,0.0,0.0,0.0,0.0,0.0,0.0,0.0,0.0,0.0,0.0,0.0,0.0,0.0,0.0,0.0,0.0,0.0,0.0,0.0,0.0,0.0,-0.0146,-0.0519,-0.0595,-0.0747,-0.1208,-0.1198,-0.1337,-0.1708,-0.1764,-0.175,-0.175,-0.175,-0.1604,0.0,-0.0438,0.0,0.0,0.0,0.0,0.0,0.0,0.0,0.0,0.0,0.0,0.0,0.0,0.0,0.0,0.0,0.0,0.0,0.0,0.0,0.0,0.0,0.0,0.0,0.0,0.0,0.0,0.0,0.0,0.0,0.0,0.0,0.0,0.0,0.0,0.0,0.0,0.0,0.0,0.0,0.0,0.0,0.0,0.0,0.0,0.0,0.0,0.0,0.0,0.0,0.0,0.0,0.0,0.0,0.0,0.0,0.0,0.0,0.0,0.0,0.0,0.0,0.0,0.0,0.0,0.0,0.0,0.0,0.0,0.0,0.0,0.0,0.0,0.0,0.0,0.0,0.0,0.0,0.0,0.0,0.0,0.0,0.0,0.0,0.0,0.0,0.0,0.0,0.0,0.0,0.0,0.0,0.0,0.0,0.0,0.0,0.0,-0.1041,-0.1968,-0.2128,-0.2759,-0.3394,-0.3564,-0.2876,-0.2452,-0.2602,-0.2352,-0.2041,-0.1822,-0.1822,-0.1677,0.0,0.0,0.0,-0.0438,-0.0365,-0.0292,0.0,0.0,0.0,0.0,0.0,0.0,0.0,0.0,0.0,0.0,0.0,0.0,0.0,0.0,0.0,0.0,0.0,0.0,0.0,0.0,0.0,0.0,0.0,0.0,0.0,0.0,0.0,0.0,0.0,0.0,0.0,0.0,0.0,0.0,0.0,0.0,0.0,0.0,0.0,0.0,0.0,0.0,0.0,0.0,0.0,0.0,0.0,0.0,0.0,0.0,0.0,0.0,0.0,0.0,0.0,0.0,0.0,0.0,0.0,0.0,0.0,0.0,0.0,0.0,0.0,0.0,0.0,0.0,0.0,0.0,0.0,0.0,0.0,0.0,0.0,0.0,0.0,0.0,0.0,0.0,0.0,0.0,-0.0148,0.0,0.0,0.0,0.0,0.0,0.0,0.0,0.0,0.0,-0.1496,-0.2914,-0.3093,-0.4055,-0.506,-0.5512,-0.4857,-0.4208,-0.3769,-0.3521,-0.3019,-0.2121,-0.1968,-0.1895,-0.1605,0.0,0.0,-0.0657,-0.0584,-0.0438,0.0,0.0,0.0,0.0,0.0,0.0,0.0,0.0,0.0,0.0,0.0,0.0,0.0,0.0,0.0,0.0,0.0,0.0,0.0,0.0,0.0,0.0,0.0,0.0,0.0,0.0,0.0,0.0,0.0,0.0,0.0,0.0,0.0,0.0,0.0,0.0,0.0,0.0,0.0,0.0,0.0,0.0,0.0,0.0,0.0,0.0,0.0,0.0,0.0,0.0,0.0,0.0,0.0,0.0,0.0,0.0,0.0,0.0,0.0,0.0,0.0,0.0,0.0,0.0,0.0,0.0,0.0,0.0,0.0,0.0,0.0,0.0,0.0,0.0,0.0,0.0,0.0,0.0,0.0,0.0,0.0,0.0,-0.0366,0.0,0.0,0.0,0.0,0.0,0.0,0.0,0.0,-0.0146,-0.1566,-0.3055,-0.3677,-0.4635,-0.5783,-0.7195,-0.6939,-0.6218,-0.5121,-0.5061,-0.4471,-0.2503,-0.2333,-0.2333,-0.2333,-0.226,0.0,-0.0729,0.0,-0.0438,0.0,0.0,0.0,0.0,0.0,0.0,0.0,0.0,0.0,0.0,0.0,0.0,0.0,0.0,0.0,0.0,0.0,0.0,0.0,0.0,0.0,0.0,0.0,0.0,0.0,0.0,0.0,0.0,0.0,0.0,0.0,0.0,0.0,0.0,0.0,0.0,0.0,0.0,0.0,0.0,0.0,0.0,0.0,0.0,0.0,0.0,0.0,0.0,0.0,0.0,0.0,0.0,0.0,0.0,0.0,0.0,0.0,0.0,0.0,0.0,0.0,0.0,0.0,0.0,0.0,0.0,0.0,0.0,0.0,0.0,0.0,0.0,0.0,0.0,0.0,0.0,0.0,0.0,0.0,0.0,0.0,0.0,-0.0073,0.0,0.0,0.0,0.0,0.0,0.0,0.0,-0.0367,-0.1718,-0.346,-0.5384,-0.7209,-0.7657,-0.795,-0.8252,-0.6732,-0.5114,-0.4172,-0.3759,-0.3249,-0.2415,-0.2333,-0.2333,-0.2333,-0.2041,0.0,0.0,-0.1022,-0.073,-0.0073,0.0,0.0,0.0,0.0,0.0,0.0,0.0,0.0,0.0,0.0,0.0,0.0,0.0,0.0,0.0,0.0,0.0,0.0,0.0,0.0,0.0,0.0,0.0,0.0,0.0,0.0,0.0,0.0,0.0,0.0,0.0,0.0,0.0,0.0,0.0,0.0,0.0,0.0,0.0,0.0,0.0,0.0,0.0,0.0,0.0,0.0,0.0,0.0,0.0,0.0,0.0,0.0,0.0,0.0,0.0,0.0,0.0,0.0,0.0,0.0,0.0,0.0,0.0,0.0,0.0,0.0,0.0,0.0,0.0,0.0,0.0,0.0,0.0,0.0,0.0,0.0,0.0,0.0,0.0,0.0,0.0,-0.0219,0.0,0.0,0.0,0.0,-0.0219,-0.1174,-0.1396,-0.192,-0.3911,-0.5826,-0.7513,-0.8746,-0.9059,-0.9235,-0.9416,-0.7847,-0.612,-0.4703,-0.439,-0.3781,-0.2494,-0.2333,-0.2333,-0.2333,-0.1968,-0.1604,0.0,-0.1022,-0.0657,0.0,0.0,0.0,0.0,0.0,0.0,0.0,0.0,0.0,0.0,0.0,0.0,0.0,0.0,0.0,0.0,0.0,0.0,0.0,0.0,0.0,0.0,0.0,0.0,0.0,0.0,0.0,0.0,0.0,0.0,0.0,0.0,0.0,0.0,0.0,0.0,0.0,0.0,0.0,0.0,0.0,0.0,0.0,0.0,0.0,0.0,0.0,0.0,0.0,0.0,0.0,0.0,0.0,0.0,0.0,0.0,0.0,0.0,0.0,0.0,0.0,0.0,0.0,0.0,0.0,0.0,0.0,0.0,0.0,0.0,0.0,0.0,0.0,0.0,0.0,0.0,0.0,0.0,0.0,0.0,0.0,0.0,-0.0365,0.0,0.0,0.0,0.0,-0.0512,-0.2662,-0.3113,-0.3795,-0.619,-0.8002,-0.9223,-0.9491,-0.9752,-1.0035,-1.0233,-0.9265,-0.778,-0.5748,-0.5561,-0.4899,-0.2653,-0.2333,-0.226,-0.226,-0.1895,-0.1605,-0.1241,-0.0803,-0.0438,0.0,-0.0073,-0.0073,-0.0146,-0.0146,-0.0146,-0.0146,-0.0073,-0.0073,-0.0073,0.0,0.0,-0.0073,0.0,0.0,-0.0073,0.0,0.0,0.0,0.0,0.0,0.0,0.0,0.0,0.0,0.0,0.0,0.0,0.0,0.0,0.0,0.0,0.0,0.0,0.0,0.0,0.0,0.0,0.0,0.0,0.0,0.0,0.0,0.0,0.0,0.0,0.0,0.0,0.0,0.0,0.0,0.0,0.0,0.0,0.0,0.0,0.0,0.0,0.0,0.0,0.0,0.0,0.0,0.0,0.0,0.0,0.0,0.0,0.0,0.0,0.0,0.0,0.0,0.0,0.0,0.0,0.0,0.0,0.0,0.0,0.0,0.0,-0.0073,0.0,0.0,0.0,0.0,-0.0512,-0.2662,-0.3113,-0.4113,-0.7718,-0.8745,-0.9547,-1.1426,-1.1334,-1.065,-0.9481,-0.8576,-0.7194,-0.4855,-0.4197,-0.3688,-0.2927,-0.2478,-0.2187,-0.1895,-0.1532,0.0,0.0,-0.0803,-0.0438,0.0,-0.0292,-0.0657,-0.0949,-0.1022,-0.1022,-0.1022,-0.0657,-0.0511,-0.0511,-0.0146,-0.0146,-0.0511,-0.0146,-0.0146,-0.0511,-0.0146,0.0,0.0,0.0,0.0,0.0,0.0,0.0,0.0,0.0,0.0,0.0,0.0,0.0,0.0,0.0,0.0,0.0,0.0,0.0,0.0,0.0,0.0,0.0,0.0,0.0,0.0,0.0,0.0,0.0,0.0,0.0,0.0,0.0,0.0,0.0,0.0,0.0,0.0,0.0,0.0,0.0,0.0,0.0,0.0,0.0,0.0,0.0,0.0,0.0,0.0,0.0,0.0,0.0,0.0,0.0,0.0,0.0,0.0,0.0,0.0,0.0,0.0,0.0,0.0,0.0,0.0,0.0,0.0,0.0,0.0,-0.0806,-0.4022,-0.4785,-0.5879,-0.9938,-1.0837,-1.1221,-1.2233,-1.1943,-1.123,-1.0222,-0.8832,-0.7224,-0.5717,-0.4379,-0.3403,-0.292,-0.2405,-0.2041,-0.2041,-0.1532,-0.1314,-0.1532,-0.1167,-0.0803,-0.0657,-0.0803,-0.1022,-0.1168,-0.1168,-0.1168,-0.1168,-0.1022,-0.0876,-0.0876,-0.073,-0.073,-0.0876,-0.073,-0.073,-0.0876,-0.073,0.0,-0.0292,-0.0292,-0.0219,0.0,0.0,0.0,0.0,0.0,0.0,0.0,0.0,0.0,0.0,0.0,0.0,0.0,0.0,0.0,0.0,0.0,0.0,0.0,0.0,0.0,0.0,0.0,0.0,0.0,0.0,0.0,0.0,0.0,0.0,0.0,0.0,0.0,0.0,0.0,0.0,0.0,0.0,0.0,0.0,0.0,0.0,0.0,0.0,0.0,0.0,0.0,0.0,0.0,0.0,0.0,0.0,0.0,0.0,0.0,0.0,0.0,0.0,0.0,0.0,0.0,-0.0146,0.0,0.0,0.0,0.0,-0.11,-0.5304,-0.6244,-0.7507,-1.1625,-1.2603,-1.2691,-1.2569,-1.2265,-1.19,-1.1224,-0.9732,-0.8102,-0.6826,-0.5202,-0.3805,-0.2851,-0.226,-0.1968,-0.2041,-0.1605,0.0,-0.175,-0.1605,0.0,-0.1313,-0.1313,-0.1386,-0.146,-0.146,-0.146,-0.146,-0.1386,-0.1313,-0.1313,-0.1241,-0.1241,-0.1313,-0.1241,-0.1241,-0.1313,-0.1241,0.0,0.0,-0.073,-0.0511,-0.0146,-0.0146,-0.0073,0.0,0.0,0.0,0.0,0.0,0.0,0.0,0.0,0.0,0.0,0.0,0.0,0.0,0.0,0.0,0.0,0.0,0.0,0.0,0.0,0.0,0.0,0.0,0.0,0.0,0.0,0.0,0.0,0.0,0.0,0.0,0.0,0.0,0.0,0.0,0.0,0.0,0.0,0.0,0.0,0.0,0.0,0.0,0.0,0.0,0.0,0.0,0.0,0.0,0.0,0.0,0.0,0.0,0.0,0.0,0.0,0.0,0.0,-0.0512,0.0,0.0,0.0,0.0,-0.1024,-0.5096,-0.6202,-0.741,-1.1504,-1.2535,-1.2725,-1.2712,-1.2983,-1.2814,-1.154,-1.1446,-1.0386,-0.7102,-0.6169,-0.4984,-0.2639,-0.226,-0.1968,-0.1386,-0.1605,-0.175,-0.1822,0.0,0.0,-0.175,-0.175,-0.1895,-0.2187,-0.2187,-0.2187,-0.2187,-0.1895,-0.175,-0.175,-0.1386,-0.1386,-0.175,-0.1386,-0.1386,-0.175,-0.1386,0.0,0.0,-0.1168,-0.0876,-0.0511,-0.0511,-0.0292,0.0,0.0,0.0,0.0,0.0,0.0,0.0,0.0,0.0,0.0,0.0,0.0,0.0,0.0,0.0,0.0,0.0,0.0,0.0,0.0,0.0,0.0,0.0,0.0,0.0,0.0,0.0,0.0,0.0,0.0,0.0,0.0,0.0,0.0,0.0,0.0,0.0,0.0,0.0,0.0,0.0,0.0,0.0,0.0,0.0,0.0,0.0,0.0,0.0,0.0,0.0,0.0,0.0,0.0,0.0,0.0,0.0,0.0,-0.0511,0.0,0.0,0.0,-0.0953,-0.2579,-0.5394,-0.7132,-0.8944,-1.1843,-1.2508,-1.2651,-1.2834,-1.3017,-1.3043,-1.2746,-1.2056,-1.1151,-0.9989,-0.756,-0.5618,-0.4605,-0.3028,-0.1968,-0.1896,-0.1822,-0.1895,-0.2114,0.0,0.0,-0.2114,-0.2114,-0.2187,-0.226,-0.2333,-0.2333,-0.2333,-0.2187,-0.2114,-0.2114,-0.1969,-0.1969,-0.2114,-0.1969,-0.1969,-0.2114,-0.1896,0.0,0.0,-0.1532,-0.1313,-0.0949,-0.073,-0.0511,-0.0365,-0.0073,0.0,0.0,0.0,0.0,0.0,0.0,0.0,0.0,0.0,0.0,0.0,0.0,0.0,0.0,0.0,0.0,0.0,0.0,0.0,0.0,0.0,0.0,0.0,0.0,0.0,0.0,0.0,0.0,0.0,0.0,0.0,0.0,0.0,0.0,0.0,0.0,0.0,0.0,0.0,0.0,0.0,0.0,0.0,0.0,0.0,0.0,0.0,0.0,0.0,0.0,0.0,0.0,0.0,0.0,0.0,0.0,-0.1385,-0.0437,0.0,0.0,-0.1544,-0.3627,-0.5523,-0.7743,-0.9998,-1.2029,-1.2508,-1.2664,-1.2969,-1.3024,-1.3159,-1.3559,-1.2843,-1.2052,-1.174,-0.938,-0.735,-0.6641,-0.4943,-0.3631,-0.3133,-0.2426,-0.2041,-0.226,0.0,0.0,-0.2333,-0.2333,-0.2333,-0.2333,-0.2333,-0.2333,-0.2333,-0.2333,-0.2333,-0.2333,-0.2333,-0.2333,-0.2333,-0.2333,-0.2333,-0.2333,0.0,0.0,0.0,-0.1968,-0.175,-0.1313,-0.0949,-0.073,-0.0584,-0.0146,0.0,0.0,0.0,0.0,0.0,0.0,0.0,0.0,0.0,0.0,0.0,0.0,0.0,0.0,0.0,0.0,0.0,0.0,0.0,0.0,0.0,0.0,0.0,0.0,0.0,0.0,0.0,0.0,0.0,0.0,0.0,0.0,0.0,0.0,0.0,0.0,0.0,0.0,0.0,0.0,0.0,0.0,0.0,0.0,0.0,0.0,0.0,0.0,0.0,0.0,0.0,0.0,0.0,0.0,0.0,0.0,-0.3427,-0.1456,0.0,0.0,-0.1544,-0.3545,-0.5392,-0.7695,-0.9971,-1.1904,-1.2522,-1.282,-1.3119,-1.3173,-1.3268,-1.358,-1.3871,-1.3435,-1.1526,-1.1526,-1.0756,-0.8487,-0.8536,-0.7733,-0.519,-0.3375,-0.226,0.0,0.0,0.0,-0.2333,-0.2333,-0.2333,-0.2333,-0.2333,-0.2333,-0.2333,-0.2333,-0.2333,-0.2333,-0.2333,-0.2333,-0.2333,-0.2333,-0.2333,0.0,0.0,0.0,0.0,-0.226,-0.2114,-0.175,-0.1386,-0.0949,-0.0584,-0.0146,0.0,0.0,0.0,0.0,0.0,0.0,0.0,0.0,0.0,0.0,0.0,0.0,0.0,0.0,0.0,0.0,0.0,0.0,0.0,0.0,0.0,0.0,0.0,0.0,0.0,0.0,0.0,0.0,0.0,0.0,0.0,0.0,0.0,0.0,0.0,0.0,0.0,0.0,0.0,0.0,0.0,0.0,0.0,0.0,0.0,0.0,0.0,0.0,0.0,0.0,0.0,0.0,0.0,0.0,0.0,0.0,-0.5452,-0.4431,-0.3998,-0.3998,-0.55,-0.724,-0.7801,-0.9697,-1.1651,-1.2393,-1.2664,-1.2854,-1.3254,-1.3241,-1.3342,-1.3851,-1.4007,-1.3968,-1.3636,-1.1251,-0.9216,-0.8458,-0.6,-0.402,-0.3213,0.0,-0.2333,0.0,0.0,0.0,-0.2333,-0.2333,-0.2333,-0.2333,-0.2333,-0.2333,-0.2333,-0.2333,-0.2333,-0.2333,-0.2333,-0.2333,-0.2333,-0.2333,0.0,0.0,0.0,0.0,0.0,-0.2333,-0.226,-0.2114,-0.175,-0.1386,-0.0949,-0.0584,-0.0219,0.0,0.0,0.0,0.0,0.0,0.0,0.0,0.0,0.0,0.0,0.0,0.0,0.0,0.0,0.0,0.0,0.0,0.0,0.0,0.0,0.0,0.0,0.0,0.0,0.0,0.0,0.0,0.0,0.0,0.0,0.0,0.0,0.0,0.0,0.0,0.0,0.0,0.0,0.0,0.0,0.0,0.0,0.0,0.0,0.0,0.0,0.0,0.0,0.0,0.0,0.0,0.0,0.0,0.0,0.0,-0.7399,-0.6387,-0.5808,-0.5808,-0.7426,-0.8997,-0.8882,-1.067,-1.244,-1.2678,-1.2684,-1.28,-1.3308,-1.3234,-1.3275,-1.3817,-1.3946,-1.3887,-1.3483,-1.1218,-0.9373,-0.8714,-0.5627,-0.3523,0.0,-0.28,0.0,0.0,0.0,0.0,-0.2333,-0.2333,-0.2333,-0.2333,-0.2333,-0.2333,-0.2333,-0.2333,-0.2333,-0.2333,-0.2333,-0.2333,-0.2333,-0.2333,0.0,0.0,0.0,0.0,0.0,-0.2333,-0.2333,-0.226,-0.1895,-0.1677,-0.1386,-0.0803,-0.0438,-0.0219,-0.0073,0.0,0.0,0.0,0.0,0.0,0.0,0.0,0.0,0.0,0.0,0.0,0.0,0.0,0.0,0.0,0.0,0.0,0.0,0.0,0.0,0.0,0.0,0.0,0.0,0.0,0.0,0.0,0.0,0.0,0.0,0.0,0.0,0.0,0.0,0.0,0.0,0.0,0.0,0.0,0.0,0.0,0.0,0.0,0.0,0.0,0.0,0.0,0.0,0.0,0.0,0.0,0.0,0.0,0.0,-0.7621,-0.6253,-0.6253,-0.7842,-0.9388,-0.9213,-1.0893,0.0,-1.2698,-1.2623,-1.2712,-1.3295,-1.318,-1.3139,-1.3587,-1.3783,-1.3212,-1.1526,-1.1221,-1.0408,-0.8772,-0.6574,-0.5306,-0.5477,-0.3525,0.0,0.0,0.0,0.0,-0.2333,-0.2333,-0.2333,-0.2333,-0.2333,-0.2333,-0.2333,-0.2333,-0.2333,-0.2333,-0.2333,-0.2333,-0.2333,-0.2333,0.0,0.0,0.0,0.0,0.0,-0.2333,-0.2333,-0.226,-0.1968,-0.1822,-0.1677,-0.0948,-0.0657,-0.0511,-0.0146,0.0,0.0,0.0,0.0,0.0,0.0,0.0,0.0,0.0,0.0,0.0,0.0,0.0,0.0,0.0,0.0,0.0,0.0,0.0,0.0,0.0,0.0,0.0,0.0,0.0,0.0,0.0,0.0,0.0,0.0,0.0,0.0,0.0,0.0,0.0,0.0,0.0,0.0,0.0,0.0,0.0,0.0,0.0,0.0,0.0,0.0,0.0,0.0,0.0,0.0,0.0,0.0,0.0,-1.1038,0.0,-1.0377,-1.0377,-1.0872,-1.1401,0.0,-1.196,-1.2413,-1.2678,-1.2793,-1.2969,-1.3336,-1.3342,-1.3444,-1.3892,-1.4095,-1.3572,-1.167,-0.8857,-0.6705,-0.6216,-0.433,-0.3675,-0.5163,-0.3507,0.0,0.0,0.0,-0.2333,-0.2333,-0.2333,-0.2333,-0.2333,-0.2333,-0.2333,-0.2333,-0.2333,-0.2333,-0.2333,-0.2333,-0.2333,-0.2333,-0.2333,0.0,0.0,0.0,0.0,-0.2333,-0.2333,-0.2333,-0.226,-0.2187,-0.2041,-0.175,-0.1604,-0.1094,-0.0584,-0.0511,-0.0292,0.0,0.0,0.0,0.0,0.0,0.0,0.0,0.0,0.0,0.0,0.0,0.0,0.0,0.0,0.0,0.0,0.0,0.0,0.0,0.0,0.0,0.0,0.0,0.0,0.0,0.0,0.0,0.0,0.0,0.0,0.0,0.0,0.0,0.0,0.0,0.0,0.0,0.0,0.0,0.0,0.0,0.0,0.0,0.0,0.0,0.0,0.0,0.0,0.0,0.0,0.0,0.0,-1.1619,-1.1823,-1.2054,-1.2121,-1.2257,-1.2406,-1.2562,-1.2488,-1.2454,-1.2684,-1.28,-1.2949,-1.3241,-1.2913,-1.2969,-1.3973,-1.2987,-1.1605,-1.0335,-0.8289,-0.6522,-0.5525,-0.4401,-0.3741,0.0,0.0,0.0,0.0,0.0,-0.2551,-0.2551,-0.2771,-0.2844,-0.2844,-0.2697,-0.2478,-0.2333,-0.2333,-0.2333,-0.2333,-0.2333,-0.2333,-0.2333,-0.2333,-0.2333,0.0,0.0,0.0,-0.2333,-0.2333,-0.2333,-0.2333,-0.2333,-0.2187,-0.2041,-0.1822,-0.1385,-0.0876,-0.0657,-0.0365,0.0,0.0,0.0,0.0,0.0,0.0,0.0,0.0,0.0,0.0,0.0,0.0,0.0,0.0,0.0,0.0,0.0,0.0,0.0,0.0,0.0,0.0,0.0,0.0,0.0,0.0,0.0,0.0,0.0,0.0,0.0,0.0,0.0,0.0,0.0,0.0,0.0,0.0,0.0,0.0,0.0,0.0,0.0,0.0,0.0,0.0,0.0,0.0,0.0,0.0,0.0,0.0,-1.1701,-1.1851,-1.2089,-1.2363,-1.2651,-1.2854,-1.2942,-1.2759,-1.261,-1.2739,-1.2786,-1.2795,-1.2963,-1.2469,-1.2465,-1.3674,-1.1248,-0.8931,-0.8169,-0.7722,-0.7061,-0.5721,-0.5163,0.0,0.0,0.0,0.0,0.0,0.0,-0.299,-0.299,-0.3281,-0.35,-0.35,-0.3136,-0.2771,-0.2405,-0.2333,-0.2333,-0.2333,-0.2333,-0.2333,-0.2333,-0.2333,-0.2333,0.0,0.0,0.0,-0.2333,-0.2333,-0.2333,-0.2333,-0.2333,-0.2333,-0.226,-0.1968,-0.1605,-0.1241,-0.073,-0.0365,0.0,0.0,0.0,0.0,0.0,0.0,0.0,0.0,0.0,0.0,0.0,0.0,0.0,0.0,0.0,0.0,0.0,0.0,0.0,0.0,0.0,0.0,0.0,0.0,0.0,0.0,0.0,0.0,0.0,0.0,0.0,0.0,0.0,0.0,0.0,0.0,0.0,0.0,0.0,0.0,0.0,0.0,0.0,0.0,0.0,0.0,0.0,0.0,0.0,0.0,0.0,0.0,-1.2081,-1.1473,-1.1066,-1.2083,-1.2813,-1.3241,-1.301,-1.2922,-1.2895,-1.2922,-1.3024,-1.2875,-1.2263,-1.2881,-1.3317,-1.2914,-1.0351,-0.789,-0.6174,-0.4423,-0.3902,-0.5618,0.0,0.0,0.0,0.0,0.0,0.0,0.0,0.0,-0.3427,-0.35,-0.35,-0.35,-0.3427,-0.3209,-0.2844,-0.2478,-0.2333,-0.2333,-0.2333,-0.2333,-0.2333,-0.2333,-0.2333,0.0,0.0,-0.2333,-0.2333,-0.2333,-0.2333,-0.2333,-0.2333,-0.2333,-0.226,-0.226,-0.2041,-0.1604,-0.0875,-0.0365,0.0,0.0,0.0,0.0,0.0,0.0,0.0,0.0,0.0,0.0,0.0,0.0,0.0,0.0,0.0,0.0,0.0,0.0,0.0,0.0,0.0,0.0,0.0,0.0,0.0,0.0,0.0,0.0,0.0,0.0,0.0,0.0,0.0,0.0,0.0,0.0,0.0,0.0,0.0,0.0,0.0,0.0,0.0,0.0,0.0,0.0,0.0,0.0,0.0,0.0,0.0,0.0,-1.187,-1.1897,-1.1784,-1.1327,-1.0975,-1.073,-1.0685,-1.028,-1.0269,-1.1342,-1.1733,-1.185,-1.1849,-1.1788,-1.0919,-0.8429,-0.8378,-0.7827,-0.5827,-0.5783,-0.6,0.0,0.0,0.0,0.0,0.0,0.0,0.0,0.0,0.0,-0.3791,0.0,-0.4155,-0.4155,-0.3937,-0.3716,-0.3571,-0.2915,-0.2478,-0.2333,-0.2333,-0.2333,-0.2333,-0.2333,-0.2333,-0.2333,0.0,-0.2333,-0.2333,-0.2333,-0.2333,-0.2333,-0.2333,-0.2333,-0.226,-0.2114,-0.1968,-0.1677,-0.0875,-0.0511,-0.0292,-0.0073,0.0,0.0,0.0,0.0,0.0,0.0,0.0,0.0,0.0,0.0,0.0,0.0,0.0,0.0,0.0,0.0,0.0,0.0,0.0,0.0,0.0,0.0,0.0,0.0,0.0,0.0,0.0,0.0,0.0,0.0,0.0,0.0,0.0,0.0,0.0,0.0,0.0,0.0,0.0,0.0,0.0,0.0,0.0,0.0,0.0,0.0,0.0,0.0,0.0,0.0,-1.1748,-1.2072,-1.1979,-1.072,-1.0075,-0.9521,-0.8902,-0.8503,-0.8645,-0.986,-1.0136,-1.049,-1.1294,-1.0639,-0.8922,-0.5657,-0.6763,-0.7313,-0.52,-0.6466,-0.7145,0.0,0.0,0.0,0.0,0.0,0.0,0.0,0.0,0.0,-0.4226,-0.4517,-0.4665,-0.4665,-0.4371,-0.4226,-0.408,-0.3498,-0.2915,-0.2405,-0.2333,-0.2333,-0.2333,-0.2333,-0.2333,-0.2333,-0.2333,-0.2333,-0.2333,-0.2333,-0.2333,-0.2333,-0.2333,-0.2333,-0.226,-0.2041,-0.1895,-0.1677,-0.1021,-0.0657,-0.0511,-0.0146,0.0,0.0,0.0,0.0,0.0,0.0,0.0,0.0,0.0,0.0,0.0,0.0,0.0,0.0,0.0,0.0,0.0,0.0,0.0,0.0,0.0,0.0,0.0,0.0,0.0,0.0,0.0,0.0,0.0,0.0,0.0,0.0,0.0,0.0,0.0,0.0,0.0,0.0,0.0,0.0,0.0,0.0,0.0,0.0,0.0,0.0,0.0,0.0,0.0,0.0,-1.2128,-1.1326,-1.0357,-1.0679,-1.2131,-1.2604,-0.9624,-1.0024,-1.0583,-0.9364,-0.91,-0.9326,-1.0014,-0.9979,-0.9453,-0.8241,-0.6756,-0.5114,-0.3322,0.0,0.0,0.0,0.0,0.0,0.0,0.0,0.0,0.0,0.0,0.0,-0.4665,-0.4665,0.0,-0.4665,-0.4665,-0.4444,-0.408,-0.4007,-0.3644,-0.2844,-0.2478,-0.2333,-0.2333,-0.2333,-0.2333,-0.2333,-0.2333,-0.2333,-0.2333,-0.2333,-0.2333,-0.2333,-0.2333,-0.2333,-0.2333,-0.226,-0.2041,-0.175,-0.1313,-0.0949,-0.0511,-0.0146,0.0,0.0,0.0,0.0,0.0,0.0,0.0,0.0,0.0,0.0,0.0,0.0,0.0,0.0,0.0,0.0,0.0,0.0,0.0,0.0,0.0,0.0,0.0,0.0,0.0,0.0,0.0,0.0,0.0,0.0,0.0,0.0,0.0,0.0,0.0,0.0,0.0,0.0,0.0,0.0,0.0,0.0,0.0,0.0,0.0,0.0,0.0,0.0,0.0,0.0,-1.183,-1.1254,-1.0592,-1.0509,-1.1549,-1.1716,-0.8004,-0.7438,-0.8054,-0.8847,-0.822,-0.7877,-0.9337,-0.8203,-0.6999,-0.6752,-0.5328,-0.3948,-0.2997,0.0,0.0,0.0,0.0,0.0,0.0,0.0,0.0,0.0,0.0,0.0,0.0,-0.4665,0.0,-0.4665,-0.4665,-0.4592,-0.4444,-0.4226,-0.3935,-0.3644,-0.2988,-0.2697,-0.2697,-0.2405,-0.2333,-0.2333,-0.2333,-0.2333,-0.2333,-0.2333,-0.2333,-0.2333,-0.2333,-0.2333,-0.2333,-0.2333,-0.2187,-0.2041,-0.1677,-0.1313,-0.0876,-0.0511,-0.0219,0.0,0.0,0.0,0.0,0.0,0.0,0.0,0.0,0.0,0.0,0.0,0.0,0.0,0.0,0.0,0.0,0.0,0.0,0.0,0.0,0.0,0.0,0.0,0.0,0.0,0.0,0.0,0.0,0.0,0.0,0.0,0.0,0.0,0.0,0.0,0.0,0.0,0.0,0.0,0.0,0.0,0.0,0.0,0.0,0.0,0.0,0.0,0.0,0.0,-1.1404,-1.1177,-1.0853,-1.0506,-1.1238,-1.1098,-0.7668,-0.6947,-0.7192,-0.7906,-0.7493,-0.7411,-0.8672,-0.7346,-0.6087,0.0,-0.4739,-0.3573,0.0,0.0,0.0,0.0,0.0,0.0,0.0,0.0,0.0,0.0,0.0,0.0,0.0,-0.4738,0.0,0.0,-0.4665,-0.4665,-0.4665,-0.4444,-0.4299,-0.4299,-0.3571,-0.3209,-0.3063,-0.2771,-0.2697,-0.2697,-0.2551,-0.2478,-0.2478,-0.2333,-0.2333,-0.2333,-0.2333,-0.2333,-0.2333,-0.2333,-0.2333,-0.226,-0.1895,-0.1604,-0.1313,-0.0949,-0.0511,-0.0219,-0.0219,-0.0073,0.0,0.0,0.0,0.0,0.0,0.0,0.0,0.0,0.0,0.0,0.0,0.0,0.0,0.0,0.0,0.0,0.0,0.0,0.0,0.0,0.0,0.0,0.0,0.0,0.0,0.0,0.0,0.0,0.0,0.0,0.0,0.0,0.0,0.0,0.0,0.0,0.0,0.0,0.0,0.0,0.0,0.0,0.0,0.0,0.0,0.0,-1.09,-1.0957,-1.0828,-1.0767,-1.1265,-1.1382,-0.9335,-0.9387,-0.9007,-0.6345,-0.7128,-0.8202,-0.8022,-0.7853,-0.7502,-0.6887,-0.533,-0.408,0.0,0.0,0.0,0.0,0.0,0.0,0.0,0.0,0.0,0.0,0.0,0.0,0.0,-0.4883,0.0,0.0,-0.4738,-0.4665,-0.4665,-0.4665,-0.4665,-0.4665,-0.4299,-0.3862,-0.35,-0.35,-0.35,-0.35,-0.3063,-0.2917,-0.2844,-0.2478,-0.2333,-0.2333,-0.2333,-0.2333,-0.2333,-0.2333,-0.2333,-0.226,-0.1895,-0.1822,-0.175,-0.1313,-0.0949,-0.0584,-0.0584,-0.0292,0.0,0.0,0.0,0.0,0.0,0.0,0.0,0.0,0.0,0.0,0.0,0.0,0.0,0.0,0.0,0.0,0.0,0.0,0.0,0.0,0.0,0.0,0.0,0.0,0.0,0.0,0.0,0.0,0.0,0.0,0.0,0.0,0.0,0.0,0.0,0.0,0.0,0.0,0.0,0.0,0.0,0.0,0.0,0.0,0.0,0.0,-1.1457,-1.0812,-1.0395,-1.1064,-1.0887,-1.0374,-0.9725,-0.9489,-0.889,-0.7043,-0.8229,-0.9367,-0.8568,-0.7769,0.0,-0.7235,0.0,0.0,0.0,0.0,0.0,0.0,0.0,0.0,0.0,0.0,0.0,0.0,0.0,0.0,0.0,-0.5247,0.0,0.0,-0.481,-0.4665,-0.4665,-0.4665,-0.4665,-0.4665,-0.4592,-0.4299,-0.3935,-0.3646,-0.35,-0.35,-0.3354,-0.3354,-0.3281,-0.3209,-0.3136,-0.3136,-0.3136,-0.299,-0.2697,-0.2697,-0.2551,-0.226,-0.2187,-0.1968,-0.175,-0.1677,-0.1386,-0.1022,-0.1022,-0.0949,-0.0803,-0.0511,-0.0438,-0.0365,-0.0073,0.0,0.0,0.0,0.0,0.0,0.0,0.0,0.0,0.0,0.0,0.0,0.0,0.0,0.0,0.0,0.0,0.0,0.0,0.0,0.0,0.0,0.0,0.0,0.0,0.0,0.0,0.0,0.0,0.0,0.0,0.0,0.0,0.0,0.0,0.0,0.0,0.0,0.0,0.0,0.0,0.0,-1.103,-1.0535,-1.0187,-1.0761,-1.058,-1.0266,-1.0139,-0.9371,-0.8524,-0.7593,-0.8498,-0.9166,-0.8513,-0.787,0.0,-0.7499,0.0,0.0,0.0,0.0,0.0,0.0,0.0,0.0,0.0,0.0,0.0,0.0,0.0,0.0,0.0,-0.5683,0.0,0.0,-0.5029,-0.481,-0.4738,-0.4665,-0.4665,-0.4665,-0.4665,-0.4592,-0.4299,-0.4083,-0.401,-0.3937,-0.3791,-0.3646,-0.35,-0.35,-0.35,-0.35,-0.35,-0.3354,-0.3136,-0.3136,-0.299,-0.2771,-0.2624,-0.2405,-0.2187,-0.2041,-0.175,-0.1459,-0.1459,-0.1313,-0.1168,-0.0876,-0.0803,-0.0803,-0.0511,-0.0511,-0.0365,-0.0073,0.0,0.0,0.0,0.0,0.0,0.0,0.0,0.0,0.0,0.0,0.0,0.0,0.0,0.0,0.0,0.0,0.0,0.0,0.0,0.0,0.0,0.0,0.0,0.0,0.0,0.0,0.0,0.0,0.0,0.0,0.0,0.0,0.0,0.0,0.0,0.0,0.0,0.0,-1.0191,-1.0181,-1.0236,-1.0064,-1.0396,-1.0681,-1.0624,-0.9446,-0.8367,-0.8367,-0.8295,-0.8295,-0.8295,-0.8222,-0.8078,0.0,0.0,0.0,0.0,0.0,0.0,0.0,0.0,0.0,0.0,0.0,0.0,0.0,0.0,0.0,0.0,-0.6047,0.0,-0.5323,-0.525,-0.5029,-0.4738,-0.4738,-0.4665,0.0,-0.4665,-0.4665,-0.4665,-0.4665,-0.4665,-0.4665,-0.4299,-0.3935,-0.3573,-0.3573,-0.3573,-0.3573,-0.3573,-0.3573,-0.3573,-0.3573,-0.35,-0.3427,-0.3063,-0.299,-0.2917,-0.2551,-0.2187,-0.1968,-0.1968,-0.1678,-0.1387,-0.1387,-0.1314,-0.1314,-0.1241,-0.1241,-0.1022,-0.0292,-0.0073,-0.0073,-0.0073,-0.0073,-0.0073,-0.0073,-0.0073,-0.0073,-0.0073,-0.0073,-0.0073,-0.0073,-0.0073,-0.0073,0.0,0.0,0.0,0.0,0.0,0.0,0.0,0.0,0.0,0.0,0.0,0.0,0.0,0.0,0.0,0.0,0.0,0.0,0.0,0.0,0.0,0.0,0.0,0.0,-1.1582,-1.0992,-1.0504,-1.0553,-1.0758,-1.0991,-1.1325,-1.1103,-1.0671,-1.0095,-0.9951,-0.9879,-0.959,-0.923,-0.8946,0.0,0.0,0.0,0.0,0.0,0.0,0.0,0.0,0.0,0.0,0.0,0.0,0.0,0.0,0.0,-0.6918,-0.6482,0.0,-0.6123,-0.5541,-0.5177,-0.5101,-0.481,-0.4665,0.0,-0.4665,-0.4665,-0.4665,-0.4665,-0.4665,-0.4665,-0.4592,-0.4519,-0.4447,-0.4447,-0.4447,-0.4447,-0.4447,-0.4226,-0.3935,-0.3935,-0.3791,-0.35,-0.3427,-0.3354,-0.3354,-0.3281,-0.3209,-0.3136,-0.3136,-0.3063,-0.2917,-0.2625,-0.2334,-0.1968,-0.1677,-0.1386,-0.1168,-0.0949,-0.0949,-0.0949,-0.0949,-0.0949,-0.0949,-0.0949,-0.0949,-0.0949,-0.0949,-0.0949,-0.0803,-0.0511,-0.0438,-0.0365,-0.0073,0.0,0.0,0.0,0.0,0.0,0.0,0.0,0.0,0.0,0.0,0.0,0.0,0.0,0.0,0.0,0.0,0.0,0.0,0.0,0.0,0.0,0.0,0.0,-1.1432,-1.1295,-1.1279,-1.1352,-1.1514,-1.1803,-1.2087,-1.218,-1.2108,-1.1678,-1.1175,-1.0599,-1.0239,-1.0023,-0.9807,0.0,0.0,0.0,0.0,0.0,0.0,0.0,0.0,0.0,0.0,0.0,0.0,0.0,0.0,-0.7715,-0.757,-0.7353,-0.7063,-0.67,-0.6264,-0.5901,-0.5465,-0.532,-0.5244,-0.5244,-0.5029,-0.4883,-0.4665,-0.4665,-0.4665,-0.4665,-0.4665,-0.4665,-0.4665,-0.4665,-0.4665,-0.4665,-0.4665,-0.4592,-0.4371,-0.4371,-0.4228,-0.4083,-0.3864,-0.3791,-0.3791,-0.3573,-0.35,-0.35,-0.35,-0.35,-0.3427,-0.3281,-0.3063,-0.2844,-0.2624,-0.2407,-0.2334,-0.2334,-0.1752,-0.1168,-0.1168,-0.1168,-0.1168,-0.1168,-0.1168,-0.1168,-0.1168,-0.1168,-0.1095,-0.0949,-0.0876,-0.073,-0.0365,-0.0292,-0.0219,0.0,0.0,0.0,0.0,0.0,0.0,0.0,0.0,0.0,0.0,0.0,0.0,0.0,0.0,0.0,0.0,0.0,0.0,0.0,0.0,0.0,-1.1179,-1.151,-1.2179,-1.2248,-1.2492,-1.2795,-1.3105,-1.3113,-1.3097,-1.3026,-1.2066,-1.1247,-1.0959,-1.0815,0.0,0.0,0.0,0.0,0.0,0.0,0.0,0.0,0.0,0.0,0.0,0.0,0.0,0.0,0.0,-0.8367,-0.8222,-0.8222,-0.786,-0.7208,-0.7135,-0.6769,-0.6116,-0.6043,-0.597,-0.5898,-0.5465,-0.5101,-0.481,-0.481,-0.4738,-0.4665,-0.4665,-0.4665,-0.4665,-0.4665,-0.4665,-0.4665,-0.4665,-0.4665,-0.4665,-0.4665,-0.4665,-0.4665,-0.4299,-0.4226,-0.4153,-0.3791,-0.3718,-0.3791,-0.3791,-0.3864,-0.3864,-0.3864,-0.3864,-0.3791,-0.3791,-0.3718,-0.3718,-0.3718,-0.2698,-0.1751,-0.1606,-0.1606,-0.1606,-0.1606,-0.1606,-0.1606,-0.1533,-0.146,-0.146,-0.1313,-0.1313,-0.1168,-0.0657,-0.0584,-0.0438,-0.0073,0.0,0.0,0.0,0.0,0.0,0.0,0.0,0.0,0.0,0.0,0.0,0.0,0.0,0.0,0.0,0.0,0.0,0.0,0.0,0.0,-1.2225,-1.2353,-1.2649,-1.3624,-1.3792,-1.3794,-1.4326,-1.4319,-1.4061,-1.3717,-1.3052,-1.2538,-1.2466,-1.218,0.0,0.0,0.0,0.0,0.0,0.0,0.0,0.0,0.0,0.0,0.0,0.0,0.0,0.0,-0.9663,-0.9374,-0.8657,-0.8657,-0.844,-0.7933,-0.7638,-0.7494,-0.7349,-0.6986,-0.6696,-0.633,-0.5898,-0.5538,-0.5104,-0.5104,-0.4956,-0.4665,-0.4665,-0.4665,-0.4665,-0.4665,-0.4665,-0.4665,-0.4665,-0.4665,-0.4665,-0.4665,-0.4665,-0.4665,-0.4665,-0.4592,-0.4592,-0.4592,-0.4738,-0.4959,-0.4959,-0.5247,-0.5465,-0.5465,-0.5244,-0.495,-0.495,-0.4735,-0.4519,-0.4519,-0.4374,-0.401,-0.3354,-0.3209,-0.3209,-0.3209,-0.3209,-0.3063,-0.2698,-0.2698,-0.2478,-0.1822,-0.175,-0.1458,-0.0729,-0.0584,-0.0438,-0.0073,0.0,0.0,0.0,0.0,0.0,0.0,0.0,0.0,0.0,0.0,0.0,0.0,0.0,0.0,0.0,0.0,0.0,0.0,0.0,0.0,-1.2905,-1.2879,-1.2968,-1.4079,-1.4164,-1.4113,-1.4614,-1.4535,-1.4336,-1.4199,-1.3989,-1.375,-1.3318,0.0,0.0,0.0,0.0,0.0,0.0,0.0,0.0,0.0,0.0,0.0,0.0,0.0,0.0,0.0,-1.0527,-1.0311,-0.9735,-0.9735,-0.9518,-0.9085,-0.8941,-0.8796,-0.8579,-0.8145,-0.7638,-0.7055,-0.6914,-0.6478,-0.5898,-0.5898,-0.5462,-0.4665,-0.4665,-0.4665,-0.4665,-0.4665,-0.4665,-0.4665,-0.4665,-0.4665,-0.4665,-0.4665,-0.4665,-0.4665,-0.4665,-0.4665,-0.4665,-0.4665,-0.4956,-0.5177,-0.5177,-0.5465,-0.5825,-0.5825,-0.568,-0.5535,-0.5535,-0.5462,-0.5317,-0.5317,-0.5317,-0.5244,-0.4883,-0.4447,-0.4155,-0.4155,-0.401,-0.3789,-0.3571,-0.3209,-0.2771,-0.2478,-0.226,-0.1895,-0.1312,-0.1239,-0.1021,-0.0438,-0.0365,-0.0219,0.0,0.0,0.0,0.0,0.0,0.0,0.0,0.0,0.0,0.0,0.0,-0.0146,-0.0365,-0.0365,-0.0438,-0.0657,-0.0657,-0.0657,-1.3183,-1.3136,-1.3253,-1.4494,-1.4652,-1.4598,-1.5078,-1.4969,-1.4796,0.0,-1.4951,-1.4958,-1.4449,0.0,0.0,0.0,0.0,0.0,0.0,0.0,0.0,0.0,0.0,0.0,0.0,0.0,0.0,0.0,-1.1456,-1.1312,-1.0959,-1.0959,-1.0743,-1.0311,-1.0311,-1.0167,-0.9735,-0.923,-0.8724,-0.8218,-0.8073,-0.7634,-0.6837,-0.6837,-0.6257,-0.5247,-0.4956,-0.481,-0.481,-0.4738,-0.4738,-0.481,-0.4738,-0.4738,-0.481,-0.481,-0.4738,-0.4738,-0.4883,-0.4883,-0.481,-0.4956,-0.5247,-0.5541,-0.5541,-0.5756,-0.6116,-0.6116,-0.6116,-0.6116,-0.6116,-0.6116,-0.6116,-0.6116,-0.6116,-0.6043,-0.5829,-0.5392,-0.4956,-0.4956,-0.4662,-0.4371,-0.4299,-0.3644,-0.3134,-0.2917,-0.2624,-0.226,-0.1822,-0.1822,-0.1531,-0.0803,-0.0657,-0.0511,-0.0146,-0.0073,0.0,0.0,0.0,0.0,0.0,0.0,0.0,0.0,-0.0073,-0.0292,-0.0584,-0.073,-0.0876,-0.1168,-0.1171,-0.1173,-1.2981,-1.3232,-1.3725,-1.519,-1.5327,-1.5357,-1.6263,-1.6185,-1.5939,-1.5939,-1.6054,-1.6275,-1.6408,0.0,0.0,0.0,0.0,0.0,0.0,0.0,0.0,0.0,0.0,0.0,0.0,0.0,0.0,0.0,-1.2681,-1.2538,-1.2108,-1.2108,-1.1965,-1.1527,-1.1534,-1.1312,-1.0953,-1.0167,-0.9807,-0.9807,-0.9374,-0.8796,-0.7996,-0.7996,-0.7562,-0.6845,-0.5683,-0.5177,-0.5177,-0.481,-0.4883,-0.5177,-0.481,-0.4883,-0.5177,-0.5177,-0.4956,-0.481,-0.5538,-0.5465,-0.525,-0.561,-0.6047,-0.6341,-0.6341,-0.6627,-0.6918,-0.6918,-0.6918,-0.6918,-0.6918,-0.6918,-0.6918,-0.6918,-0.6918,-0.67,-0.5974,-0.5752,-0.5756,-0.5756,-0.5392,-0.5029,-0.4738,-0.4299,-0.3789,-0.299,-0.2917,-0.2624,-0.1895,-0.1822,-0.1604,-0.1241,-0.0803,-0.0584,-0.0584,-0.0219,0.0,0.0,0.0,0.0,0.0,0.0,0.0,0.0,-0.0365,-0.0584,-0.0584,-0.0949,-0.1168,-0.1168,-0.1181,-0.1188,-1.2754,-1.3037,-1.347,-1.445,-1.4863,-1.5158,-1.5567,-1.5857,-1.5974,-1.5974,-1.6156,-1.6338,-1.6419,0.0,0.0,0.0,0.0,0.0,0.0,0.0,0.0,0.0,0.0,0.0,0.0,0.0,0.0,0.0,0.0,-1.369,-1.3325,-1.3039,-1.2824,-1.2681,-1.2466,-1.218,-1.1743,-1.1534,-1.124,-1.0959,-1.0599,-1.0161,-0.9657,-0.9368,-0.8941,-0.8435,-0.7779,-0.691,-0.597,-0.5825,-0.568,-0.5538,-0.5465,-0.5465,-0.561,-0.561,-0.5538,-0.5462,-0.568,-0.5683,-0.561,-0.5756,-0.6047,-0.6413,-0.6413,-0.67,-0.699,-0.699,-0.699,-0.699,-0.699,-0.699,-0.699,-0.699,-0.699,-0.6918,-0.6627,-0.6555,-0.6555,-0.6555,-0.6047,-0.5538,-0.5392,-0.4662,-0.4007,-0.3716,-0.3207,-0.2771,-0.2551,-0.226,-0.1968,-0.1604,-0.1459,-0.1167,-0.0657,-0.0438,-0.0292,0.0,0.0,0.0,0.0,0.0,0.0,0.0,-0.0657,-0.0949,-0.1022,-0.1386,-0.1678,-0.1896,-0.1904,-0.1909,-1.2345,-1.2674,-1.3032,-1.4002,-1.4355,-1.4744,-1.5472,-1.5913,-1.6224,-1.6429,-1.6684,-1.6876,-1.6828,-1.6949,0.0,0.0,0.0,0.0,0.0,0.0,0.0,0.0,0.0,0.0,0.0,0.0,0.0,0.0,0.0,0.0,-1.4261,-1.4047,-1.3896,-1.3896,-1.3539,-1.3253,-1.2968,-1.2824,-1.2538,-1.218,-1.1886,-1.1527,-1.1031,-1.0815,-1.0455,-1.0095,-0.9801,-0.8641,-0.6982,-0.6837,-0.6624,-0.6406,-0.6116,-0.6116,-0.6192,-0.6047,-0.5901,-0.5829,-0.6116,-0.6119,-0.6047,-0.6188,-0.641,-0.6631,-0.6631,-0.6773,-0.699,-0.699,-0.699,-0.699,-0.699,-0.699,-0.699,-0.699,-0.699,-0.699,-0.699,-0.699,-0.699,-0.699,-0.6333,-0.5825,-0.5825,-0.4953,-0.4226,-0.4153,-0.3644,-0.3207,-0.2917,-0.2697,-0.2333,-0.2041,-0.1895,-0.1604,-0.1021,-0.0876,-0.0657,-0.0219,-0.0219,-0.0146,0.0,0.0,0.0,0.0,-0.0803,-0.1168,-0.1168,-0.175,-0.2114,-0.2333,-0.2343,-0.2353,0.0,0.0,0.0,-1.3949,-1.4148,-1.4499,-1.6251,-1.6608,-1.6742,-1.7411,-1.7787,-1.7984,-1.7905,-1.8095,0.0,0.0,0.0,0.0,0.0,0.0,0.0,0.0,0.0,0.0,0.0,0.0,0.0,0.0,-1.5052,-1.5052,-1.5052,-1.5052,-1.5052,-1.5052,-1.4688,-1.4546,-1.4546,-1.4118,-1.3753,-1.3396,-1.3325,-1.2968,-1.2252,-1.2252,-1.2036,-1.1678,-1.1678,-1.0377,-0.8213,-0.7856,-0.7638,-0.7566,-0.6765,-0.6696,-0.699,-0.6631,-0.6192,-0.597,-0.6773,-0.6773,-0.6486,-0.6918,-0.699,-0.699,-0.699,-0.699,-0.699,-0.7063,-0.7063,-0.7063,-0.699,-0.699,-0.699,-0.699,-0.699,-0.699,-0.699,-0.699,-0.699,-0.699,-0.6333,-0.5825,-0.5825,-0.5174,-0.4592,-0.4153,-0.408,-0.3789,-0.3063,-0.2917,-0.2771,-0.2333,-0.2041,-0.1822,-0.1822,-0.1459,-0.1022,-0.0657,-0.0584,-0.0438,0.0,0.0,0.0,0.0,-0.0803,-0.1241,-0.1241,-0.1969,-0.2333,-0.2334,-0.2436,-0.2467,-1.4381,0.0,0.0,0.0,0.0,0.0,0.0,-1.8001,-1.8102,-1.848,-1.83,-1.7992,-1.7995,-1.8303,-1.8553,0.0,0.0,0.0,0.0,0.0,0.0,0.0,0.0,0.0,0.0,0.0,0.0,0.0,-1.6673,-1.6673,-1.6673,-1.6381,-1.6098,-1.5895,-1.5753,-1.5753,-1.5753,-1.5328,-1.5035,-1.4964,-1.4403,-1.4047,-1.3833,-1.3539,-1.3396,-1.3253,-1.3253,-1.2745,-1.1743,-1.0305,-0.9374,-0.8796,-0.8579,-0.8362,-0.8222,-0.8078,-0.7788,-0.7498,-0.7715,-0.757,-0.7276,-0.7421,-0.7204,-0.7063,-0.7349,-0.7421,-0.7494,-0.7715,-0.7788,-0.7715,-0.7494,-0.7204,-0.699,-0.699,-0.699,-0.699,-0.699,-0.699,-0.699,-0.699,-0.6333,-0.5825,-0.5825,-0.5174,-0.4665,-0.4517,-0.4299,-0.4007,-0.3789,-0.3279,-0.2844,-0.2771,-0.2405,-0.2041,-0.1822,-0.1677,-0.1459,-0.1095,-0.1022,-0.0876,-0.0438,-0.0438,-0.0292,0.0,-0.0803,-0.1313,-0.1604,-0.2114,-0.2478,-0.2771,-0.3364,-0.3889,-1.5397,-1.5752,-1.6204,-1.6475,0.0,0.0,-1.8089,-1.8249,-1.8312,0.0,-1.8673,-1.8506,-1.8435,-1.8883,-1.9205,0.0,0.0,0.0,0.0,0.0,0.0,0.0,0.0,0.0,0.0,-1.8367,-1.8296,-1.8082,-1.7999,-1.7895,-1.7721,-1.757,-1.7298,-1.6956,-1.6885,-1.6815,-1.6673,-1.6461,-1.624,-1.6028,-1.5603,-1.5328,-1.5186,-1.4972,-1.483,-1.483,-1.483,-1.4608,-1.4181,-1.3103,-1.1814,-1.0455,-1.0167,-0.9879,-0.959,-0.9302,-0.909,-0.8801,-0.8657,-0.844,-0.829,-0.8145,-0.7928,-0.7788,-0.8,-0.8073,-0.8145,-0.8512,-0.8584,-0.8512,-0.8145,-0.786,-0.7643,-0.7498,-0.7353,-0.7276,-0.7276,-0.7135,-0.699,-0.699,-0.6333,-0.5825,-0.5825,-0.5174,-0.4665,-0.4665,-0.4517,-0.4299,-0.4153,-0.3716,-0.3352,-0.3136,-0.2917,-0.2624,-0.226,-0.226,-0.2041,-0.1459,-0.1459,-0.1313,-0.1094,-0.1094,-0.1021,-0.0948,-0.1605,-0.2261,-0.2988,-0.2842,-0.3134,-0.3862,-0.4371,-0.495,-1.5879,-1.6191,-1.6619,-1.6904,-1.6956,0.0,-1.7956,-1.8105,-1.8173,0.0,-1.9013,-1.9208,-1.9175,-1.9621,-1.9883,-1.9518,0.0,0.0,0.0,0.0,0.0,0.0,0.0,0.0,-1.9849,-1.9826,-1.9681,-1.9351,-1.9062,-1.8834,-1.8606,-1.8563,-1.8412,-1.8072,-1.8072,-1.7931,-1.759,-1.752,-1.7298,-1.6936,-1.6936,-1.6734,-1.6461,-1.6461,-1.6461,-1.6461,-1.6461,-1.6259,-1.5923,-1.5923,-1.4546,-1.2395,-1.1671,-1.1312,-1.1168,-1.0527,-1.0239,-1.0167,-0.9807,-0.959,-0.9518,-0.9163,-0.8941,-0.8874,-0.9018,-0.9013,-0.9085,-0.9518,-0.959,-0.9446,-0.9085,-0.8946,-0.8801,-0.844,-0.8073,-0.7856,-0.7856,-0.7566,-0.728,-0.728,-0.6478,-0.5825,-0.5825,-0.5174,-0.4665,-0.4665,-0.4665,-0.4592,-0.4226,-0.4153,-0.3935,-0.3573,-0.35,-0.3354,-0.3063,-0.3063,-0.277,-0.2187,-0.2114,-0.2114,-0.204,-0.204,-0.2186,-0.2551,-0.2988,-0.3789,-0.5029,-0.4228,-0.4371,-0.5459,-0.5531,-0.6036,-1.9047,-1.9485,-2.0065,-1.9936,0.0,0.0,-2.0554,-2.0233,-2.0016,0.0,-1.9507,-1.9269,-1.9511,-2.0017,-2.0343,-2.0263,0.0,0.0,0.0,0.0,0.0,0.0,0.0,0.0,-2.0222,-2.004,-1.9934,-2.0066,-1.9851,-1.9693,-1.9637,-1.9445,-1.9332,-1.9262,-1.9262,-1.9262,-1.9122,-1.8843,-1.8633,-1.8563,-1.8201,-1.8061,-1.7991,-1.7991,-1.7991,-1.7991,-1.7991,-1.8036,-1.8143,-1.7847,-1.6311,-1.403,-1.3888,-1.3389,-1.2824,-1.2681,-1.2459,-1.2173,-1.2029,-1.1671,-1.1168,-1.1025,-1.0593,-1.0167,-1.0809,-1.1031,-1.1168,-1.1814,-1.1599,-1.1096,-1.1025,-1.0527,-1.0023,-0.9951,-0.9663,-0.9446,-0.9446,-0.9157,-0.8868,-0.8868,-0.7204,-0.5825,-0.5825,-0.5174,-0.4665,-0.4665,-0.4665,-0.4665,-0.4592,-0.4299,-0.408,-0.4007,-0.3718,-0.3573,-0.3862,-0.3862,-0.3935,-0.4153,-0.4153,-0.4153,-0.4148,-0.4148,-0.4148,-0.4221,-0.4587,-0.5531,-0.7059,-0.6261,-0.6257,-0.7131,-0.7779,-0.8641,-2.0,-2.0334,-2.0855,-2.0708,0.0,0.0,0.0,0.0,-1.9976,-1.9937,-1.9624,-1.9455,-1.9885,-2.0315,-2.0643,-2.0734,-2.1481,0.0,0.0,0.0,0.0,0.0,0.0,0.0,-2.1848,-2.1607,-2.1462,-2.1462,-2.1462,-2.1341,-2.1076,-2.0919,-2.0847,-2.0648,-2.0517,-2.0378,-2.0368,-2.0029,-1.9831,-1.9831,-1.9611,-1.9541,-1.9541,-1.9541,-1.9541,-1.9541,-1.9667,-1.9804,-1.9929,-1.99,-1.9007,-1.7663,-1.6554,-1.5947,-1.5651,-1.5159,-1.4865,-1.4576,-1.4269,-1.3865,-1.3426,-1.3126,-1.2798,-1.2626,-1.2911,-1.3174,-1.3389,-1.3745,-1.3603,-1.3246,-1.3031,-1.2666,-1.238,-1.2166,-1.1879,-1.1586,-1.1586,-1.1299,-1.1012,-1.1012,-0.9784,-0.8415,-0.7417,-0.6765,-0.6402,-0.6402,-0.6402,-0.6402,-0.6402,-0.6185,-0.6112,-0.6112,-0.5894,-0.5822,-0.5818,-0.6036,-0.6105,-0.6105,-0.625,-0.6467,-0.668,-0.668,-0.6753,-0.6974,-0.7336,-0.7986,-0.9002,-0.9219,-0.9251,-0.917,-0.9753,-1.0657,0.0,0.0,0.0,0.0,0.0,-2.05,0.0,0.0,0.0,0.0,0.0,0.0,0.0,0.0,0.0,0.0,0.0,0.0,0.0,0.0,0.0,0.0,0.0,0.0,0.0,-2.2958,-2.2705,-2.2548,-2.2739,-2.2663,-2.2205,-2.2179,-2.2109,-2.1828,-2.1495,-2.1344,-2.1334,-2.1077,-2.0943,-2.0943,-2.0943,-2.0943,-2.0943,-2.0943,-2.0943,-2.0886,-2.1175,-2.1322,-2.1432,-2.1591,-2.157,-2.1198,-1.9134,-1.8445,-1.8425,-1.7684,-1.7378,-1.7221,-1.6687,-1.6377,-1.6129,-1.5605,-1.5588,-1.5687,-1.5525,-1.5675,-1.5932,-1.5932,-1.5904,-1.5726,-1.5372,-1.523,-1.5079,-1.4796,-1.4432,-1.4202,-1.4202,-1.3847,-1.3555,-1.3515,-1.3011,-1.1888,-0.964,-0.8858,-0.8569,-0.8569,-0.8569,-0.8569,-0.8569,-0.8569,-0.8569,-0.8569,-0.8569,-0.8492,-0.8343,-0.8631,-0.8698,-0.8549,-0.8837,-0.9197,-0.9562,-0.9634,-0.9856,-1.0149,-1.0437,-1.0796,-1.1155,-1.2166,-1.2093,-1.1132,-1.157,-1.2436,0.0,0.0,0.0,0.0,-2.1229,0.0,0.0,0.0,0.0,0.0,0.0,0.0,0.0,0.0,0.0,0.0,0.0,0.0,0.0,0.0,0.0,0.0,0.0,0.0,0.0,-2.2388,-2.2198,-2.223,-2.2256,-2.2243,-2.2179,-2.2179,-2.2179,-2.2109,-2.1912,-2.183,-2.2039,-2.183,-2.1703,-2.1703,-2.1703,-2.1703,-2.1703,-2.1703,-2.1703,-2.1703,-2.1729,-2.1963,-2.2405,-2.2178,-2.238,-2.2664,-2.1209,-2.0393,-2.0127,-1.9998,-1.9987,-1.9937,-1.9915,-1.9626,-1.9264,-1.9242,-1.9181,-1.9192,-1.917,-1.9305,-1.9435,-1.9435,-1.8997,-1.8541,-1.8471,-1.818,-1.7959,-1.7889,-1.7599,-1.7308,-1.7308,-1.6957,-1.6627,-1.6352,-1.6244,-1.5181,-1.1823,-1.064,-1.0138,-1.0138,-1.0138,-1.0138,-1.0138,-1.0138,-1.0138,-1.0138,-1.0138,-1.0425,-1.1064,-1.1207,-1.1494,-1.2066,-1.2137,-1.2351,-1.2787,-1.3151,-1.3302,-1.3381,-1.308,-1.3222,-1.3951,-1.4085,-1.3603,-1.2567,-1.3284,-1.4008,0.0,0.0,0.0,0.0,0.0,0.0,-2.0013,0.0,-1.9706,0.0,0.0,0.0,0.0,0.0,0.0,0.0,-2.0949,0.0,0.0,0.0,0.0,0.0,0.0,0.0,0.0,0.0,0.0,0.0,-2.2824,-2.2824,-2.2824,-2.2824,-2.2902,-2.3143,-2.2697,-2.2671,-2.3143,-2.2684,-2.2448,-2.2448,-2.2448,-2.2448,-2.2448,-2.2448,-2.2448,-2.2461,-2.2562,-2.2784,-2.302,-2.3059,-2.33,-2.3438,-2.2865,-2.2341,-2.1873,-2.1715,-2.151,-2.1342,-2.1198,-2.0852,-2.0507,-2.0659,-2.0684,-2.0567,-2.0567,-2.0462,-2.0403,-2.0403,-2.018,-1.9959,-1.9959,-1.9878,-1.9738,-1.9738,-1.9588,-1.9448,-1.9448,-1.9379,-1.9206,-1.9093,-1.8752,-1.7988,-1.647,-1.5077,-1.4201,-1.4319,-1.4336,-1.4336,-1.4336,-1.4336,-1.4336,-1.4336,-1.4336,-1.4478,-1.4832,-1.523,-1.565,-1.5945,-1.6334,-1.6616,-1.676,-1.6725,-1.6739,-1.6739,-1.6586,-1.6658,-1.6952,-1.7367,-1.7283,-1.6851,-1.6028,-1.619,-2.0935,0.0,0.0,0.0,0.0,0.0,0.0,0.0,0.0,0.0,0.0,0.0,0.0,0.0,0.0,-2.0321,0.0,-2.0548,0.0,0.0,0.0,0.0,0.0,0.0,0.0,0.0,0.0,0.0,0.0,-2.3113,-2.3193,-2.3287,-2.342,-2.3647,-2.322,-2.3207,-2.3647,-2.3207,-2.2953,-2.2928,-2.2928,-2.2928,-2.2928,-2.2928,-2.2928,-2.2873,-2.31,-2.3247,-2.334,-2.346,-2.3581,-2.3647,-2.3647,-2.3424,-2.3078,-2.2937,-2.2742,-2.2502,-2.2299,-2.2024,-2.1836,-2.1963,-2.196,-2.1811,-2.1811,-2.1625,-2.1401,-2.1401,-2.1351,-2.1289,-2.1289,-2.1289,-2.1289,-2.1289,-2.1289,-2.1289,-2.1289,-2.1289,-2.1264,-2.1189,-2.0798,-2.0447,-2.0379,-1.8709,-1.7527,-1.7705,-1.7778,-1.7819,-1.7819,-1.7819,-1.7819,-1.7819,-1.7819,-1.7889,-1.7959,-1.8481,-1.8861,-1.8943,-1.9448,-1.9798,-1.9798,-1.9547,-1.9457,-1.9457,-1.939,-1.9357,-1.9286,-1.9832,-2.0066,-2.0126,-1.8649,-1.8373,0.0,0.0,0.0,-2.0468,0.0,0.0,0.0,0.0,-2.0054,0.0,0.0,0.0,0.0,0.0,-2.0655,-2.0655,-2.0428,0.0,0.0,0.0,0.0,0.0,0.0,0.0,0.0,0.0,0.0,0.0,0.0,0.0,-2.2928,-2.3166,-2.3327,-2.334,-2.3327,-2.3327,-2.334,-2.3327,-2.3153,-2.2928,-2.2928,-2.2928,-2.2928,-2.2928,-2.2928,-2.2928,-2.2941,-2.3046,-2.33,-2.3006,-2.3073,-2.334,-2.334,-2.3284,-2.3323,-2.3661,-2.3768,-2.3768,-2.3754,-2.3754,-2.3683,-2.3696,-2.3696,-2.3683,-2.3683,-2.347,-2.3244,-2.3244,-2.303,-2.2859,-2.2859,-2.2859,-2.2859,-2.2859,-2.2859,-2.2859,-2.2859,-2.2859,-2.2711,-2.2418,-2.2364,-2.2284,-2.2284,-2.0447,-1.9027,-1.9039,-1.9243,-1.946,-1.946,-1.946,-1.946,-1.946,-1.946,-1.9599,-1.9947,-2.0017,-2.0249,-2.0608,-2.0919,-2.1064,-2.1064,-2.1064,-2.1064,-2.1064,-2.074,-2.0608,-2.0608,-2.069,-2.0828,-2.1106,-2.0555,-2.0489,0.0,0.0,-2.1454,-2.0695,0.0,0.0,0.0,0.0,0.0,0.0,0.0,0.0,0.0,0.0,-2.0094,-2.0094,-2.0013,-1.988,0.0,0.0,0.0,0.0,0.0,0.0,0.0,0.0,0.0,0.0,-2.2298,0.0,0.0,-2.2966,-2.3113,-2.3313,-2.3126,-2.3113,-2.3327,-2.3126,-2.2966,-2.2928,-2.2928,-2.2928,-2.2928,-2.2928,-2.2928,-2.2928,-2.2928,-2.2926,-2.3006,-2.2968,-2.2926,-2.302,-2.302,-2.302,-2.3086,-2.3581,-2.3647,-2.3447,-2.3247,-2.33,-2.3474,-2.3474,-2.3474,-2.3474,-2.3474,-2.326,-2.302,-2.302,-2.2939,-2.2928,-2.2928,-2.2928,-2.2928,-2.2928,-2.2928,-2.2928,-2.2928,-2.2928,-2.2901,-2.2726,-2.2552,-2.2418,-2.2418,-2.1813,-2.1323,-2.1582,-2.1696,-2.1747,-2.1747,-2.1747,-2.1747,-2.1747,-2.1747,-2.1816,-2.1953,-2.2146,-2.2339,-2.2743,-2.2847,-2.2898,-2.2898,-2.2647,-2.2543,-2.2543,-2.2453,-2.2401,-2.2401,-2.2665,-2.2826,-2.2897,-2.2737,-2.2355,-2.1109,-2.1256,0.0,-2.0802,-2.0681,0.0,-1.9933,0.0,0.0,0.0,0.0,0.0,0.0,0.0,-1.996,-1.996,-1.9867,-1.9733,0.0,-1.9773,0.0,0.0,0.0,0.0,0.0,0.0,-2.179,-2.2378,-2.2151,0.0,0.0,0.0,-2.2953,-2.3153,-2.3073,-2.3073,-2.3166,-2.3073,-2.2966,-2.2928,-2.2928,-2.2928,-2.2928,-2.2928,-2.2928,-2.2928,-2.2928,-2.2928,-2.2928,-2.2928,-2.2928,-2.2928,-2.2928,-2.2928,-2.2981,-2.337,-2.3327,-2.314,-2.2926,-2.2993,-2.3166,-2.3166,-2.3166,-2.3166,-2.3166,-2.302,-2.2928,-2.2928,-2.2928,-2.2928,-2.2928,-2.2928,-2.2928,-2.2928,-2.2928,-2.2928,-2.2928,-2.2928,-2.2928,-2.2928,-2.2712,-2.2579,-2.2579,-2.2579,-2.2605,-2.2699,-2.2792,-2.2928,-2.2928,-2.2928,-2.2928,-2.2928,-2.2928,-2.2928,-2.2928,-2.3046,-2.3247,-2.3434,-2.3554,-2.3607,-2.3607,-2.3434,-2.3327,-2.3327,-2.322,-2.3166,-2.3166,-2.3354,-2.3447,-2.3447,-2.3567,-2.3219]},{"header":{"parameterUnit":"m.s-1","parameterCategory":1,"la1":30.6,"la2":29.2853,"lo1":-89.7004,"lo2":-87.6739,"dy":0.0162,"dx":0.0183,"nx":112,"ny":82,"refTime":"2024-09-08T00:00:00:Z","depth":0,"parameterNumber":3,"parameterNumberName":"V-component_of_WINDS"},"data":[0.0,0.0,0.0,0.0,0.0,0.0,0.0,0.0,0.0,0.0,0.0,0.0,0.0,0.0,0.0,0.0,0.0,0.0,0.0,0.0,0.0,0.0,0.0,0.0,0.0,0.0,0.0,0.0,0.0,0.0,0.0,0.0,0.0,0.0,0.0,0.0,0.0,0.0,0.0,0.0,0.0,0.0,0.0,0.0,0.0,0.0,0.0,0.0,0.0,0.0,0.0,0.0,0.0,0.0,0.0,0.0,0.0,0.0,0.0,0.0,0.0,0.0,0.0,0.0,0.0,0.0,0.0,0.0,0.0,0.0,0.0,0.0,0.0,0.0,0.0,0.0,0.0,0.0,0.0,0.0,0.0,0.0,0.0,0.0,0.0,0.0,0.0,0.0,0.0,0.0,0.0,6.1885,6.4996,6.6914,6.6914,6.6797,6.4531,5.9531,0.0,0.0,0.0,0.0,0.0,0.0,0.0,0.0,0.0,0.0,0.0,0.0,0.0,0.0,0.0,0.0,0.0,0.0,0.0,0.0,0.0,0.0,0.0,0.0,0.0,0.0,0.0,0.0,0.0,0.0,0.0,0.0,0.0,0.0,0.0,0.0,0.0,0.0,0.0,0.0,0.0,0.0,0.0,0.0,0.0,0.0,0.0,0.0,0.0,0.0,0.0,0.0,0.0,0.0,0.0,0.0,0.0,0.0,0.0,0.0,0.0,0.0,0.0,0.0,0.0,0.0,0.0,0.0,0.0,0.0,0.0,0.0,0.0,0.0,0.0,0.0,0.0,0.0,0.0,0.0,0.0,0.0,0.0,0.0,0.0,0.0,0.0,0.0,0.0,0.0,0.0,0.0,0.0,0.0,0.0,0.0,0.0,0.0,0.0,0.0,0.0,0.0,0.0,0.0,5.9702,6.4451,6.6133,6.6914,6.6914,6.6211,6.3906,5.9492,0.0,0.0,0.0,0.0,0.0,0.0,0.0,0.0,0.0,0.0,0.0,0.0,0.0,0.0,0.0,0.0,0.0,0.0,0.0,0.0,0.0,0.0,0.0,0.0,0.0,0.0,0.0,0.0,0.0,0.0,0.0,0.0,0.0,0.0,0.0,0.0,0.0,0.0,0.0,0.0,0.0,0.0,0.0,0.0,0.0,0.0,0.0,0.0,0.0,0.0,0.0,0.0,0.0,0.0,0.0,0.0,0.0,0.0,0.0,0.0,0.0,0.0,0.0,0.0,0.0,0.0,0.0,0.0,0.0,0.0,0.0,0.0,0.0,0.0,0.0,0.0,0.0,0.0,0.0,0.0,0.0,0.0,0.0,0.0,0.0,0.0,0.0,0.0,0.0,0.0,0.0,0.0,0.0,0.0,0.0,0.0,0.0,0.0,0.0,0.0,0.0,0.0,0.0,5.9347,6.1519,6.5859,6.664,6.6914,6.6914,6.6094,6.3789,5.9453,5.75,0.0,0.0,0.0,0.0,0.0,0.0,0.0,0.0,0.0,0.0,0.0,0.0,0.0,0.0,0.0,0.0,0.0,0.0,0.0,0.0,0.0,0.0,0.0,0.0,0.0,0.0,0.0,0.0,0.0,0.0,0.0,0.0,0.0,0.0,0.0,0.0,0.0,0.0,0.0,0.0,0.0,0.0,0.0,0.0,0.0,0.0,0.0,0.0,0.0,0.0,0.0,0.0,0.0,0.0,0.0,0.0,0.0,0.0,0.0,0.0,0.0,0.0,0.0,0.0,0.0,0.0,0.0,0.0,0.0,0.0,0.0,0.0,0.0,0.0,0.0,0.0,0.0,0.0,0.0,0.0,0.0,0.0,0.0,0.0,0.0,0.0,0.0,0.0,0.0,0.0,0.0,0.0,0.0,0.0,0.0,0.0,0.0,0.0,0.0,0.0,0.0,0.0,6.2578,6.3945,6.6601,6.6914,6.6914,6.6914,6.5547,6.3125,5.9414,5.6367,0.0,0.0,0.0,0.0,0.0,0.0,0.0,0.0,0.0,0.0,0.0,0.0,0.0,0.0,0.0,0.0,0.0,0.0,0.0,0.0,0.0,0.0,0.0,0.0,0.0,0.0,0.0,0.0,0.0,0.0,0.0,0.0,0.0,0.0,0.0,0.0,0.0,0.0,0.0,0.0,0.0,0.0,0.0,0.0,0.0,0.0,0.0,0.0,0.0,0.0,0.0,0.0,0.0,0.0,0.0,0.0,0.0,0.0,0.0,0.0,0.0,0.0,0.0,0.0,0.0,0.0,0.0,0.0,0.0,0.0,0.0,0.0,0.0,0.0,0.0,0.0,0.0,0.0,0.0,0.0,0.0,0.0,0.0,0.0,0.0,0.0,0.0,0.0,0.0,0.0,0.0,0.0,0.0,0.0,0.0,0.0,0.0,0.0,0.0,0.0,0.0,0.0,6.3594,6.664,6.6875,6.6914,6.6914,6.6914,6.3867,6.1172,5.9336,5.5234,0.0,0.0,0.0,0.0,0.0,0.0,0.0,0.0,0.0,0.0,0.0,0.0,0.0,0.0,0.0,0.0,0.0,0.0,0.0,0.0,0.0,0.0,0.0,0.0,0.0,0.0,0.0,0.0,0.0,0.0,0.0,0.0,0.0,0.0,0.0,0.0,0.0,0.0,0.0,0.0,0.0,0.0,0.0,0.0,0.0,0.0,0.0,0.0,0.0,0.0,0.0,0.0,0.0,0.0,0.0,0.0,0.0,0.0,0.0,0.0,0.0,0.0,0.0,0.0,0.0,0.0,0.0,0.0,0.0,0.0,0.0,0.0,0.0,0.0,0.0,0.0,0.0,0.0,0.0,0.0,0.0,0.0,0.0,0.0,0.0,0.0,0.0,0.0,0.0,0.0,0.0,0.0,0.0,0.0,0.0,0.0,0.0,0.0,0.0,0.0,0.0,0.0,6.2265,6.5078,0.0,6.6914,6.668,6.6133,6.3906,6.1094,5.7773,0.0,0.0,0.0,0.0,0.0,0.0,0.0,0.0,0.0,0.0,0.0,0.0,0.0,0.0,0.0,0.0,0.0,0.0,0.0,0.0,0.0,0.0,0.0,0.0,0.0,0.0,0.0,0.0,0.0,0.0,0.0,0.0,0.0,0.0,0.0,0.0,0.0,0.0,0.0,0.0,0.0,0.0,0.0,0.0,0.0,0.0,0.0,0.0,0.0,0.0,0.0,0.0,0.0,0.0,0.0,0.0,0.0,0.0,0.0,0.0,0.0,0.0,0.0,0.0,0.0,0.0,0.0,0.0,0.0,0.0,0.0,0.0,0.0,0.0,0.0,0.0,0.0,0.0,0.0,0.0,0.0,0.0,0.0,0.0,0.0,0.0,0.0,0.0,0.0,0.0,0.0,0.0,0.0,0.0,0.0,0.0,0.0,0.0,0.0,0.0,0.0,0.0,5.8789,6.2148,6.4922,0.0,6.6914,6.6562,6.5664,6.3242,6.0312,5.6836,0.0,0.0,0.0,0.0,0.0,0.0,0.0,0.0,0.0,0.0,0.0,0.0,0.0,0.0,0.0,0.0,0.0,0.0,0.0,0.0,0.0,0.0,0.0,0.0,0.0,0.0,0.0,0.0,0.0,0.0,0.0,0.0,0.0,0.0,0.0,0.0,0.0,0.0,0.0,0.0,0.0,0.0,0.0,0.0,0.0,0.0,0.0,0.0,0.0,0.0,0.0,0.0,0.0,0.0,0.0,0.0,0.0,0.0,0.0,0.0,0.0,0.0,0.0,0.0,0.0,0.0,0.0,0.0,0.0,0.0,0.0,0.0,0.0,0.0,0.0,0.0,0.0,0.0,0.0,0.0,0.0,0.0,0.0,0.0,0.0,0.0,0.0,0.0,0.0,0.0,0.0,0.0,0.0,0.0,0.0,0.0,0.0,0.0,0.0,0.0,0.0,0.0,5.9101,6.3711,6.6914,6.6914,6.6914,6.6523,6.5664,6.168,5.8476,0.0,0.0,0.0,0.0,0.0,0.0,0.0,0.0,0.0,0.0,0.0,0.0,0.0,0.0,0.0,0.0,0.0,0.0,0.0,0.0,0.0,0.0,0.0,0.0,0.0,0.0,0.0,0.0,0.0,0.0,0.0,0.0,0.0,0.0,0.0,0.0,0.0,0.0,0.0,0.0,0.0,0.0,0.0,0.0,0.0,0.0,0.0,0.0,0.0,0.0,0.0,0.0,0.0,0.0,0.0,0.0,0.0,0.0,0.0,0.0,0.0,0.0,0.0,0.0,0.0,0.0,0.0,0.0,0.0,0.0,0.0,0.0,0.0,0.0,0.0,0.0,0.0,0.0,0.0,0.0,0.0,0.0,0.0,0.0,0.0,0.0,0.0,0.0,0.0,0.0,0.0,0.0,0.0,0.0,0.0,0.0,0.0,0.0,0.0,0.0,0.0,0.0,0.0,5.9023,6.3711,6.6914,6.6914,6.6914,6.6289,6.4805,6.2383,5.9453,5.5898,0.0,0.0,0.0,0.0,0.0,0.0,0.0,0.0,0.0,0.0,0.0,0.0,0.0,0.0,0.0,0.0,0.0,0.0,0.0,0.0,0.0,0.0,0.0,0.0,0.0,0.0,0.0,0.0,0.0,0.0,0.0,0.0,0.0,0.0,0.0,0.0,0.0,0.0,0.0,0.0,0.0,0.0,0.0,0.0,0.0,0.0,0.0,0.0,0.0,0.0,0.0,0.0,0.0,0.0,0.0,0.0,0.0,0.0,0.0,0.0,0.0,0.0,0.0,0.0,0.0,0.0,0.0,0.0,0.0,0.0,0.0,0.0,0.0,0.0,0.0,0.0,0.0,0.0,0.0,0.0,0.0,0.0,0.0,0.0,0.0,0.0,0.0,0.0,0.0,0.0,0.0,0.0,0.0,0.0,0.0,0.0,0.0,0.0,0.0,0.0,0.0,0.0,5.8984,6.3711,6.6914,6.6914,6.6914,6.6328,6.4922,6.3203,6.039,5.6094,0.0,0.0,0.0,0.0,0.0,0.0,0.0,0.0,0.0,0.0,0.0,0.0,0.0,0.0,0.0,0.0,0.0,0.0,0.0,0.0,0.0,0.0,0.0,0.0,0.0,0.0,0.0,0.0,0.0,0.0,0.0,0.0,0.0,0.0,0.0,0.0,0.0,0.0,0.0,0.0,0.0,0.0,0.0,0.0,0.0,0.0,0.0,0.0,0.0,0.0,0.0,0.0,0.0,0.0,0.0,0.0,0.0,0.0,0.0,0.0,0.0,0.0,0.0,0.0,0.0,0.0,0.0,0.0,0.0,0.0,0.0,0.0,0.0,0.0,0.0,0.0,0.0,0.0,0.0,0.0,0.0,0.0,0.0,0.0,0.0,0.0,0.0,0.0,0.0,0.0,0.0,0.0,0.0,0.0,0.0,0.0,0.0,0.0,0.0,0.0,0.0,0.0,5.8984,6.3711,6.6914,6.6914,6.6914,6.6562,6.5664,6.4062,6.1367,5.7226,0.0,0.0,0.0,0.0,0.0,0.0,0.0,0.0,0.0,0.0,0.0,0.0,0.0,0.0,0.0,0.0,0.0,0.0,0.0,0.0,0.0,0.0,0.0,0.0,0.0,0.0,0.0,0.0,0.0,0.0,0.0,0.0,0.0,0.0,0.0,0.0,0.0,0.0,0.0,0.0,0.0,0.0,0.0,0.0,0.0,0.0,0.0,0.0,0.0,0.0,0.0,0.0,0.0,0.0,0.0,0.0,0.0,0.0,0.0,0.0,5.7031,0.0,0.0,0.0,0.0,0.0,0.0,0.0,0.0,0.0,0.0,0.0,0.0,0.0,0.0,0.0,0.0,0.0,0.0,0.0,0.0,0.0,0.0,0.0,0.0,0.0,0.0,0.0,0.0,0.0,0.0,0.0,0.0,0.0,0.0,0.0,0.0,0.0,0.0,0.0,0.0,0.0,5.9062,6.3711,6.6914,6.6914,6.6914,6.6562,6.5664,6.4648,6.2734,5.9765,5.6719,0.0,0.0,0.0,0.0,0.0,0.0,0.0,0.0,0.0,0.0,0.0,0.0,0.0,0.0,0.0,0.0,0.0,0.0,0.0,0.0,0.0,0.0,0.0,0.0,0.0,0.0,0.0,0.0,0.0,0.0,0.0,0.0,0.0,0.0,0.0,0.0,0.0,0.0,0.0,0.0,0.0,0.0,0.0,0.0,0.0,0.0,0.0,0.0,0.0,0.0,0.0,0.0,0.0,0.0,0.0,0.0,0.0,0.0,0.0,0.0,5.8867,0.0,0.0,0.0,0.0,0.0,0.0,0.0,0.0,0.0,0.0,0.0,0.0,0.0,0.0,0.0,0.0,0.0,0.0,0.0,0.0,0.0,0.0,0.0,0.0,0.0,0.0,0.0,0.0,0.0,0.0,0.0,0.0,0.0,0.0,0.0,0.0,0.0,0.0,0.0,0.0,5.9609,6.3945,6.6914,6.6914,6.6914,6.6719,6.625,6.543,6.3984,6.1797,5.9219,0.0,0.0,0.0,0.0,0.0,0.0,0.0,0.0,0.0,0.0,0.0,0.0,0.0,0.0,0.0,0.0,0.0,0.0,0.0,0.0,0.0,0.0,0.0,0.0,0.0,0.0,0.0,0.0,0.0,0.0,0.0,0.0,0.0,0.0,0.0,0.0,0.0,0.0,0.0,0.0,0.0,0.0,0.0,0.0,0.0,0.0,0.0,0.0,0.0,0.0,0.0,0.0,0.0,6.4922,6.543,6.6289,6.6289,6.6367,6.6328,6.3281,6.293,6.4297,0.0,0.0,0.0,0.0,0.0,0.0,0.0,0.0,0.0,0.0,0.0,0.0,0.0,0.0,0.0,0.0,0.0,0.0,0.0,0.0,0.0,0.0,0.0,0.0,0.0,6.1601,6.1992,0.0,0.0,0.0,0.0,0.0,0.0,0.0,0.0,0.0,0.0,0.0,0.0,6.043,6.4297,6.6914,6.6914,6.6914,6.6914,6.6914,6.625,6.5156,6.3555,6.1836,5.9844,0.0,0.0,0.0,0.0,0.0,0.0,0.0,0.0,0.0,0.0,0.0,0.0,0.0,0.0,0.0,0.0,0.0,0.0,0.0,0.0,0.0,0.0,0.0,0.0,0.0,0.0,0.0,0.0,0.0,0.0,0.0,0.0,5.7031,5.8672,0.0,0.0,0.0,0.0,0.0,0.0,0.0,0.0,0.0,0.0,0.0,0.0,0.0,6.2383,6.3789,6.4765,6.5703,6.6562,6.7305,6.8125,6.8984,6.8945,6.9297,6.9961,6.875,0.0,6.5351,6.414,0.0,0.0,0.0,0.0,0.0,0.0,0.0,0.0,0.0,0.0,0.0,0.0,0.0,0.0,0.0,0.0,0.0,0.0,0.0,0.0,0.0,0.0,6.6015,6.5898,6.6055,6.5937,0.0,6.1758,5.9023,5.8437,0.0,0.0,0.0,0.0,0.0,0.0,0.0,0.0,6.1406,6.4687,6.6914,6.6914,6.6914,6.6914,6.6914,6.6797,6.6328,6.5312,6.3633,6.2187,6.1055,5.8672,0.0,0.0,0.0,0.0,0.0,0.0,0.0,0.0,0.0,0.0,0.0,0.0,0.0,0.0,0.0,0.0,0.0,0.0,0.0,0.0,0.0,0.0,0.0,0.0,0.0,0.0,0.0,0.0,0.0,5.8437,5.9922,6.1172,6.1328,6.0976,0.0,0.0,0.0,0.0,0.0,0.0,0.0,0.0,0.0,6.3125,6.4101,6.5,6.5742,6.707,6.7695,6.7656,6.8515,6.9101,6.9453,6.9414,6.9609,6.9961,6.957,6.8789,6.7617,6.6328,6.4726,6.3047,0.0,0.0,0.0,0.0,6.1992,6.2031,6.3125,6.3672,0.0,0.0,0.0,0.0,0.0,0.0,0.0,0.0,0.0,0.0,0.0,0.0,0.0,6.6797,6.6914,6.6797,6.6406,6.4844,6.2969,0.0,6.0703,6.0,5.7578,0.0,0.0,0.0,0.0,6.2187,6.3047,6.5351,6.6914,6.6914,6.6914,6.6914,6.6914,6.6914,6.6758,6.6367,6.5156,6.4297,6.3906,6.1406,5.9258,0.0,0.0,0.0,0.0,0.0,0.0,0.0,0.0,0.0,0.0,0.0,0.0,0.0,0.0,0.0,0.0,0.0,0.0,0.0,0.0,0.0,0.0,0.0,0.0,0.0,0.0,0.0,0.0,6.1133,6.2109,6.3203,6.293,6.2422,0.0,0.0,0.0,0.0,0.0,0.0,6.1367,6.2226,6.3281,6.4609,6.5898,6.668,6.6914,6.8125,6.8555,6.8203,6.8867,6.9258,6.9414,6.9414,6.9414,6.9414,6.9414,6.9297,6.8984,6.7734,6.6484,6.5195,6.4336,6.3594,6.3203,6.4492,6.4531,6.4297,6.6211,6.6484,6.5703,6.4414,0.0,6.2539,5.9961,0.0,0.0,0.0,0.0,6.2773,6.4492,6.5469,6.6094,6.6758,6.6914,6.6914,6.6914,6.6914,6.6133,0.0,6.3359,6.25,5.8867,0.0,0.0,0.0,0.0,6.3398,6.4492,6.5976,6.6914,6.6914,6.6914,6.6914,6.6914,6.6914,6.6914,6.6914,6.6289,6.5937,6.5937,6.3633,6.1836,6.0742,0.0,0.0,0.0,0.0,0.0,0.0,0.0,0.0,0.0,0.0,0.0,0.0,0.0,0.0,0.0,0.0,0.0,0.0,0.0,0.0,0.0,0.0,0.0,0.0,0.0,0.0,0.0,0.0,0.0,6.4023,6.2773,0.0,0.0,0.0,0.0,6.164,6.3125,6.4062,6.4101,6.4922,6.543,6.5547,6.5625,6.6055,6.6875,6.6992,6.7422,6.8203,6.8242,6.8672,6.9414,6.9414,6.9414,6.9492,6.9492,6.9023,6.8242,6.8164,6.8086,6.793,6.7031,6.668,6.664,6.6758,6.6758,6.6719,6.6836,6.6875,6.6836,6.6719,6.5039,6.2969,6.2812,6.1601,0.0,0.0,6.3476,6.457,6.6328,6.6797,6.6836,6.6875,6.6914,6.6914,6.6914,6.6914,6.6836,0.0,6.6015,6.4883,6.3008,0.0,6.1562,6.1523,6.2344,6.3594,6.5312,6.6328,6.6914,6.6914,6.6914,6.6914,6.6914,6.6914,6.6914,6.6914,6.6875,6.6836,6.6836,6.5117,6.3359,6.168,5.9101,0.0,0.0,0.0,0.0,0.0,0.0,0.0,0.0,0.0,0.0,0.0,0.0,0.0,0.0,0.0,0.0,0.0,0.0,0.0,0.0,0.0,0.0,0.0,0.0,0.0,0.0,0.0,0.0,6.414,6.4258,0.0,6.4219,6.4219,6.4219,6.4219,6.4258,6.4297,6.4297,6.5117,6.5586,6.5586,6.6133,6.6601,6.6914,6.6914,6.707,6.7344,6.7344,6.75,6.7773,6.7773,6.7812,6.7812,6.7812,6.7656,6.7344,6.7344,6.7344,6.7344,6.7031,6.6914,6.6914,6.6914,6.6914,6.6914,6.6914,6.6914,6.6914,6.6914,6.5898,6.4687,6.4687,6.3867,6.3164,6.4336,6.4883,6.539,6.6601,6.6914,6.6914,6.6914,6.6914,6.6914,6.6914,6.6914,6.6914,6.6914,6.664,6.5703,6.3398,6.414,6.4492,6.2773,6.4219,6.5742,6.6367,6.6719,6.6914,6.6914,6.6914,6.6914,6.6914,6.6914,6.6914,6.6914,6.6914,6.6914,6.6914,6.5742,6.457,6.3398,6.0312,5.7734,0.0,0.0,0.0,0.0,0.0,0.0,0.0,0.0,0.0,0.0,0.0,0.0,0.0,0.0,0.0,0.0,0.0,0.0,0.0,0.0,0.0,0.0,0.0,0.0,0.0,0.0,6.4219,6.5078,6.5156,6.5273,6.5586,6.5312,6.5156,6.5156,6.4883,6.4726,6.4726,6.5586,6.6055,6.6055,6.6601,6.6914,6.6914,6.6914,6.6914,6.6914,6.6914,6.6914,6.6914,6.6914,6.6914,6.6914,6.6914,6.6914,6.6914,6.6914,6.6914,6.6914,6.6914,6.6914,6.6914,6.6914,6.6914,6.6914,6.6914,6.6914,6.6914,6.6914,6.6328,6.5586,6.5586,6.5,6.4492,6.5351,6.5586,6.5781,6.668,6.6914,6.6914,6.6914,6.6914,6.6914,6.6914,6.6914,6.6914,6.6914,6.6914,6.625,6.4219,6.5312,6.5859,6.4098,6.5311,6.6562,6.6793,6.6874,6.6914,6.6914,6.6914,6.6914,6.6914,6.664,6.6601,6.6875,6.6601,6.6601,6.6875,6.5508,6.4453,6.3867,6.0195,5.7734,5.6601,0.0,0.0,0.0,0.0,0.0,0.0,0.0,0.0,0.0,0.0,0.0,0.0,0.0,0.0,0.0,0.0,0.0,0.0,0.0,0.0,0.0,0.0,0.0,6.4219,6.5078,6.5898,6.6758,6.539,6.4726,6.5547,6.4883,6.4375,6.4375,6.5156,6.5625,6.5625,6.6445,6.6914,6.6914,6.6914,6.6914,6.6914,6.6914,6.6914,6.6914,6.6914,6.6914,6.6914,6.6914,6.6914,6.6914,6.6914,6.6914,6.6914,6.6914,6.6914,6.6914,6.6914,6.6914,6.6914,6.6914,6.6914,6.6914,6.6914,6.6914,6.6914,6.6914,6.6328,6.5625,6.5625,6.5039,6.457,6.539,6.5625,6.5859,6.668,6.6914,6.6914,6.6914,6.6914,6.6914,6.6914,6.6914,6.6914,6.6914,6.6914,6.6601,6.5742,6.5625,6.5584,6.5438,6.554,0.0,6.6609,6.6829,6.6914,6.6875,6.6875,6.6875,6.6875,6.6133,6.6015,6.6836,6.6094,6.6015,6.6875,6.4414,6.3008,6.293,5.8828,5.668,5.664,0.0,0.0,0.0,0.0,0.0,0.0,0.0,0.0,0.0,0.0,0.0,0.0,0.0,0.0,0.0,0.0,0.0,0.0,0.0,0.0,0.0,6.5586,6.5703,6.5312,6.5469,6.5703,6.5937,6.6094,6.6289,6.6523,6.6328,6.6172,6.6172,6.6406,6.6523,6.6523,6.6758,6.6914,6.6914,6.6914,6.6914,6.6914,6.6914,6.6914,6.6914,6.6914,6.6914,6.6914,6.6914,6.6914,6.6914,6.6914,6.6914,6.6914,6.6914,6.6914,6.6914,6.6914,6.6914,6.6914,6.6914,6.6914,6.6914,6.6914,6.6914,6.6914,6.6914,6.6758,6.6523,6.6523,6.6367,6.625,6.6484,6.6523,6.6601,6.6836,6.6914,6.6914,6.6914,6.6914,6.6914,6.6914,6.6914,6.6914,6.6914,6.6914,6.6601,6.5742,6.6133,6.6328,6.5661,6.6093,0.0,6.6833,6.6874,6.6873,6.6779,6.6737,6.6737,6.6737,6.6541,6.6552,6.6875,6.668,6.664,6.6875,6.5,6.3047,6.1133,5.9375,5.8164,0.0,0.0,0.0,0.0,0.0,0.0,0.0,0.0,0.0,0.0,0.0,0.0,0.0,0.0,0.0,0.0,0.0,0.0,0.0,0.0,0.0,0.0,6.6562,6.6719,6.6211,6.6133,6.6133,6.6133,6.6601,6.6914,6.6914,6.6914,6.6914,6.6914,6.6914,6.6914,6.6914,6.6914,6.6914,6.6914,6.6914,6.6914,6.6914,6.6914,6.6914,6.6914,6.6914,6.6914,6.6914,6.6914,6.6914,0.0,6.6914,6.6914,6.6914,6.6914,6.6914,0.0,0.0,0.0,0.0,0.0,6.6914,6.6914,6.6914,6.6914,6.6914,6.6914,6.6914,6.6914,6.6914,6.6914,6.6914,6.6914,6.6914,6.6914,6.6914,6.6914,6.6914,6.6914,6.6914,6.6914,6.6914,6.6914,6.6914,6.6914,0.0,0.0,6.6211,6.6562,6.6718,6.6166,6.6522,6.6874,6.683,6.6874,6.6874,6.6785,6.6784,6.6784,6.6784,6.6432,0.0,0.0,0.0,6.6172,6.582,6.4492,0.0,0.0,0.0,0.0,0.0,0.0,0.0,0.0,5.789,5.8515,0.0,0.0,0.0,0.0,0.0,0.0,0.0,0.0,0.0,0.0,0.0,0.0,0.0,0.0,0.0,0.0,6.6914,6.6914,6.6914,6.6914,6.6914,6.6914,6.6914,6.6914,6.6914,6.6914,6.6914,6.6914,6.6914,6.6914,6.6914,0.0,0.0,0.0,0.0,6.6914,6.6914,6.6914,6.6914,6.6914,6.6914,6.6914,6.6914,6.6914,6.6914,6.6914,6.6914,6.6914,6.6914,6.6914,6.6914,6.6914,6.6914,6.6914,6.6914,6.6914,6.6914,6.6914,6.6914,0.0,0.0,6.6914,6.6914,6.6914,6.6914,6.6914,6.6914,6.6914,6.6914,6.6914,6.6914,6.6914,6.6914,6.6914,6.6914,6.6914,6.6914,6.6914,6.6914,6.6914,6.6914,6.6914,6.6914,6.6914,6.6873,6.6733,6.683,6.6873,6.6731,6.683,6.6875,6.6874,0.0,0.0,6.6874,6.6171,6.6054,6.6836,6.6172,6.5351,6.4492,6.3711,6.289,6.1992,6.0547,6.0117,6.0859,6.0039,5.9648,5.9648,6.0859,6.1484,0.0,0.0,0.0,0.0,0.0,0.0,0.0,0.0,0.0,0.0,0.0,0.0,0.0,0.0,0.0,6.6836,6.6914,6.6914,6.6914,6.6914,6.6914,6.6914,6.6914,6.6914,6.6914,6.6914,6.6914,6.6914,6.6914,6.6914,6.6914,6.6914,6.6914,6.6914,6.6914,6.6914,6.6914,6.6914,6.6914,6.6914,0.0,0.0,6.6914,6.6914,6.6914,6.6914,6.6914,6.6914,6.6914,6.6914,6.6914,6.6914,6.6914,6.6914,6.6914,6.6914,6.6914,6.6914,6.6914,6.6914,6.6914,6.6914,6.6914,6.6914,6.6914,6.6914,0.0,6.6914,6.6914,6.6914,6.6914,6.6914,6.6914,6.6914,6.6914,6.6914,6.6914,6.6914,6.6914,6.6914,6.6914,6.6914,6.6914,6.6914,6.6875,6.6874,6.6874,6.6875,6.6873,6.6874,6.6873,6.6735,6.6733,6.6733,6.6733,6.6575,6.6628,6.6875,6.6758,6.625,6.539,6.5195,6.4687,6.3828,6.3476,6.3398,6.3555,6.2695,6.2265,6.2226,6.0508,6.0039,0.0,0.0,0.0,0.0,0.0,0.0,0.0,0.0,0.0,0.0,0.0,6.5234,6.6094,0.0,6.6914,6.6914,6.6914,6.6914,6.6914,6.6914,6.6914,6.6914,6.6914,6.6914,6.6914,6.6914,6.6914,6.6914,6.6914,6.6914,6.6914,6.6914,6.6914,6.6914,6.6914,6.6914,6.6914,6.6914,6.6914,6.6914,6.6914,6.6914,6.6914,6.6914,6.6914,6.6914,6.6914,6.6914,6.6914,6.6914,6.6914,6.6914,6.6914,6.6914,6.6914,6.6914,6.6914,6.6914,6.6914,6.6914,6.6914,6.6914,6.6914,6.6914,6.6914,6.6914,6.6914,6.6914,6.6914,6.6914,6.6914,6.6914,6.6914,6.6914,6.6914,6.6914,6.6914,6.6914,6.6914,6.6914,6.6914,6.6914,6.6914,6.6914,6.6914,6.6914,6.6914,6.6914,6.6914,6.6914,6.6874,6.6827,6.6787,6.6787,6.6787,6.6787,6.6831,6.6914,6.6914,6.6719,6.6289,6.582,6.539,6.4961,6.4531,6.4297,6.4297,6.3867,6.3633,6.3633,6.2344,6.1484,0.0,0.0,0.0,0.0,0.0,0.0,0.0,6.4297,6.4805,6.4805,6.5351,6.6055,6.6758,6.6914,6.6914,6.6914,6.6914,6.6914,6.6914,6.6914,6.6914,6.6914,6.6914,6.6914,6.6914,6.6914,6.6914,6.6914,6.6914,6.6914,6.6914,6.6914,6.6914,6.6914,6.6914,6.6914,6.6914,6.6914,6.6914,6.6914,6.6914,6.6914,6.6914,6.6914,6.6914,6.6914,6.6914,6.6914,6.6914,6.6914,6.6914,6.6914,6.6914,6.6914,6.6914,6.6914,6.6914,6.6914,6.6914,6.6914,6.6914,6.6914,6.6914,6.6914,6.6914,6.6914,6.6914,6.6914,6.6914,6.6914,6.6914,6.6914,6.6914,6.6914,6.6914,6.6914,6.6914,6.6914,6.6914,6.6914,6.6914,6.6914,6.6914,6.6914,6.6914,6.6914,6.6914,6.6914,6.6914,6.6914,6.6914,6.6914,6.6914,6.6914,6.6914,6.6914,6.6914,6.6914,6.6914,6.6914,6.6914,6.6211,6.5859,6.5859,6.5156,6.4805,6.4805,6.4648,6.4531,6.4531,6.4375,6.3555,6.2969,6.3359,6.4219,6.5078,6.5312,6.5508,0.0,6.6523,6.6601,6.6601,6.668,6.6797,6.6875,6.6914,6.6914,6.6914,6.6914,6.6914,6.6912,6.6912,6.6912,6.6912,6.6914,6.6914,6.6914,6.6914,6.6914,6.6914,6.6914,6.6914,6.6914,6.6914,6.6914,6.6914,6.6914,6.6914,6.6914,6.6914,6.6914,6.6914,6.6914,6.6914,6.6914,6.6914,6.6914,6.6914,6.6914,6.6914,6.6914,6.6914,6.6914,6.6914,6.6914,6.6914,6.6914,6.6914,6.6914,6.6914,6.6914,6.6914,6.6914,6.6914,6.6914,6.6914,6.6914,6.6914,6.6914,6.6914,6.6914,6.6914,6.6914,6.6914,6.6914,6.6914,6.6914,6.6914,6.6914,6.6914,6.6914,6.6914,6.6914,6.6914,6.6914,6.6914,6.6914,6.6914,6.6914,6.6914,6.6914,6.6914,6.6914,6.6914,6.6914,6.6914,6.6914,6.6914,6.6914,6.6914,6.6914,6.6914,6.6914,6.6797,6.6758,6.6758,6.664,6.6601,6.6601,6.582,6.5469,6.543,6.4648,6.4219,6.5859,6.5937,6.6015,6.6914,6.7109,6.7226,6.7578,6.7656,6.75,6.6992,6.6914,6.6914,6.6914,6.6914,6.6913,6.6913,6.6912,6.691,6.6907,6.6907,6.6908,6.6911,6.6912,6.6913,6.6914,6.6914,6.6914,6.6914,6.6914,6.6914,6.6914,6.6914,6.6914,6.6914,6.6914,6.6914,6.6914,6.6914,6.6914,6.6914,6.6914,6.6914,6.6914,6.6914,6.6914,6.6914,6.6914,6.6914,6.6914,6.6914,6.6914,6.6914,6.6914,6.6914,6.6914,6.6914,6.6914,6.6914,6.6914,6.6914,6.6914,6.6914,6.6914,6.6914,6.6914,6.6914,6.6914,6.6914,6.6914,6.6914,6.6914,6.6914,6.6914,6.6914,6.6914,6.6914,6.6914,6.6914,6.6914,6.6914,6.6914,6.6914,6.6914,6.6914,6.6914,6.6914,6.6914,6.6914,6.6914,6.6914,6.6914,6.6914,6.6914,6.6914,6.6914,6.6914,6.6914,6.6914,6.6914,6.6914,6.6914,6.6914,6.6914,6.6914,6.6914,6.6914,6.6914,6.6523,6.6367,6.6367,6.5976,6.582,6.7617,6.7578,6.7344,6.7734,6.7851,6.7851,6.7851,6.7851,6.7656,6.7031,6.6914,6.6953,6.7226,6.7264,6.734,6.7535,6.7375,6.7215,6.7213,6.7017,6.6863,6.6868,6.6868,6.687,6.6913,6.6914,6.6914,6.6914,6.6914,6.6914,6.6914,6.6914,6.6914,6.6914,6.6914,6.6914,6.6914,6.6914,6.6914,6.6914,6.6914,6.6914,6.6914,6.6914,6.6914,6.6914,6.6914,6.6914,6.6914,6.6914,6.6914,6.6914,6.6914,6.6914,6.6914,6.6914,6.6914,6.6914,6.6914,6.6914,6.6914,6.6914,6.6914,6.6914,6.6914,6.6914,6.6914,6.6914,6.6914,6.6914,6.6914,6.6914,6.6914,6.6914,6.6914,6.6914,6.6914,6.6914,6.6914,6.6914,6.6914,6.6914,6.6914,6.6914,6.6914,6.6914,6.6914,6.6914,6.6914,6.6914,6.6914,6.6914,6.6914,6.6914,6.6914,6.6914,6.6914,6.6914,6.6914,6.6914,6.6914,6.6914,6.6914,6.6914,6.6914,6.6914,6.6914,6.6914,6.6914,6.6914,6.6914,6.6914,6.7383,6.7539,6.7969,6.7148,6.6953,6.6953,6.6953,6.6953,6.6914,6.6914,6.6914,6.7148,6.8006,6.8161,6.8433,6.9208,6.8622,6.8073,6.8064,6.736,6.6813,6.6813,6.6813,6.6817,0.0,6.6912,6.6914,6.6914,6.6914,6.6914,6.6914,6.6914,6.6914,6.6914,6.6914,6.6914,6.6914,6.6914,6.6914,6.6914,6.6914,6.6914,6.6914,6.6914,6.6914,6.6914,6.6914,6.6914,6.6914,6.6914,6.6914,6.6914,6.6914,6.6914,6.6914,6.6914,6.6914,6.6914,6.6914,6.6914,6.6914,6.6914,6.6914,6.6914,6.6914,6.6914,6.6914,6.6914,6.6914,6.6914,6.6914,6.6914,6.6914,6.6914,6.6914,6.6914,6.6914,6.6914,6.6914,6.6914,6.6914,6.6914,6.6914,6.6914,6.6914,6.6914,6.6914,6.6914,6.6914,6.6914,6.6914,6.6914,6.6914,6.6914,6.6914,6.6914,6.6914,6.6914,6.6914,6.6914,6.6914,6.6914,6.6914,6.6914,6.6914,6.6914,6.6914,6.6914,6.6914,6.6914,6.6914,6.6914,6.7773,6.7539,6.7265,6.6953,6.6914,6.6914,6.6914,6.6914,6.6914,6.6914,6.8156,6.9386,6.9655,7.0219,7.0661,7.0965,6.9354,6.8081,6.8114,6.7342,6.6805,6.6811,6.6811,6.6815,0.0,0.0,0.0,6.6912,6.6913,6.6913,6.6914,6.6914,6.6914,6.6914,6.6914,6.6914,6.6914,6.6914,6.6914,6.6914,6.6914,6.6914,6.6914,6.6914,6.6914,6.6914,6.6914,6.6914,6.6914,6.6914,6.6914,6.6914,6.6914,6.6914,6.6914,6.6914,6.6914,6.6914,6.6914,6.6914,6.6914,6.6914,6.6914,6.6914,6.6914,6.6914,6.6914,6.6914,6.6914,6.6914,6.6914,6.6914,6.6914,6.6914,6.6914,6.6914,6.6914,6.6914,6.6914,6.6914,6.6914,6.6914,6.6914,6.6914,6.6914,6.6914,6.6914,6.6914,6.6914,6.6914,6.6914,6.6914,6.6914,6.6914,6.6914,6.6914,6.6914,6.6914,6.6914,6.6914,6.6914,6.6914,6.6914,6.6914,6.6914,6.6914,6.6914,6.6914,6.6914,6.6914,6.6914,6.6914,6.7656,6.7344,6.6914,6.6914,6.6914,6.6914,6.6914,6.6914,6.6914,6.6914,6.8577,7.0252,7.0831,7.1408,7.2362,7.417,7.2885,7.136,7.0446,7.0107,6.9153,6.7037,6.6807,6.6809,6.6856,0.0,0.0,6.6911,6.6911,6.6912,6.6914,6.6914,6.6914,6.6914,6.6914,6.6914,6.6914,6.6914,6.6914,6.6914,6.6914,6.6914,6.6914,6.6914,6.6914,6.6914,6.6914,6.6914,6.6914,6.6914,6.6914,6.6914,6.6914,6.6914,6.6914,6.6914,6.6914,6.6914,6.6914,6.6914,6.6914,6.6914,6.6914,6.6914,6.6914,6.6914,6.6914,6.6914,6.6914,6.6914,6.6914,6.6914,6.6914,6.6914,6.6914,6.6914,6.6914,6.6914,6.6914,6.6914,6.6914,6.6914,6.6914,6.6914,6.6914,6.6914,6.6914,6.6914,6.6914,6.6914,6.6914,6.6914,6.6914,6.6914,6.6914,6.6914,6.6914,6.6914,6.6914,6.6914,6.6914,6.6914,6.6914,6.6914,6.6914,6.6914,6.6914,6.6914,6.6914,6.6914,6.6914,6.6914,6.7108,6.6914,6.6914,6.6914,6.6914,6.6914,6.6914,6.6914,6.6914,6.6992,6.8341,6.9972,7.1663,7.1921,7.3484,7.8303,7.8326,7.6858,7.4394,7.4711,7.3105,6.7453,6.6795,6.6795,6.6795,6.6798,0.0,6.6871,0.0,6.6912,6.6914,6.6914,6.6914,6.6914,6.6914,6.6914,6.6914,6.6914,6.6914,6.6914,6.6914,6.6914,6.6914,6.6914,6.6914,6.6914,6.6914,6.6914,6.6914,6.6914,6.6914,6.6914,6.6914,6.6914,6.6914,6.6914,6.6914,6.6914,6.6914,6.6914,6.6914,6.6914,6.6914,6.6914,6.6914,6.6914,6.6914,6.6914,6.6914,6.6914,6.6914,6.6914,6.6914,6.6914,6.6914,6.6914,6.6914,6.6914,6.6914,6.6914,6.6914,6.6914,6.6914,6.6914,6.6914,6.6914,6.6914,6.6914,6.6914,6.6914,6.6914,6.6914,6.6914,6.6914,6.6914,6.6914,6.6914,6.6914,6.6914,6.6914,6.6914,6.6914,6.6914,6.6914,6.6914,6.6914,6.6914,6.6914,6.6914,6.6914,6.6914,6.6914,6.6953,6.6914,6.6914,6.6914,6.6914,6.6914,6.6914,6.6914,6.7225,6.8455,7.0423,7.2456,7.4025,7.4412,7.4852,7.6116,7.4148,7.2006,7.0736,7.0251,6.922,6.7066,6.6795,6.6795,6.6795,6.6805,0.0,0.0,6.6906,6.691,6.6914,6.6914,6.6914,6.6914,6.6914,6.6914,6.6914,6.6914,6.6914,6.6914,6.6914,6.6914,6.6914,6.6914,6.6914,6.6914,6.6914,6.6914,6.6914,6.6914,6.6914,6.6914,6.6914,6.6914,6.6914,6.6914,6.6914,6.6914,6.6914,6.6914,6.6914,6.6914,6.6914,6.6914,6.6914,6.6914,6.6914,6.6914,6.6914,6.6914,6.6914,6.6914,6.6914,6.6914,6.6914,6.6914,6.6914,6.6914,6.6914,6.6914,6.6914,6.6914,6.6914,6.6914,6.6914,6.6914,6.6914,6.6914,6.6914,6.6914,6.6914,6.6914,6.6914,6.6914,6.6914,6.6914,6.6914,6.6914,6.6914,6.6914,6.6914,6.6914,6.6914,6.6914,6.6914,6.6914,6.6914,6.6914,6.6914,6.6914,6.6914,6.6914,6.6874,6.6914,6.6914,6.6914,6.6914,6.6992,6.7255,6.7329,6.7668,6.8873,7.105,7.3013,7.3898,7.4451,7.5216,7.669,7.5452,7.3652,7.176,7.178,7.068,6.7219,6.6795,6.6795,6.6795,6.6807,6.6817,0.0,6.6906,6.6911,6.6914,6.6914,6.6914,6.6914,6.6914,6.6914,6.6914,6.6914,6.6914,6.6914,6.6914,6.6914,6.6914,6.6914,6.6914,6.6914,0.0,6.6914,6.6914,6.6914,6.6914,6.6914,6.6914,6.6914,6.6914,6.6914,6.6914,6.6914,6.6914,6.6914,6.6914,6.6914,6.6914,6.6914,6.6914,6.6914,6.6914,6.6914,6.6914,6.6914,6.6914,6.6914,6.6914,6.6914,6.6914,6.6914,6.6914,6.6914,6.6914,6.6914,6.6914,6.6914,6.6914,6.6914,6.6914,6.6914,6.6914,6.6914,6.6914,6.6914,6.6914,6.6914,6.6914,6.6914,6.6914,6.6914,6.6914,6.6914,6.6914,6.6914,6.6914,6.6914,6.6914,6.6914,6.6914,6.6914,6.6914,6.6914,6.6914,6.6914,6.6914,6.6914,6.6874,6.6914,6.6914,6.6914,6.6914,6.7068,6.776,6.7897,6.8136,6.902,7.0917,7.2501,7.2703,7.3457,7.4956,7.7728,7.8282,7.7265,7.4074,7.4833,7.3509,6.7526,6.6795,6.6798,6.6798,6.6809,6.6856,6.6902,6.6909,6.6912,6.6914,6.6914,6.6914,6.6914,6.6914,6.6914,6.6914,6.6914,6.6914,6.6914,6.6914,6.6914,6.6914,6.6914,6.6914,6.6914,0.0,0.0,6.6914,6.6914,6.6914,6.6914,6.6914,6.6914,6.6914,6.6914,6.6914,6.6914,6.6914,6.6914,6.6914,6.6914,6.6914,6.6914,6.6914,6.6914,6.6914,6.6914,6.6914,6.6914,6.6914,6.6914,6.6914,6.6914,6.6914,6.6914,6.6914,6.6914,6.6914,6.6914,6.6914,6.6914,6.6914,6.6914,6.6914,6.6914,6.6914,6.6914,6.6914,6.6914,6.6914,6.6914,6.6914,6.6914,6.6914,6.6914,6.6914,6.6914,6.6914,6.6914,6.6914,6.6914,6.6914,6.6914,6.6914,6.6914,6.6914,6.6914,6.6914,6.6914,6.6914,6.6914,6.6875,6.6914,6.6914,6.6914,6.6914,6.7068,6.776,6.7897,6.847,7.0477,7.1223,7.1908,7.3176,7.4178,7.4595,7.3886,7.3839,7.3045,7.0536,6.9874,6.8925,6.7045,6.679,6.68,6.6809,6.6857,0.0,0.0,6.6909,6.6912,6.6914,6.6913,6.6911,6.6907,6.6906,6.6906,6.6906,6.6911,6.6912,6.6912,6.6914,6.6914,6.6912,6.6914,6.6914,6.6912,6.6914,0.0,6.6914,6.6914,6.6914,6.6914,6.6914,6.6914,6.6914,6.6914,6.6914,6.6914,6.6914,6.6914,6.6914,6.6914,6.6914,6.6914,6.6914,6.6914,6.6914,6.6914,6.6914,6.6914,6.6914,6.6914,6.6914,6.6914,6.6914,6.6914,6.6914,6.6914,6.6914,6.6914,6.6914,6.6914,6.6914,6.6914,6.6914,6.6914,6.6914,6.6914,6.6914,6.6914,6.6914,6.6914,6.6914,6.6914,6.6914,6.6914,6.6914,6.6914,6.6914,6.6914,6.6914,6.6914,6.6914,6.6914,6.6914,6.6914,6.6914,6.6914,6.6914,6.6914,6.6914,6.6914,6.6914,6.6914,6.6914,6.6914,6.6914,6.7183,6.8202,6.8427,6.8929,7.0711,7.1448,7.1863,7.2134,7.3331,7.4036,7.3314,7.2589,7.1746,7.0667,6.9119,6.7766,6.6889,6.6792,6.6805,6.6805,6.6857,6.6901,6.6857,6.6865,6.6909,6.6911,6.6909,6.6906,6.6904,6.6904,6.6904,6.6904,6.6906,6.6908,6.6908,6.691,6.691,6.6908,6.691,6.691,6.6908,6.691,0.0,6.6913,6.6913,6.6914,6.6914,6.6914,6.6914,6.6914,6.6914,6.6914,6.6914,6.6914,6.6914,6.6914,6.6914,6.6914,6.6914,6.6914,6.6914,6.6914,6.6914,6.6914,6.6914,6.6914,6.6914,6.6914,6.6914,6.6914,6.6914,6.6914,6.6914,6.6914,6.6914,6.6914,6.6914,6.6914,6.6914,6.6914,6.6914,6.6914,6.6914,6.6914,6.6914,6.6914,6.6914,6.6914,6.6914,6.6914,6.6914,6.6914,6.6914,6.6914,6.6914,6.6914,6.6914,6.6914,6.6914,6.6914,6.6914,6.6914,6.6914,6.6914,6.6914,6.6914,6.6914,6.6953,6.6914,6.6914,6.6914,6.6914,6.7217,6.8349,6.8779,6.9243,7.0414,7.1475,7.1975,7.1283,7.2802,7.4089,7.3997,7.3302,7.2517,7.1707,7.0002,6.8331,6.697,6.6798,6.6807,6.6805,6.6856,0.0,6.6813,6.6856,0.0,6.6862,6.6862,6.686,6.6898,6.6898,6.6898,6.6898,6.686,6.6862,6.6862,6.6902,6.6902,6.6862,6.6902,6.6902,6.6862,6.6902,0.0,0.0,6.691,6.6912,6.6914,6.6914,6.6914,6.6914,6.6914,6.6914,6.6914,6.6914,6.6914,6.6914,6.6914,6.6914,6.6914,6.6914,6.6914,6.6914,6.6914,6.6914,6.6914,6.6914,6.6914,6.6914,6.6914,6.6914,6.6914,6.6914,6.6914,6.6914,6.6914,6.6914,6.6914,6.6914,6.6914,6.6914,6.6914,6.6914,6.6914,6.6914,6.6914,6.6914,6.6914,6.6914,6.6914,6.6914,6.6914,6.6914,6.6914,6.6914,6.6914,6.6914,6.6914,6.6914,6.6914,6.6914,6.6914,6.6914,6.6914,6.6914,6.6914,6.6914,6.6914,6.7068,6.6914,6.6914,6.6914,6.6914,6.7023,6.7581,6.8313,6.9056,6.9682,7.1091,7.2168,7.2091,7.4105,7.5562,7.4976,7.6018,7.5697,7.2112,7.1414,7.0175,6.7175,6.6798,6.6807,6.686,6.6856,6.6813,6.6811,0.0,0.0,6.6813,6.6813,6.6809,6.68,6.68,6.68,6.68,6.6809,6.6813,6.6813,6.686,6.686,6.6813,6.686,6.686,6.6813,6.686,0.0,0.0,6.6904,6.6908,6.6912,6.6912,6.6913,6.6914,6.6914,6.6914,6.6914,6.6914,6.6914,6.6914,6.6914,6.6914,6.6914,6.6914,6.6914,6.6914,6.6914,6.6914,6.6914,6.6914,6.6914,6.6914,6.6914,6.6914,6.6914,6.6914,6.6914,6.6914,6.6914,6.6914,6.6914,6.6914,6.6914,6.6914,6.6914,6.6914,6.6914,6.6914,6.6914,6.6914,6.6914,6.6914,6.6914,6.6914,6.6914,6.6914,6.6914,6.6914,6.6914,6.6914,6.6914,6.6914,6.6914,6.6914,6.6914,6.6914,6.6914,6.6914,6.6914,6.6914,6.6914,6.6951,6.6914,6.6914,6.6914,6.7181,6.7529,6.7597,6.8575,6.9702,7.0298,7.0937,7.1745,7.2783,7.3822,7.4928,7.6167,7.6121,7.5746,7.5238,7.2694,7.0401,6.9104,6.7666,6.6807,6.6848,6.6811,6.6809,6.6802,0.0,0.0,6.6802,6.6802,6.68,6.6798,6.6795,6.6795,6.6795,6.68,6.6802,6.6802,6.6846,6.6846,6.6802,6.6846,6.6846,6.6802,6.6848,0.0,0.0,6.6857,6.6862,6.6907,6.691,6.6912,6.6913,6.6914,6.6914,6.6914,6.6914,6.6914,6.6914,6.6914,6.6914,6.6914,6.6914,6.6914,6.6914,6.6914,6.6914,6.6914,6.6914,6.6914,6.6914,6.6914,6.6914,6.6914,6.6914,6.6914,6.6914,6.6914,6.6914,6.6914,6.6914,6.6914,6.6914,6.6914,6.6914,6.6914,6.6914,6.6914,6.6914,6.6914,6.6914,6.6914,6.6914,6.6914,6.6914,6.6914,6.6914,6.6914,6.6914,6.6914,6.6914,6.6914,6.6914,6.6914,6.6914,6.6914,6.6914,6.6914,6.6914,6.6914,6.6821,6.6834,6.6914,6.6914,6.7404,6.7794,6.7352,6.8627,7.0032,7.0465,7.0937,7.1822,7.3553,7.386,7.463,7.6899,7.6745,7.6636,7.7396,7.5041,7.299,7.2273,7.0687,6.928,6.8327,6.7378,6.6805,6.6798,0.0,0.0,6.6795,6.6795,6.6795,6.6795,6.6795,6.6795,6.6795,6.6795,6.6795,6.6795,6.6795,6.6795,6.6795,6.6795,6.6795,6.6795,0.0,0.0,0.0,6.6807,6.6813,6.6862,6.6907,6.691,6.6911,6.6914,6.6914,6.6914,6.6914,6.6914,6.6914,6.6914,6.6914,6.6914,6.6914,6.6914,6.6914,6.6914,6.6914,6.6914,6.6914,6.6914,6.6914,6.6914,6.6914,6.6914,6.6914,6.6914,6.6914,6.6914,6.6914,6.6914,6.6914,6.6914,6.6914,6.6914,6.6914,6.6914,6.6914,6.6914,6.6914,6.6914,6.6914,6.6914,6.6914,6.6914,6.6914,6.6914,6.6914,6.6914,6.6914,6.6914,6.6914,6.6914,6.6914,6.6914,6.6914,6.6914,6.6914,6.6914,6.6914,6.6914,6.6787,6.6742,6.6914,6.6914,6.7404,6.7641,6.6657,6.82,6.9839,6.9733,7.1014,7.2706,7.4399,7.4707,7.5245,7.7015,7.8669,7.922,7.7704,7.8889,7.9037,7.6719,7.6399,7.515,7.1961,6.8706,6.6798,0.0,0.0,0.0,6.6795,6.6795,6.6795,6.6795,6.6795,6.6795,6.6795,6.6795,6.6795,6.6795,6.6795,6.6795,6.6795,6.6795,6.6795,0.0,0.0,0.0,0.0,6.6798,6.6802,6.6813,6.686,6.6907,6.6911,6.6914,6.6914,6.6914,6.6914,6.6914,6.6914,6.6914,6.6914,6.6914,6.6914,6.6914,6.6914,6.6914,6.6914,6.6914,6.6914,6.6914,6.6914,6.6914,6.6914,6.6914,6.6914,6.6914,6.6914,6.6914,6.6914,6.6914,6.6914,6.6914,6.6914,6.6914,6.6914,6.6914,6.6914,6.6914,6.6914,6.6914,6.6914,6.6914,6.6914,6.6914,6.6914,6.6914,6.6914,6.6914,6.6914,6.6914,6.6914,6.6914,6.6914,6.6914,6.6914,6.6914,6.6914,6.6914,6.6914,6.6914,6.6495,6.6493,6.656,6.656,6.7079,6.7464,6.7166,6.8457,7.0093,7.1195,7.1822,7.2899,7.5168,7.5091,7.5668,7.8554,7.9438,8.0238,8.1484,7.881,7.6438,7.5701,7.2212,6.9454,6.844,0.0,6.6795,0.0,0.0,0.0,6.6795,6.6795,6.6795,6.6795,6.6795,6.6795,6.6795,6.6795,6.6795,6.6795,6.6795,6.6795,6.6795,6.6795,0.0,0.0,0.0,0.0,0.0,6.6795,6.6798,6.6802,6.6813,6.686,6.6907,6.6911,6.6914,6.6914,6.6914,6.6914,6.6914,6.6914,6.6914,6.6914,6.6914,6.6914,6.6914,6.6914,6.6914,6.6914,6.6914,6.6914,6.6914,6.6914,6.6914,6.6914,6.6914,6.6914,6.6914,6.6914,6.6914,6.6914,6.6914,6.6914,6.6914,6.6914,6.6914,6.6914,6.6914,6.6914,6.6914,6.6914,6.6914,6.6914,6.6914,6.6914,6.6914,6.6914,6.6914,6.6914,6.6914,6.6914,6.6914,6.6914,6.6914,6.6914,6.6914,6.6914,6.6914,6.6914,6.6914,6.6914,6.6228,6.6334,6.6387,6.6387,6.7129,6.7765,6.7465,6.8826,7.0552,7.1898,7.1937,7.2591,7.5476,7.5053,7.5284,7.8361,7.9092,7.9777,8.1113,7.8578,7.6341,7.575,7.1497,6.866,0.0,6.752,0.0,0.0,0.0,0.0,6.6795,6.6795,6.6795,6.6795,6.6795,6.6795,6.6795,6.6795,6.6795,6.6795,6.6795,6.6795,6.6795,6.6795,0.0,0.0,0.0,0.0,0.0,6.6795,6.6795,6.6798,6.6809,6.6815,6.686,6.6909,6.6912,6.6914,6.6914,6.6914,6.6914,6.6914,6.6914,6.6914,6.6914,6.6914,6.6914,6.6914,6.6914,6.6914,6.6914,6.6914,6.6914,6.6914,6.6914,6.6914,6.6914,6.6914,6.6914,6.6914,6.6914,6.6914,6.6914,6.6914,6.6914,6.6914,6.6914,6.6914,6.6914,6.6914,6.6914,6.6914,6.6914,6.6914,6.6914,6.6914,6.6914,6.6914,6.6914,6.6914,6.6914,6.6914,6.6914,6.6914,6.6914,6.6914,6.6914,6.6914,6.6914,6.6914,6.6914,6.6914,0.0,6.6243,6.6464,6.6464,6.7515,6.8421,6.7696,6.9266,0.0,7.2014,7.1591,7.2091,7.5399,7.4745,7.4514,7.7053,7.8169,7.8426,7.7704,7.7986,7.7744,7.6255,7.3299,7.1405,7.1587,6.8699,0.0,0.0,0.0,0.0,6.6795,6.6795,6.6795,6.6795,6.6795,6.6795,6.6795,6.6795,6.6795,6.6795,6.6795,6.6795,6.6795,6.6795,0.0,0.0,0.0,0.0,0.0,6.6795,6.6795,6.6798,6.6807,6.6811,6.6815,6.6868,6.6911,6.6912,6.6914,6.6914,6.6914,6.6914,6.6914,6.6914,6.6914,6.6914,6.6914,6.6914,6.6914,6.6914,6.6914,6.6914,6.6914,6.6914,6.6914,6.6914,6.6914,6.6914,6.6914,6.6914,6.6914,6.6914,6.6914,6.6914,6.6914,6.6914,6.6914,6.6914,6.6914,6.6914,6.6914,6.6914,6.6914,6.6914,6.6914,6.6914,6.6914,6.6914,6.6914,6.6914,6.6914,6.6914,6.6914,6.6914,6.6914,6.6914,6.6914,6.6914,6.6914,6.6914,6.6914,6.6914,6.5958,0.0,6.6935,6.6935,6.7687,6.859,0.0,6.9605,7.0398,7.1898,7.2552,7.3553,7.563,7.5668,7.6245,7.8784,7.9939,8.0029,7.867,7.5537,7.2974,7.1958,6.9553,6.8691,7.0514,6.8347,0.0,0.0,0.0,6.6795,6.6795,6.6795,6.6795,6.6795,6.6795,6.6795,6.6795,6.6795,6.6795,6.6795,6.6795,6.6795,6.6795,6.6795,0.0,0.0,0.0,0.0,6.6795,6.6795,6.6795,6.6798,6.68,6.6805,6.6813,6.6817,6.6866,6.6911,6.6912,6.6913,6.6914,6.6914,6.6914,6.6914,6.6914,6.6914,6.6914,6.6914,6.6914,6.6914,6.6914,6.6914,6.6914,6.6914,6.6914,6.6914,6.6914,6.6914,6.6914,6.6914,6.6914,6.6914,6.6914,6.6914,6.6914,6.6914,6.6914,6.6914,6.6914,6.6914,6.6914,6.6914,6.6914,6.6914,6.6914,6.6914,6.6914,6.6914,6.6914,6.6914,6.6914,6.6914,6.6914,6.6914,6.6914,6.6914,6.6914,6.6914,6.6914,6.6914,6.6914,6.6914,6.5897,6.7051,6.8359,6.8744,6.9513,7.036,7.1245,7.0821,7.0629,7.1937,7.2591,7.3437,7.5091,7.5148,7.5971,7.9246,7.8661,7.7653,7.7202,7.4933,7.2716,7.1192,6.947,6.8531,0.0,0.0,0.0,0.0,0.0,6.6787,6.6787,6.6817,6.6814,6.6814,6.6781,6.679,6.6795,6.6795,6.6795,6.6795,6.6795,6.6795,6.6795,6.6795,6.6795,0.0,0.0,0.0,6.6795,6.6795,6.6795,6.6795,6.6795,6.68,6.6805,6.6811,6.6821,6.6908,6.6911,6.6913,6.6914,6.6914,6.6914,6.6914,6.6914,6.6914,6.6914,6.6914,6.6914,6.6914,6.6914,6.6914,6.6914,6.6914,6.6914,6.6914,6.6914,6.6914,6.6914,6.6914,6.6914,6.6914,6.6914,6.6914,6.6914,6.6914,6.6914,6.6914,6.6914,6.6914,6.6914,6.6914,6.6914,6.6914,6.6914,6.6914,6.6914,6.6914,6.6914,6.6914,6.6914,6.6914,6.6914,6.6914,6.6914,6.6914,6.6914,6.6914,6.6914,6.6914,6.6914,6.6914,6.6359,6.8078,6.99,7.0566,7.1745,7.2899,7.3399,7.236,7.1514,7.2245,7.2514,7.3028,7.4466,7.4511,7.5501,7.906,7.6403,7.4073,7.4593,7.4248,7.3333,7.1686,7.0514,0.0,0.0,0.0,0.0,0.0,0.0,6.6808,6.6808,6.6794,6.6783,6.6783,6.6801,6.6817,6.6792,6.6795,6.6795,6.6795,6.6795,6.6795,6.6795,6.6795,6.6795,0.0,0.0,0.0,6.6795,6.6795,6.6795,6.6795,6.6795,6.6795,6.6798,6.6807,6.6856,6.6902,6.691,6.6913,6.6914,6.6914,6.6914,6.6914,6.6914,6.6914,6.6914,6.6914,6.6914,6.6914,6.6914,6.6914,6.6914,6.6914,6.6914,6.6914,6.6914,6.6914,6.6914,6.6914,6.6914,6.6914,6.6914,6.6914,6.6914,6.6914,6.6914,6.6914,6.6914,6.6914,6.6914,6.6914,6.6914,6.6914,6.6914,6.6914,6.6914,6.6914,6.6914,6.6914,6.6914,6.6914,6.6914,6.6914,6.6914,6.6914,6.6914,6.6914,6.6914,6.6914,6.6914,6.6914,6.8513,6.9489,6.9871,6.9861,7.2668,7.5091,7.3783,7.3283,7.3129,7.3283,7.386,7.4442,7.4782,7.6461,7.8012,7.8753,7.6057,7.3523,7.2393,6.9821,6.8717,7.0401,0.0,0.0,0.0,0.0,0.0,0.0,0.0,0.0,6.6787,6.6783,6.6783,6.6783,6.6787,6.6798,6.6814,6.679,6.6795,6.6795,6.6795,6.6795,6.6795,6.6795,6.6795,0.0,0.0,6.6795,6.6795,6.6795,6.6795,6.6795,6.6795,6.6795,6.6798,6.6798,6.6805,6.6817,6.6869,6.6913,6.6914,6.6914,6.6914,6.6914,6.6914,6.6914,6.6914,6.6914,6.6914,6.6914,6.6914,6.6914,6.6914,6.6914,6.6914,6.6914,6.6914,6.6914,6.6914,6.6914,6.6914,6.6914,6.6914,6.6914,6.6914,6.6914,6.6914,6.6914,6.6914,6.6914,6.6914,6.6914,6.6914,6.6914,6.6914,6.6914,6.6914,6.6914,6.6914,6.6914,6.6914,6.6914,6.6914,6.6914,6.6914,6.6914,6.6914,6.6914,6.6914,6.6914,6.6914,6.6914,6.7321,6.9695,7.1377,6.9552,7.1309,7.3439,7.313,7.2004,7.1374,7.2635,7.3562,7.4295,7.481,7.5491,7.5306,7.3267,7.4255,7.4472,7.203,7.1485,7.1271,0.0,0.0,0.0,0.0,0.0,0.0,0.0,0.0,0.0,6.6767,0.0,6.6746,6.6746,6.6759,6.6732,6.674,6.6772,6.679,6.6795,6.6795,6.6795,6.6795,6.6795,6.6795,6.6795,0.0,6.6795,6.6795,6.6795,6.6795,6.6795,6.6795,6.6795,6.6798,6.6802,6.6807,6.6815,6.6869,6.6912,6.6913,6.6914,6.6914,6.6914,6.6914,6.6914,6.6914,6.6914,6.6914,6.6914,6.6914,6.6914,6.6914,6.6914,6.6914,6.6914,6.6914,6.6914,6.6914,6.6914,6.6914,6.6914,6.6914,6.6914,6.6914,6.6914,6.6914,6.6914,6.6914,6.6914,6.6914,6.6914,6.6914,6.6914,6.6914,6.6914,6.6914,6.6914,6.6914,6.6914,6.6914,6.6914,6.6914,6.6914,6.6914,6.6914,6.6914,6.6914,6.6914,6.6914,6.6914,6.6914,6.6628,6.9348,7.1583,6.9648,7.1126,7.2936,7.2502,7.1173,7.0409,7.1866,7.2695,7.3474,7.4461,7.4518,7.3326,6.9928,7.2733,7.425,7.1021,7.2093,7.2539,0.0,0.0,0.0,0.0,0.0,0.0,0.0,0.0,0.0,6.6702,6.6683,6.6712,6.6712,6.6693,6.6702,6.6711,6.6744,6.6772,6.6792,6.6795,6.6795,6.6795,6.6795,6.6795,6.6795,6.6795,6.6795,6.6795,6.6795,6.6795,6.6795,6.6795,6.6795,6.6798,6.6805,6.6809,6.6815,6.6867,6.6911,6.6912,6.6914,6.6914,6.6914,6.6914,6.6914,6.6914,6.6914,6.6914,6.6914,6.6914,6.6914,6.6914,6.6914,6.6914,6.6914,6.6914,6.6914,6.6914,6.6914,6.6914,6.6914,6.6914,6.6914,6.6914,6.6914,6.6914,6.6914,6.6914,6.6914,6.6914,6.6914,6.6914,6.6914,6.6914,6.6914,6.6914,6.6914,6.6914,6.6914,6.6914,6.6914,6.6914,6.6914,6.6914,6.6914,6.6914,6.6914,6.6914,6.6914,6.6914,6.6914,6.8783,6.8602,6.8281,7.0405,7.4487,7.6864,7.2489,7.2474,7.2987,7.1735,7.1533,7.2055,7.3579,7.5161,7.5622,7.376,7.2655,7.0909,6.7614,0.0,0.0,0.0,0.0,0.0,0.0,0.0,0.0,0.0,0.0,0.0,6.6712,6.6712,0.0,6.6712,6.6712,6.6688,6.6711,6.6716,6.6736,6.6814,6.679,6.6795,6.6795,6.6795,6.6795,6.6795,6.6795,6.6795,6.6795,6.6795,6.6795,6.6795,6.6795,6.6795,6.6795,6.6798,6.6805,6.6813,6.6862,6.6907,6.6912,6.6914,6.6914,6.6914,6.6914,6.6914,6.6914,6.6914,6.6914,6.6914,6.6914,6.6914,6.6914,6.6914,6.6914,6.6914,6.6914,6.6914,6.6914,6.6914,6.6914,6.6914,6.6914,6.6914,6.6914,6.6914,6.6914,6.6914,6.6914,6.6914,6.6914,6.6914,6.6914,6.6914,6.6914,6.6914,6.6914,6.6914,6.6914,6.6914,6.6914,6.6914,6.6914,6.6914,6.6914,6.6914,6.6914,6.6914,6.6914,6.6914,6.6914,6.6914,6.709,6.7704,6.8324,6.9285,7.2919,7.5028,7.0248,7.0036,7.1383,7.3375,7.215,7.1206,7.2763,7.1995,7.1062,7.0929,6.964,6.8206,6.6964,0.0,0.0,0.0,0.0,0.0,0.0,0.0,0.0,0.0,0.0,0.0,0.0,6.6712,0.0,6.6712,6.6712,6.6717,6.6688,6.6702,6.672,6.6736,6.6769,6.6781,6.6781,6.6792,6.6795,6.6795,6.6795,6.6795,6.6795,6.6795,6.6795,6.6795,6.6795,6.6795,6.6795,6.6795,6.68,6.6805,6.6815,6.6862,6.6908,6.6912,6.6914,6.6914,6.6914,6.6914,6.6914,6.6914,6.6914,6.6914,6.6914,6.6914,6.6914,6.6914,6.6914,6.6914,6.6914,6.6914,6.6914,6.6914,6.6914,6.6914,6.6914,6.6914,6.6914,6.6914,6.6914,6.6914,6.6914,6.6914,6.6914,6.6914,6.6914,6.6914,6.6914,6.6914,6.6914,6.6914,6.6914,6.6914,6.6914,6.6914,6.6914,6.6914,6.6914,6.6914,6.6914,6.6914,6.6914,6.6914,6.6914,6.6914,6.5935,6.7241,6.8521,6.8259,7.0951,7.2633,6.8635,6.8987,7.065,7.2185,7.1287,7.051,7.1271,6.9888,6.8715,0.0,6.7764,6.6779,0.0,0.0,0.0,0.0,0.0,0.0,0.0,0.0,0.0,0.0,0.0,0.0,0.0,6.6707,0.0,0.0,6.6712,6.6712,6.6712,6.6688,6.6697,6.6697,6.674,6.6798,6.6805,6.6817,6.6781,6.6781,6.6787,6.679,6.679,6.6795,6.6795,6.6795,6.6795,6.6795,6.6795,6.6795,6.6795,6.6798,6.6809,6.6817,6.6862,6.6907,6.6912,6.6914,6.6914,6.6914,6.6914,6.6914,6.6914,6.6914,6.6914,6.6914,6.6914,6.6914,6.6914,6.6914,6.6914,6.6914,6.6914,6.6914,6.6914,6.6914,6.6914,6.6914,6.6914,6.6914,6.6914,6.6914,6.6914,6.6914,6.6914,6.6914,6.6914,6.6914,6.6914,6.6914,6.6914,6.6914,6.6914,6.6914,6.6914,6.6914,6.6914,6.6914,6.6914,6.6914,6.6914,6.6914,6.6914,6.6914,6.6914,6.6914,6.602,6.7278,6.8366,6.7506,6.9167,7.0374,6.8034,7.0117,7.1426,6.7436,6.8536,6.995,6.9067,6.9597,6.9911,6.915,6.772,6.6711,0.0,0.0,0.0,0.0,0.0,0.0,0.0,0.0,0.0,0.0,0.0,0.0,0.0,6.6696,0.0,0.0,6.6707,6.6712,6.6712,6.6712,6.6712,6.6712,6.6697,6.6724,6.6783,6.6783,6.6783,6.6783,6.6805,6.6811,6.6814,6.679,6.6795,6.6795,6.6795,6.6795,6.6795,6.6795,6.6795,6.6798,6.6809,6.6811,6.6813,6.6862,6.6907,6.6911,6.6911,6.6913,6.6914,6.6914,6.6914,6.6914,6.6914,6.6914,6.6914,6.6914,6.6914,6.6914,6.6914,6.6914,6.6914,6.6914,6.6914,6.6914,6.6914,6.6914,6.6914,6.6914,6.6914,6.6914,6.6914,6.6914,6.6914,6.6914,6.6914,6.6914,6.6914,6.6914,6.6914,6.6914,6.6914,6.6914,6.6914,6.6914,6.6914,6.6914,6.6914,6.6914,6.6914,6.6914,6.6914,6.6914,6.6914,6.6914,6.6243,6.6391,6.705,6.7933,6.9227,6.9938,6.865,6.9157,6.9276,6.7014,6.8885,7.0553,6.9159,6.8191,0.0,6.8839,0.0,0.0,0.0,0.0,0.0,0.0,0.0,0.0,0.0,0.0,0.0,0.0,0.0,0.0,0.0,6.6669,0.0,0.0,6.6702,6.6712,6.6712,6.6712,6.6712,6.6712,6.6717,6.6697,6.672,6.6775,6.6783,6.6783,6.6791,6.6791,6.6794,6.6798,6.6801,6.6801,6.6801,6.6808,6.6781,6.6781,6.6787,6.6798,6.68,6.6807,6.6813,6.6815,6.686,6.6906,6.6906,6.6907,6.6909,6.6912,6.6912,6.6913,6.6914,6.6914,6.6914,6.6914,6.6914,6.6914,6.6914,6.6914,6.6914,6.6914,6.6914,6.6914,6.6914,6.6914,6.6914,6.6914,6.6914,6.6914,6.6914,6.6914,6.6914,6.6914,6.6914,6.6914,6.6914,6.6914,6.6914,6.6914,6.6914,6.6914,6.6914,6.6914,6.6914,6.6914,6.6914,6.6914,6.6914,6.6914,6.6914,6.6914,6.6914,6.6914,6.6355,6.6514,6.7161,6.7467,6.8247,6.869,6.784,6.7753,6.759,6.6639,6.7986,6.9042,6.8103,6.7118,0.0,6.7789,0.0,0.0,0.0,0.0,0.0,0.0,0.0,0.0,0.0,0.0,0.0,0.0,0.0,0.0,0.0,6.6633,0.0,0.0,6.6686,6.6702,6.6707,6.6712,6.6712,6.6712,6.6712,6.6717,6.6697,6.675,6.6755,6.6759,6.6767,6.6775,6.6783,6.6783,6.6783,6.6783,6.6783,6.6791,6.6801,6.6801,6.6808,6.6817,6.6784,6.6792,6.68,6.6805,6.6813,6.6859,6.6859,6.6862,6.6904,6.6908,6.6909,6.6909,6.6912,6.6912,6.6913,6.6914,6.6914,6.6914,6.6914,6.6914,6.6914,6.6914,6.6914,6.6914,6.6914,6.6914,6.6914,6.6914,6.6914,6.6914,6.6914,6.6914,6.6914,6.6914,6.6914,6.6914,6.6914,6.6914,6.6914,6.6914,6.6914,6.6914,6.6914,6.6914,6.6914,6.6914,6.6914,6.6914,6.6914,6.6914,6.6914,6.6914,6.6914,6.6914,6.6212,6.7123,6.7984,6.635,6.6576,6.6966,6.6144,6.6165,6.6349,6.6349,6.6358,6.6358,6.6358,6.6367,6.6385,0.0,0.0,0.0,0.0,0.0,0.0,0.0,0.0,0.0,0.0,0.0,0.0,0.0,0.0,0.0,0.0,6.6601,0.0,6.6702,6.6708,6.6686,6.6707,6.6707,6.6712,0.0,6.6712,6.6712,6.6712,6.6712,6.6712,6.6712,6.6697,6.672,6.6779,6.6779,6.6779,6.6779,6.6779,6.6779,6.6779,6.6779,6.6783,6.6787,6.6805,6.6808,6.6811,6.6787,6.68,6.6807,6.6807,6.6854,6.69,6.69,6.6901,6.6901,6.6902,6.6902,6.6906,6.6913,6.6914,6.6914,6.6914,6.6914,6.6914,6.6914,6.6914,6.6914,6.6914,6.6914,6.6914,6.6914,6.6914,6.6914,6.6914,6.6914,6.6914,6.6914,6.6914,6.6914,6.6914,6.6914,6.6914,6.6914,6.6914,6.6914,6.6914,6.6914,6.6914,6.6914,6.6914,6.6914,6.6914,6.6914,6.6914,6.6914,6.6914,6.6914,6.5269,6.5688,6.6322,6.5246,6.5608,6.6124,6.5909,6.5907,6.5978,6.6069,6.6091,6.6102,6.6144,6.6195,6.6274,0.0,0.0,0.0,0.0,0.0,0.0,0.0,0.0,0.0,0.0,0.0,0.0,0.0,0.0,0.0,6.6516,6.656,0.0,6.6633,6.6684,6.6713,6.668,6.6702,6.6712,0.0,6.6712,6.6712,6.6712,6.6712,6.6712,6.6712,6.6717,6.6722,6.6727,6.6727,6.6727,6.6727,6.6727,6.6702,6.672,6.672,6.6767,6.6783,6.6787,6.6791,6.6791,6.6794,6.6798,6.6801,6.6801,6.6805,6.6811,6.6823,6.6834,6.6807,6.6815,6.686,6.6904,6.6907,6.6907,6.6907,6.6907,6.6907,6.6907,6.6907,6.6907,6.6907,6.6907,6.6907,6.6909,6.6912,6.6912,6.6913,6.6914,6.6914,6.6914,6.6914,6.6914,6.6914,6.6914,6.6914,6.6914,6.6914,6.6914,6.6914,6.6914,6.6914,6.6914,6.6914,6.6914,6.6914,6.6914,6.6914,6.6914,6.6914,6.6914,6.6914,6.4423,6.4883,6.5639,6.4794,6.4885,6.5269,6.5615,6.5717,6.573,6.5808,6.5895,6.599,6.6047,6.608,6.6112,0.0,0.0,0.0,0.0,0.0,0.0,0.0,0.0,0.0,0.0,0.0,0.0,0.0,0.0,6.6428,6.6445,6.6469,6.6501,6.6538,6.6581,6.6614,6.6651,6.6663,6.663,6.663,6.6686,6.6696,6.6712,6.6712,6.6712,6.6712,6.6712,6.6712,6.6712,6.6712,6.6712,6.6712,6.6712,6.6717,6.6693,6.6693,6.6741,6.675,6.6763,6.6767,6.6767,6.6779,6.6783,6.6783,6.6783,6.6783,6.6787,6.6794,6.6805,6.6814,6.6784,6.6832,6.6834,6.6834,6.6891,6.6904,6.6904,6.6904,6.6904,6.6904,6.6904,6.6904,6.6904,6.6904,6.6905,6.6907,6.6908,6.691,6.6913,6.6913,6.6914,6.6914,6.6914,6.6914,6.6914,6.6914,6.6914,6.6914,6.6914,6.6914,6.6914,6.6914,6.6914,6.6914,6.6914,6.6914,6.6914,6.6914,6.6914,6.6914,6.6914,6.6914,6.3397,6.4052,6.4922,6.4512,6.4266,6.4326,6.514,6.5178,6.5102,6.5116,6.5499,6.5883,6.5931,6.5955,0.0,0.0,0.0,0.0,0.0,0.0,0.0,0.0,0.0,0.0,0.0,0.0,0.0,0.0,0.0,6.6349,6.6367,6.6367,6.6411,6.6485,6.6493,6.6492,6.6555,6.6562,6.6569,6.6575,6.6651,6.668,6.6702,6.6702,6.6707,6.6712,6.6712,6.6712,6.6712,6.6712,6.6712,6.6712,6.6712,6.6712,6.6712,6.6712,6.6712,6.6712,6.6697,6.6702,6.6707,6.6767,6.6771,6.6767,6.6767,6.6763,6.6763,6.6763,6.6763,6.6767,6.6767,6.6771,6.6771,6.6771,6.682,6.6852,6.6895,6.6895,6.6895,6.6895,6.6895,6.6895,6.6896,6.6898,6.6898,6.6862,6.6862,6.6904,6.6911,6.6911,6.6912,6.6914,6.6914,6.6914,6.6914,6.6914,6.6914,6.6914,6.6914,6.6914,6.6914,6.6914,6.6914,6.6914,6.6914,6.6914,6.6914,6.6914,6.6914,6.6914,6.6914,6.6914,6.181,6.2103,6.2522,6.3756,6.352,6.3199,6.3962,6.3603,6.3101,6.3176,6.4513,6.5649,6.5663,6.5717,0.0,0.0,0.0,0.0,0.0,0.0,0.0,0.0,0.0,0.0,0.0,0.0,0.0,0.0,6.6134,6.6175,6.6312,6.6312,6.634,6.6403,6.6398,6.6414,6.6431,6.647,6.65,6.6496,6.6575,6.6645,6.6719,6.6719,6.6691,6.6712,6.6712,6.6712,6.6712,6.6712,6.6712,6.6712,6.6712,6.6712,6.6712,6.6712,6.6712,6.6712,6.6712,6.6717,6.6717,6.6717,6.6707,6.673,6.673,6.6669,6.6651,6.6651,6.663,6.6613,6.6613,6.6668,6.6722,6.6722,6.6732,6.6755,6.6791,6.6798,6.6798,6.6798,6.6798,6.6805,6.682,6.682,6.679,6.6811,6.6813,6.682,6.6871,6.6911,6.6912,6.6914,6.6914,6.6914,6.6914,6.6914,6.6914,6.6914,6.6914,6.6914,6.6914,6.6914,6.6914,6.6914,6.6914,6.6914,6.6914,6.6914,6.6914,6.6914,6.6914,6.6914,6.0714,6.0919,6.1339,6.2856,6.2597,6.2368,6.3616,6.3274,6.2718,6.2749,6.3757,6.4688,6.4738,0.0,0.0,0.0,0.0,0.0,0.0,0.0,0.0,0.0,0.0,0.0,0.0,0.0,0.0,0.0,6.6001,6.6036,6.6123,6.6123,6.6155,6.6215,6.6235,6.6254,6.6283,6.6338,6.6398,6.6423,6.6477,6.6521,6.6575,6.6575,6.6612,6.6712,6.6712,6.6712,6.6712,6.6712,6.6712,6.6712,6.6712,6.6712,6.6712,6.6712,6.6712,6.6712,6.6712,6.6712,6.6712,6.6712,6.6691,6.6713,6.6713,6.6651,6.6581,6.6581,6.6594,6.6606,6.6606,6.6612,6.6624,6.6624,6.6624,6.663,6.6696,6.6727,6.6746,6.6746,6.6755,6.6728,6.674,6.6798,6.6817,6.679,6.6798,6.6809,6.6823,6.6824,6.6867,6.6912,6.6913,6.6914,6.6914,6.6914,6.6914,6.6914,6.6914,6.6914,6.6914,6.6914,6.6914,6.6914,6.6914,6.6914,6.6913,6.6913,6.6912,6.6911,6.6911,6.6911,5.9774,6.0185,6.0719,6.2161,6.1923,6.1695,6.3106,6.2651,6.1929,0.0,6.2575,6.3215,6.3534,0.0,0.0,0.0,0.0,0.0,0.0,0.0,0.0,0.0,0.0,0.0,0.0,0.0,0.0,0.0,6.5807,6.5832,6.5931,6.5931,6.5967,6.6036,6.6036,6.6058,6.6123,6.6195,6.6264,6.6329,6.6346,6.6359,6.6446,6.6446,6.6503,6.6669,6.6691,6.6702,6.6702,6.6707,6.6707,6.6702,6.6707,6.6707,6.6702,6.6702,6.6707,6.6707,6.6696,6.6696,6.6702,6.6691,6.6669,6.6684,6.6684,6.6627,6.6555,6.6555,6.6555,6.6555,6.6555,6.6555,6.6555,6.6555,6.6555,6.6562,6.662,6.6657,6.6691,6.6691,6.6673,6.6693,6.6697,6.6736,6.6762,6.6811,6.6784,6.6798,6.6811,6.6811,6.6818,6.6909,6.6911,6.6912,6.6914,6.6914,6.6914,6.6914,6.6914,6.6914,6.6914,6.6914,6.6914,6.6914,6.6914,6.6913,6.6911,6.691,6.6908,6.6904,6.7099,6.7216,5.8859,5.9684,6.0654,6.2075,6.1759,6.1309,6.2045,6.0934,5.9746,5.9746,6.0443,6.1274,6.2047,0.0,0.0,0.0,0.0,0.0,0.0,0.0,0.0,0.0,0.0,0.0,0.0,0.0,0.0,0.0,6.5622,6.5649,6.573,6.573,6.5756,6.5795,6.5833,6.5832,6.5893,6.6058,6.6112,6.6112,6.6175,6.6254,6.6316,6.6316,6.6367,6.6524,6.6633,6.6713,6.6713,6.6702,6.6696,6.6713,6.6702,6.6696,6.6713,6.6713,6.6691,6.6702,6.6645,6.6651,6.6708,6.6639,6.6601,6.6613,6.6613,6.6546,6.6516,6.6516,6.6516,6.6516,6.6516,6.6516,6.6516,6.6516,6.6516,6.6538,6.6607,6.6588,6.6627,6.6627,6.6657,6.6686,6.6707,6.6697,6.6728,6.6808,6.6811,6.6784,6.6809,6.6811,6.6817,6.6902,6.6909,6.6911,6.6911,6.6914,6.6914,6.6914,6.6914,6.6914,6.6914,6.6914,6.6914,6.6914,6.6913,6.6911,6.6911,6.6907,6.6904,6.6904,6.7685,6.8036,5.7829,5.8806,5.9831,6.1368,6.1029,6.0513,6.1296,6.0495,5.9616,5.9616,6.0295,6.0974,6.1276,0.0,0.0,0.0,0.0,0.0,0.0,0.0,0.0,0.0,0.0,0.0,0.0,0.0,0.0,0.0,0.0,6.5459,6.5494,6.5552,6.5594,6.5622,6.5663,6.5717,6.5756,6.5833,6.5844,6.5931,6.599,6.6019,6.6095,6.6136,6.6235,6.6301,6.6342,6.6438,6.6569,6.6581,6.6594,6.6645,6.6651,6.6651,6.6639,6.6639,6.6645,6.6612,6.6594,6.6633,6.6639,6.6627,6.6601,6.6606,6.6606,6.6538,6.6508,6.6508,6.6508,6.6508,6.6508,6.6508,6.6508,6.6508,6.6508,6.6516,6.6546,6.6553,6.6553,6.6553,6.6601,6.6645,6.6657,6.6673,6.6716,6.6732,6.6759,6.6817,6.6787,6.6798,6.6807,6.6817,6.6859,6.6865,6.6911,6.6912,6.6913,6.6914,6.6914,6.6914,6.6914,6.6914,6.6914,6.6914,6.6911,6.6907,6.6906,6.686,6.6854,6.6848,6.7121,6.7277,5.6559,5.7766,5.9088,6.0951,6.0668,6.0253,6.1199,6.044,5.9508,5.9492,5.9907,6.0341,6.0678,6.1901,0.0,0.0,0.0,0.0,0.0,0.0,0.0,0.0,0.0,0.0,0.0,0.0,0.0,0.0,0.0,0.0,6.5337,6.5383,6.5375,6.5375,6.545,6.5509,6.5566,6.5594,6.5649,6.5717,6.5731,6.5795,6.5919,6.5955,6.6013,6.6069,6.6074,6.6196,6.6431,6.6446,6.6507,6.6528,6.6555,6.6555,6.6588,6.6601,6.6614,6.662,6.6555,6.6594,6.6601,6.6549,6.6567,6.6585,6.6585,6.6531,6.6508,6.6508,6.6508,6.6508,6.6508,6.6508,6.6508,6.6508,6.6508,6.6508,6.6508,6.6508,6.6508,6.6508,6.6535,6.6581,6.6581,6.6652,6.6702,6.6707,6.6736,6.6759,6.6811,6.6781,6.6795,6.6805,6.6809,6.6817,6.6867,6.6908,6.6911,6.6914,6.6914,6.6914,6.6914,6.6914,6.6914,6.6914,6.6909,6.6904,6.6904,6.6813,6.6802,6.6795,6.7107,6.7381,0.0,0.0,0.0,6.0723,6.0677,6.0393,6.1725,6.0658,5.9364,5.9253,5.91,5.9285,6.0206,6.1087,0.0,0.0,0.0,0.0,0.0,0.0,0.0,0.0,0.0,0.0,0.0,0.0,0.0,0.0,6.5199,6.5199,6.5199,6.5199,6.5199,6.5199,6.5242,6.5274,6.5274,6.5368,6.5405,6.5479,6.5494,6.5566,6.5703,6.5703,6.5743,6.5808,6.5808,6.5986,6.629,6.6373,6.6398,6.6406,6.6453,6.65,6.6508,6.6585,6.6588,6.6569,6.6531,6.6531,6.6599,6.6516,6.6508,6.6508,6.6508,6.6508,6.6508,6.6501,6.6501,6.6501,6.6508,6.6508,6.6508,6.6508,6.6508,6.6508,6.6508,6.6508,6.6508,6.6508,6.6535,6.6581,6.6581,6.6674,6.6717,6.6707,6.6711,6.6728,6.6805,6.6811,6.6817,6.6795,6.6805,6.6811,6.6811,6.6859,6.6906,6.6911,6.6911,6.6912,6.6914,6.6914,6.6914,6.6914,6.6909,6.6902,6.6902,6.6846,6.6795,6.6834,6.7651,6.851,5.4381,0.0,0.0,0.0,0.0,0.0,0.0,5.9811,5.9209,5.9746,5.9393,5.9079,5.9323,6.0576,6.1644,0.0,0.0,0.0,0.0,0.0,0.0,0.0,0.0,0.0,0.0,0.0,0.0,0.0,6.4763,6.4763,6.4763,6.4797,6.4868,6.4958,6.4993,6.4993,6.4993,6.5095,6.5123,6.5139,6.5305,6.5383,6.5429,6.545,6.5479,6.5509,6.5509,6.5569,6.5756,6.5997,6.6175,6.6254,6.6283,6.6311,6.6367,6.6385,6.642,6.6453,6.6428,6.6445,6.6439,6.6422,6.6446,6.6501,6.6431,6.6422,6.6414,6.6428,6.642,6.6428,6.6414,6.6446,6.6508,6.6508,6.6508,6.6508,6.6508,6.6508,6.6508,6.6508,6.6535,6.6581,6.6581,6.6674,6.6712,6.6683,6.6697,6.6716,6.6728,6.6755,6.6814,6.6817,6.6792,6.6805,6.6811,6.6815,6.6859,6.6905,6.6906,6.6908,6.6912,6.6912,6.6913,6.6914,6.6909,6.6862,6.6817,6.6802,6.679,6.6817,6.6986,6.7192,5.3695,5.4934,5.6512,5.7694,0.0,0.0,5.9866,5.9,5.808,0.0,5.8334,5.7813,5.8246,5.9661,6.0911,0.0,0.0,0.0,0.0,0.0,0.0,0.0,0.0,0.0,0.0,6.5399,6.5419,6.5479,6.5178,6.4801,6.4444,6.4445,6.4558,6.469,6.4708,6.4726,6.4763,6.4817,6.4833,6.4886,6.4989,6.5095,6.5128,6.5177,6.521,6.521,6.521,6.522,6.5314,6.5499,6.5744,6.6013,6.6058,6.6102,6.6144,6.6185,6.6254,6.6293,6.6312,6.634,6.632,6.6338,6.6364,6.642,6.6355,6.6346,6.6338,6.6331,6.6322,6.6331,6.6338,6.6411,6.6437,6.6453,6.6469,6.6439,6.6439,6.6493,6.6508,6.6508,6.6535,6.6581,6.6581,6.6674,6.6712,6.6712,6.6683,6.6697,6.6707,6.6732,6.6752,6.6801,6.6811,6.6784,6.6798,6.6798,6.6805,6.6859,6.6859,6.6862,6.6866,6.6866,6.6867,6.6868,6.6856,6.6837,6.6769,6.6775,6.6762,6.6724,6.6693,6.6613,5.3392,5.444,5.6106,5.7529,5.7473,0.0,5.9661,5.8308,5.6772,0.0,5.6619,5.6182,5.7101,5.864,6.0076,6.0976,0.0,0.0,0.0,0.0,0.0,0.0,0.0,0.0,6.6475,6.64,6.6443,6.6662,6.5933,6.5144,6.4356,6.4206,6.4209,6.4346,6.4346,6.4385,6.452,6.4539,6.4558,6.4614,6.4614,6.4707,6.4817,6.4817,6.4817,6.4817,6.4817,6.4909,6.5072,6.5072,6.5274,6.5676,6.5769,6.5832,6.5856,6.6001,6.6047,6.6058,6.6112,6.6144,6.6155,6.6244,6.6235,6.6284,6.6264,6.6225,6.6215,6.6155,6.6144,6.6165,6.6215,6.6274,6.6293,6.634,6.6346,6.6373,6.6373,6.6406,6.6477,6.6477,6.6521,6.6581,6.6581,6.6674,6.6712,6.6712,6.6712,6.6717,6.6702,6.6707,6.672,6.6779,6.6783,6.6791,6.6805,6.6805,6.6778,6.68,6.6802,6.6802,6.6766,6.6766,6.6761,6.6787,6.6769,6.6728,6.6686,6.6741,6.6693,6.6573,6.6567,6.6484,5.4543,5.5797,5.7457,5.7088,0.0,0.0,5.8651,5.8142,5.7722,0.0,5.6451,5.6161,5.7069,5.8548,5.9716,5.9908,0.0,0.0,0.0,0.0,0.0,0.0,0.0,0.0,6.6403,6.5805,6.5715,6.641,6.5699,6.5176,6.4989,6.4353,6.3979,6.4,6.4,6.4,6.4042,6.4125,6.4186,6.4206,6.4269,6.4309,6.4328,6.4328,6.4328,6.4328,6.4328,6.4762,6.5421,6.5462,6.5419,6.5307,6.5337,6.5441,6.5594,6.5622,6.5624,6.5678,6.5705,6.5769,6.5856,6.5881,6.5951,6.6058,6.5916,6.5919,6.5856,6.5744,6.5782,6.5869,6.5881,6.6001,6.608,6.6091,6.6134,6.6165,6.6165,6.6205,6.6245,6.6245,6.6446,6.6581,6.6581,6.6674,6.6712,6.6712,6.6712,6.6712,6.6717,6.6697,6.6711,6.6716,6.6771,6.6779,6.6724,6.6724,6.672,6.6707,6.6707,6.6707,6.6629,6.6629,6.6629,6.6624,6.6639,6.6567,6.6462,6.6542,6.6503,6.6454,6.6342,6.6196,5.495,5.5868,5.7299,5.6895,0.0,0.0,0.0,0.0,5.583,5.6301,5.5417,5.4938,5.6153,5.7368,5.8496,5.9374,6.1513,0.0,0.0,0.0,0.0,0.0,0.0,0.0,6.7243,6.65,6.6054,6.6054,6.6054,6.5682,6.4865,6.4382,6.4159,6.4264,6.3855,6.39,6.4354,6.401,6.3867,6.3867,6.3894,6.3915,6.3915,6.3915,6.3915,6.3915,6.4326,6.4775,6.5185,6.5603,6.5745,6.5633,6.5479,6.579,6.6142,6.5335,6.5362,6.5747,6.5375,6.5581,6.5992,6.5614,6.5838,6.611,6.5656,6.5485,6.5441,6.5367,6.5397,6.547,6.5513,6.5545,6.56,6.564,6.5692,6.5705,6.5705,6.5755,6.5804,6.5804,6.5958,6.6146,6.6384,6.6453,6.6489,6.6489,6.6489,6.6489,6.6489,6.651,6.6517,6.6517,6.6536,6.6543,6.6504,6.6484,6.6439,6.6439,6.6425,6.6404,6.6344,6.6344,6.6337,6.6353,6.6314,6.6239,6.6148,6.6118,6.635,6.6835,6.6752,6.6812,0.0,0.0,0.0,0.0,0.0,5.6514,0.0,0.0,0.0,0.0,0.0,0.0,0.0,0.0,0.0,0.0,0.0,0.0,0.0,0.0,0.0,0.0,0.0,0.0,0.0,6.6913,6.6174,6.5484,6.6038,6.5817,6.4487,6.4413,6.4437,6.4533,6.378,6.3789,6.4698,6.3919,6.3511,6.3511,6.3511,6.3511,6.3511,6.3511,6.3511,6.3571,6.4216,6.4661,6.4995,6.5477,6.5895,6.6221,6.5912,6.6229,6.6721,6.5426,6.5427,6.5993,6.5405,6.5684,6.6228,6.5631,6.5876,6.6294,6.561,6.5293,6.511,6.511,6.4996,6.4879,6.4964,6.4997,6.4992,6.5057,6.5099,6.507,6.507,6.5146,6.5168,6.4976,6.5039,6.5333,6.5979,6.6167,6.6205,6.6205,6.6205,6.6205,6.6205,6.6205,6.6205,6.6205,6.6205,6.6176,6.6156,6.6119,6.607,6.605,6.6013,6.5963,6.5951,6.594,6.5947,6.5942,6.5897,6.5839,6.5779,6.564,6.605,6.6972,6.6897,6.7099,0.0,0.0,0.0,0.0,5.8327,0.0,0.0,0.0,0.0,0.0,0.0,0.0,0.0,0.0,0.0,0.0,0.0,0.0,0.0,0.0,0.0,0.0,0.0,0.0,0.0,6.525,6.4696,6.4561,6.4635,6.4598,6.4413,6.4413,6.4413,6.4437,6.3638,6.3625,6.4462,6.3625,6.3255,6.3255,6.3255,6.3255,6.3255,6.3255,6.3255,6.3255,6.3329,6.424,6.5533,6.4868,6.546,6.6766,6.6258,6.6187,6.635,6.6185,6.6148,6.6244,6.617,6.6256,6.6362,6.6287,6.6345,6.6383,6.6308,6.5699,6.509,6.509,6.4649,6.4131,6.4151,6.4194,6.4215,6.4235,6.4275,6.4313,6.4313,6.4407,6.4291,6.3515,6.3381,6.3845,6.5385,6.5786,6.5865,6.5865,6.5865,6.5865,6.5865,6.5865,6.5865,6.5865,6.5865,6.582,6.5676,6.5652,6.5602,6.5499,6.5486,6.5446,6.5402,6.537,6.5379,6.5403,6.5384,6.5355,6.5284,6.5215,6.5397,6.5803,6.5662,6.5551,0.0,0.0,0.0,0.0,0.0,0.0,5.4987,0.0,5.4142,0.0,0.0,0.0,0.0,0.0,0.0,0.0,5.7556,0.0,0.0,0.0,0.0,0.0,0.0,0.0,0.0,0.0,0.0,0.0,6.4229,6.4229,6.4229,6.4229,6.445,6.4903,6.3652,6.3579,6.4903,6.3616,6.2953,6.2953,6.2953,6.2953,6.2953,6.2953,6.2953,6.299,6.3493,6.4119,6.4781,6.4892,6.5345,6.5959,6.5705,6.605,6.6577,6.6094,6.5956,6.5928,6.5482,6.5388,6.5538,6.6023,6.5851,6.5479,6.5479,6.4897,6.422,6.422,6.4003,6.3786,6.3786,6.3771,6.3814,6.3814,6.3819,6.3862,6.3862,6.3883,6.3813,6.3439,6.3052,6.299,6.3686,6.403,6.439,6.4924,6.5,6.5,6.5,6.5,6.5,6.5,6.5,6.4969,6.4889,6.5318,6.55,6.5469,6.5816,6.6027,6.5991,6.5556,6.5311,6.5311,6.5309,6.5291,6.5256,6.5672,6.5937,6.6048,6.5811,6.5851,5.7519,0.0,0.0,0.0,0.0,0.0,0.0,0.0,0.0,0.0,0.0,0.0,0.0,0.0,0.0,5.5831,0.0,5.6455,0.0,0.0,0.0,0.0,0.0,0.0,0.0,0.0,0.0,0.0,0.0,6.3503,6.3723,6.398,6.4347,6.4971,6.3796,6.3759,6.4971,6.3759,6.3062,6.278,6.278,6.278,6.278,6.278,6.278,6.2842,6.3466,6.387,6.4127,6.4457,6.4787,6.4971,6.4971,6.5467,6.6086,6.568,6.5583,6.5583,6.4992,6.4879,6.5025,6.5642,6.5395,6.4951,6.4951,6.4396,6.3729,6.3729,6.3581,6.3396,6.3396,6.3396,6.3396,6.3396,6.3396,6.3396,6.3396,6.3396,6.3322,6.31,6.2613,6.2235,6.2257,6.2657,6.32,6.384,6.4104,6.4254,6.4254,6.4254,6.4254,6.4254,6.4254,6.4235,6.4215,6.4717,6.4974,6.4991,6.5657,6.6042,6.6042,6.5464,6.5165,6.5165,6.494,6.4828,6.4849,6.5378,6.5634,6.5574,6.5848,6.6249,0.0,0.0,0.0,5.6235,0.0,0.0,0.0,0.0,5.5097,0.0,0.0,0.0,0.0,0.0,5.6748,5.6748,5.6124,0.0,0.0,0.0,0.0,0.0,0.0,0.0,0.0,0.0,0.0,0.0,0.0,0.0,6.278,6.3649,6.409,6.4127,6.409,6.409,6.4127,6.409,6.3613,6.278,6.278,6.278,6.278,6.278,6.278,6.278,6.2817,6.3319,6.4016,6.3209,6.3392,6.4127,6.4127,6.4189,6.4299,6.5007,6.5301,6.5301,6.5264,6.5264,6.529,6.5327,6.5327,6.529,6.529,6.4703,6.4079,6.4079,6.3491,6.2805,6.2805,6.2805,6.2805,6.2805,6.2805,6.2805,6.2805,6.2805,6.261,6.1802,6.1655,6.1643,6.1643,6.2235,6.2724,6.2762,6.3435,6.3899,6.3899,6.3899,6.3899,6.3899,6.3899,6.3857,6.3749,6.3727,6.3736,6.3661,6.4382,6.4828,6.4828,6.4828,6.4828,6.4828,6.407,6.3661,6.3661,6.3676,6.3631,6.3539,6.5441,6.6239,0.0,0.0,5.8744,5.6859,0.0,0.0,0.0,0.0,0.0,0.0,0.0,0.0,0.0,0.0,5.5207,5.5207,5.4987,5.462,0.0,0.0,0.0,0.0,0.0,0.0,0.0,0.0,0.0,0.0,6.1263,0.0,0.0,6.3099,6.3503,6.4053,6.3539,6.3503,6.409,6.3539,6.3099,6.278,6.278,6.278,6.278,6.278,6.278,6.278,6.278,6.2989,6.3209,6.289,6.2989,6.3246,6.3246,6.3246,6.3429,6.4787,6.4971,6.442,6.387,6.4016,6.4494,6.4494,6.4494,6.4494,6.4494,6.3906,6.3246,6.3246,6.3025,6.278,6.278,6.278,6.278,6.278,6.278,6.278,6.278,6.278,6.2707,6.2438,6.1961,6.1594,6.1594,6.1811,6.2147,6.2677,6.301,6.3158,6.3158,6.3158,6.3158,6.3158,6.3158,6.3134,6.3086,6.3639,6.4193,6.4672,6.4967,6.5114,6.5114,6.4623,6.4328,6.4328,6.407,6.3923,6.3923,6.4451,6.4684,6.4659,6.5336,6.5386,5.7997,5.84,0.0,5.7152,5.6822,0.0,5.4766,0.0,0.0,0.0,0.0,0.0,0.0,0.0,5.484,5.484,5.4583,5.4216,0.0,5.4326,0.0,0.0,0.0,0.0,0.0,0.0,5.9869,6.1484,6.086,0.0,0.0,0.0,6.3062,6.3613,6.3392,6.3392,6.3649,6.3392,6.3099,6.278,6.278,6.278,6.278,6.278,6.278,6.278,6.278,6.278,6.278,6.278,6.278,6.278,6.278,6.278,6.2927,6.3991,6.409,6.3576,6.2989,6.3172,6.3649,6.3649,6.3649,6.3649,6.3649,6.3246,6.278,6.278,6.278,6.278,6.278,6.278,6.278,6.278,6.278,6.278,6.278,6.278,6.278,6.278,6.2401,6.2034,6.2034,6.2034,6.2108,6.2365,6.2622,6.278,6.278,6.278,6.278,6.278,6.278,6.278,6.278,6.3319,6.387,6.4383,6.4714,6.4861,6.4861,6.4383,6.409,6.409,6.3796,6.3649,6.3649,6.4163,6.442,6.442,6.4751,6.4669]}]]